[[{"header":{"parameterUnit":"m.s-1","parameterCategory":1,"la1":30.6,"la2":29.2853,"lo1":-89.7004,"lo2":-87.6739,"dy":0.0162,"dx":0.0183,"nx":112,"ny":82,"refTime":"2023-05-17T12:00:00:Z","depth":0,"parameterNumber":2,"parameterNumberName":"U-component_of_WINDS"},"data":[0.0,0.0,0.0,0.0,0.0,0.0,0.0,0.0,0.0,0.0,0.0,0.0,0.0,0.0,0.0,0.0,0.0,0.0,0.0,0.0,0.0,0.0,0.0,0.0,0.0,0.0,0.0,0.0,0.0,0.0,0.0,0.0,0.0,0.0,0.0,0.0,0.0,0.0,0.0,0.0,0.0,0.0,0.0,0.0,0.0,0.0,0.0,0.0,0.0,0.0,0.0,0.0,0.0,0.0,0.0,0.0,0.0,0.0,0.0,0.0,0.0,0.0,0.0,0.0,0.0,0.0,0.0,0.0,0.0,0.0,0.0,0.0,0.0,0.0,0.0,0.0,0.0,0.0,0.0,0.0,0.0,0.0,0.0,0.0,0.0,0.0,0.0,0.0,0.0,0.0,3.5031,3.5916,3.5991,3.5282,3.3551,3.3392,3.2662,3.0921,0.0,0.0,0.0,0.0,0.0,0.0,0.0,0.0,0.0,0.0,0.0,0.0,0.0,0.0,0.0,0.0,0.0,0.0,0.0,0.0,0.0,0.0,0.0,0.0,0.0,0.0,0.0,0.0,0.0,0.0,0.0,0.0,0.0,0.0,0.0,0.0,0.0,0.0,0.0,0.0,0.0,0.0,0.0,0.0,0.0,0.0,0.0,0.0,0.0,0.0,0.0,0.0,0.0,0.0,0.0,0.0,0.0,0.0,0.0,0.0,0.0,0.0,0.0,0.0,0.0,0.0,0.0,0.0,0.0,0.0,0.0,0.0,0.0,0.0,0.0,0.0,0.0,0.0,0.0,0.0,0.0,0.0,0.0,0.0,0.0,0.0,0.0,0.0,0.0,0.0,0.0,0.0,0.0,0.0,0.0,0.0,0.0,0.0,0.0,0.0,0.0,0.0,0.0,0.0,3.5031,3.5916,3.6007,3.5295,3.3551,3.3407,3.2654,3.0921,0.0,0.0,0.0,0.0,0.0,0.0,0.0,0.0,0.0,0.0,0.0,0.0,0.0,0.0,0.0,0.0,0.0,0.0,0.0,0.0,0.0,0.0,0.0,0.0,0.0,0.0,0.0,0.0,0.0,0.0,0.0,0.0,0.0,0.0,0.0,0.0,0.0,0.0,0.0,0.0,0.0,0.0,0.0,0.0,0.0,0.0,0.0,0.0,0.0,0.0,0.0,0.0,0.0,0.0,0.0,0.0,0.0,0.0,0.0,0.0,0.0,0.0,0.0,0.0,0.0,0.0,0.0,0.0,0.0,0.0,0.0,0.0,0.0,0.0,0.0,0.0,0.0,0.0,0.0,0.0,0.0,0.0,0.0,0.0,0.0,0.0,0.0,0.0,0.0,0.0,0.0,0.0,0.0,0.0,0.0,0.0,0.0,0.0,0.0,0.0,0.0,0.0,0.0,3.456,3.555,3.5955,3.6004,3.549,3.4215,3.3676,3.2864,3.1583,3.1072,0.0,0.0,0.0,0.0,0.0,0.0,0.0,0.0,0.0,0.0,0.0,0.0,0.0,0.0,0.0,0.0,0.0,0.0,0.0,0.0,0.0,0.0,0.0,0.0,0.0,0.0,0.0,0.0,0.0,0.0,0.0,0.0,0.0,0.0,0.0,0.0,0.0,0.0,0.0,0.0,0.0,0.0,0.0,0.0,0.0,0.0,0.0,0.0,0.0,0.0,0.0,0.0,0.0,0.0,0.0,0.0,0.0,0.0,0.0,0.0,0.0,0.0,0.0,0.0,0.0,0.0,0.0,0.0,0.0,0.0,0.0,0.0,0.0,0.0,0.0,0.0,0.0,0.0,0.0,0.0,0.0,0.0,0.0,0.0,0.0,0.0,0.0,0.0,0.0,0.0,0.0,0.0,0.0,0.0,0.0,0.0,0.0,0.0,0.0,0.0,0.0,0.0,3.4927,3.5991,3.5991,3.6004,3.5642,3.4776,3.3906,3.3039,3.2167,3.1276,0.0,0.0,0.0,0.0,0.0,0.0,0.0,0.0,0.0,0.0,0.0,0.0,0.0,0.0,0.0,0.0,0.0,0.0,0.0,0.0,0.0,0.0,0.0,0.0,0.0,0.0,0.0,0.0,0.0,0.0,0.0,0.0,0.0,0.0,0.0,0.0,0.0,0.0,0.0,0.0,0.0,0.0,0.0,0.0,0.0,0.0,0.0,0.0,0.0,0.0,0.0,0.0,0.0,0.0,0.0,0.0,0.0,0.0,0.0,0.0,0.0,0.0,0.0,0.0,0.0,0.0,0.0,0.0,0.0,0.0,0.0,0.0,0.0,0.0,0.0,0.0,0.0,0.0,0.0,0.0,0.0,0.0,0.0,0.0,0.0,0.0,0.0,0.0,0.0,0.0,0.0,0.0,0.0,0.0,0.0,0.0,0.0,0.0,0.0,0.0,0.0,0.0,3.4927,3.5991,3.5991,3.5997,3.5654,3.4776,3.3901,3.3025,3.2152,3.122,0.0,0.0,0.0,0.0,0.0,0.0,0.0,0.0,0.0,0.0,0.0,0.0,0.0,0.0,0.0,0.0,0.0,0.0,0.0,0.0,0.0,0.0,0.0,0.0,0.0,0.0,0.0,0.0,0.0,0.0,0.0,0.0,0.0,0.0,0.0,0.0,0.0,0.0,0.0,0.0,0.0,0.0,0.0,0.0,0.0,0.0,0.0,0.0,0.0,0.0,0.0,0.0,0.0,0.0,0.0,0.0,0.0,0.0,0.0,0.0,0.0,0.0,0.0,0.0,0.0,0.0,0.0,0.0,0.0,0.0,0.0,0.0,0.0,0.0,0.0,0.0,0.0,0.0,0.0,0.0,0.0,0.0,0.0,0.0,0.0,0.0,0.0,0.0,0.0,0.0,0.0,0.0,0.0,0.0,0.0,0.0,0.0,0.0,0.0,0.0,0.0,0.0,3.4927,3.5991,3.5991,3.5997,3.5869,3.5537,3.4676,3.3779,3.2906,0.0,0.0,0.0,0.0,0.0,0.0,0.0,0.0,0.0,0.0,0.0,0.0,0.0,0.0,0.0,0.0,0.0,0.0,0.0,0.0,0.0,0.0,0.0,0.0,0.0,0.0,0.0,0.0,0.0,0.0,0.0,0.0,0.0,0.0,0.0,0.0,0.0,0.0,0.0,0.0,0.0,0.0,0.0,0.0,0.0,0.0,0.0,0.0,0.0,0.0,0.0,0.0,0.0,0.0,0.0,0.0,0.0,0.0,0.0,0.0,0.0,0.0,0.0,0.0,0.0,0.0,0.0,0.0,0.0,0.0,0.0,0.0,0.0,0.0,0.0,0.0,0.0,0.0,0.0,0.0,0.0,0.0,0.0,0.0,0.0,0.0,0.0,0.0,0.0,0.0,0.0,0.0,0.0,0.0,0.0,0.0,0.0,0.0,0.0,0.0,0.0,0.0,3.3785,3.5083,3.5991,3.5991,3.5997,3.6005,3.6005,3.5144,3.4227,3.3367,0.0,0.0,0.0,0.0,0.0,0.0,0.0,0.0,0.0,0.0,0.0,0.0,0.0,0.0,0.0,0.0,0.0,0.0,0.0,0.0,0.0,0.0,0.0,0.0,0.0,0.0,0.0,0.0,0.0,0.0,0.0,0.0,0.0,0.0,0.0,0.0,0.0,0.0,0.0,0.0,0.0,0.0,0.0,0.0,0.0,0.0,0.0,0.0,0.0,0.0,0.0,0.0,0.0,0.0,0.0,0.0,0.0,0.0,0.0,0.0,0.0,0.0,0.0,0.0,0.0,0.0,0.0,0.0,0.0,0.0,0.0,0.0,0.0,0.0,0.0,0.0,0.0,0.0,0.0,0.0,0.0,0.0,0.0,0.0,0.0,0.0,0.0,0.0,0.0,0.0,0.0,0.0,0.0,0.0,0.0,0.0,0.0,0.0,0.0,0.0,0.0,0.0,3.4586,3.5454,3.5991,3.5991,3.5997,3.6005,3.6005,3.5144,3.4241,0.0,0.0,0.0,0.0,0.0,0.0,0.0,0.0,0.0,0.0,0.0,0.0,0.0,0.0,0.0,0.0,0.0,0.0,0.0,0.0,0.0,0.0,0.0,0.0,0.0,0.0,0.0,0.0,0.0,0.0,0.0,0.0,0.0,0.0,0.0,0.0,0.0,0.0,0.0,0.0,0.0,0.0,0.0,0.0,0.0,0.0,0.0,0.0,0.0,0.0,0.0,0.0,0.0,0.0,0.0,0.0,0.0,0.0,0.0,0.0,0.0,0.0,0.0,0.0,0.0,0.0,0.0,0.0,0.0,0.0,0.0,0.0,0.0,0.0,0.0,0.0,0.0,0.0,0.0,0.0,0.0,0.0,0.0,0.0,0.0,0.0,0.0,0.0,0.0,0.0,0.0,0.0,0.0,0.0,0.0,0.0,0.0,0.0,0.0,0.0,0.0,0.0,0.0,3.4664,3.5454,3.5991,3.5991,3.5997,3.6005,3.6005,3.5699,3.5145,3.427,0.0,0.0,0.0,0.0,0.0,0.0,0.0,0.0,0.0,0.0,0.0,0.0,0.0,0.0,0.0,0.0,0.0,0.0,0.0,0.0,0.0,0.0,0.0,0.0,0.0,0.0,0.0,0.0,0.0,0.0,0.0,0.0,0.0,0.0,0.0,0.0,0.0,0.0,0.0,0.0,0.0,0.0,0.0,0.0,0.0,0.0,0.0,0.0,0.0,0.0,0.0,0.0,0.0,0.0,0.0,0.0,0.0,0.0,0.0,0.0,0.0,0.0,0.0,0.0,0.0,0.0,0.0,0.0,0.0,0.0,0.0,0.0,0.0,0.0,0.0,0.0,0.0,0.0,0.0,0.0,0.0,0.0,0.0,0.0,0.0,0.0,0.0,0.0,0.0,0.0,0.0,0.0,0.0,0.0,0.0,0.0,0.0,0.0,0.0,0.0,0.0,0.0,3.5172,3.5689,3.5991,3.5991,3.5997,3.6005,3.6005,3.5933,3.5528,3.4659,0.0,0.0,0.0,0.0,0.0,0.0,0.0,0.0,0.0,0.0,0.0,0.0,0.0,0.0,0.0,0.0,0.0,0.0,0.0,0.0,0.0,0.0,0.0,0.0,0.0,0.0,0.0,0.0,0.0,0.0,0.0,0.0,0.0,0.0,0.0,0.0,0.0,0.0,0.0,0.0,0.0,0.0,0.0,0.0,0.0,0.0,0.0,0.0,0.0,0.0,0.0,0.0,0.0,0.0,0.0,0.0,0.0,0.0,0.0,0.0,0.0,0.0,0.0,0.0,0.0,0.0,0.0,0.0,0.0,0.0,0.0,0.0,0.0,0.0,0.0,0.0,0.0,0.0,0.0,0.0,0.0,0.0,0.0,0.0,0.0,0.0,0.0,0.0,0.0,0.0,0.0,0.0,0.0,0.0,0.0,0.0,0.0,0.0,0.0,0.0,0.0,0.0,3.5894,3.6001,3.5991,3.5991,3.5997,3.6005,3.6005,3.5933,3.5567,3.4776,0.0,0.0,0.0,0.0,0.0,0.0,0.0,0.0,0.0,0.0,0.0,0.0,0.0,0.0,0.0,0.0,0.0,0.0,0.0,0.0,0.0,0.0,0.0,0.0,0.0,0.0,0.0,0.0,0.0,0.0,0.0,0.0,0.0,0.0,0.0,0.0,0.0,0.0,0.0,0.0,0.0,0.0,0.0,0.0,0.0,0.0,0.0,0.0,0.0,0.0,0.0,0.0,0.0,0.0,0.0,0.0,0.0,0.0,0.0,0.0,3.7677,3.729,0.0,0.0,0.0,0.0,0.0,0.0,0.0,0.0,0.0,0.0,0.0,0.0,0.0,0.0,0.0,0.0,0.0,0.0,0.0,0.0,0.0,0.0,0.0,0.0,0.0,0.0,0.0,0.0,0.0,0.0,0.0,0.0,0.0,0.0,0.0,0.0,0.0,0.0,0.0,0.0,3.5972,3.6001,3.5991,3.5991,3.5997,3.6005,3.6005,3.5942,3.5827,3.5632,3.4921,0.0,0.0,0.0,0.0,0.0,0.0,0.0,0.0,0.0,0.0,0.0,0.0,0.0,0.0,0.0,0.0,0.0,0.0,0.0,0.0,0.0,0.0,0.0,0.0,0.0,0.0,0.0,0.0,0.0,0.0,0.0,0.0,0.0,0.0,0.0,0.0,0.0,0.0,0.0,0.0,0.0,0.0,0.0,0.0,0.0,0.0,0.0,0.0,0.0,0.0,0.0,0.0,0.0,0.0,0.0,0.0,0.0,0.0,0.0,3.8566,3.7947,0.0,0.0,0.0,0.0,0.0,0.0,0.0,0.0,0.0,0.0,0.0,0.0,0.0,0.0,0.0,0.0,0.0,0.0,0.0,0.0,0.0,0.0,0.0,0.0,0.0,0.0,0.0,0.0,0.0,0.0,0.0,0.0,0.0,0.0,0.0,0.0,0.0,0.0,0.0,0.0,3.5992,3.6001,3.5991,3.6007,3.5994,3.5981,3.5958,3.5917,3.5905,3.5905,3.5418,0.0,0.0,0.0,0.0,0.0,0.0,0.0,0.0,0.0,0.0,0.0,0.0,0.0,0.0,0.0,0.0,0.0,0.0,0.0,0.0,0.0,0.0,0.0,0.0,0.0,0.0,0.0,0.0,0.0,0.0,0.0,0.0,0.0,0.0,0.0,0.0,0.0,0.0,0.0,0.0,0.0,0.0,0.0,0.0,0.0,0.0,0.0,0.0,0.0,0.0,0.0,0.0,0.0,3.9739,4.0094,4.079,4.079,4.079,4.0713,3.9282,3.8566,3.8431,3.8431,0.0,0.0,0.0,0.0,0.0,0.0,0.0,0.0,0.0,0.0,0.0,0.0,0.0,0.0,0.0,0.0,0.0,0.0,0.0,0.0,0.0,0.0,3.5991,3.5991,3.5991,3.5991,3.5991,0.0,0.0,0.0,0.0,0.0,0.0,0.0,0.0,0.0,0.0,0.0,3.5992,3.6001,3.6007,3.6001,3.599,3.5962,3.5909,3.5911,3.5898,3.5878,3.5818,3.5766,0.0,0.0,0.0,0.0,0.0,0.0,0.0,0.0,0.0,0.0,0.0,0.0,0.0,0.0,0.0,0.0,0.0,0.0,0.0,0.0,0.0,0.0,0.0,0.0,0.0,0.0,0.0,0.0,0.0,0.0,0.0,0.0,3.2244,3.3111,0.0,0.0,0.0,0.0,0.0,0.0,0.0,0.0,0.0,0.0,0.0,0.0,0.0,3.8518,3.9317,3.9317,3.977,4.0616,4.0616,4.0694,4.079,4.079,4.079,4.079,4.0558,0.0,3.9321,3.9321,0.0,0.0,0.0,0.0,0.0,0.0,0.0,0.0,0.0,0.0,0.0,0.0,0.0,0.0,0.0,0.0,0.0,0.0,0.0,0.0,0.0,0.0,3.5991,3.5991,3.5991,3.5991,3.5991,3.5991,3.5991,3.5991,3.5991,3.5991,0.0,0.0,0.0,0.0,0.0,0.0,3.5992,3.6001,3.6007,3.6001,3.599,3.5977,3.5914,3.5905,3.5872,3.5811,3.5754,3.5708,3.5708,3.5581,0.0,0.0,0.0,0.0,0.0,0.0,0.0,0.0,0.0,0.0,0.0,0.0,0.0,0.0,0.0,0.0,0.0,0.0,0.0,0.0,0.0,0.0,0.0,0.0,0.0,0.0,0.0,0.0,0.0,3.2697,3.37,3.409,3.4909,3.5416,0.0,0.0,0.0,0.0,0.0,0.0,0.0,0.0,0.0,3.8524,3.8869,3.9442,4.0283,4.0253,4.0424,4.0796,4.0796,4.0796,4.079,4.079,4.079,4.079,4.079,4.0578,4.023,4.023,4.0014,3.9702,0.0,0.0,0.0,0.0,3.9127,3.9069,3.8583,3.8195,3.7935,3.7932,0.0,0.0,0.0,0.0,0.0,0.0,0.0,3.5991,3.5991,3.5991,3.5991,3.5991,3.5991,3.5991,3.5991,3.5991,3.5991,3.5991,3.5991,3.5991,3.5991,3.5991,0.0,0.0,0.0,3.6009,3.5991,3.6001,3.6007,3.5994,3.6009,3.5973,3.5903,3.5898,3.5872,3.5811,3.5745,3.5708,3.5708,3.5657,3.5631,0.0,0.0,0.0,0.0,0.0,0.0,0.0,0.0,0.0,0.0,0.0,0.0,0.0,0.0,0.0,0.0,0.0,0.0,0.0,0.0,0.0,0.0,0.0,0.0,0.0,0.0,0.0,0.0,3.3743,3.4776,3.501,3.56,3.5997,0.0,0.0,0.0,0.0,0.0,0.0,3.7155,3.7403,3.8202,3.9684,3.9874,4.0256,4.0898,4.0858,4.0807,4.0792,4.0792,4.08,4.0803,4.0803,4.0803,4.079,4.079,4.0803,4.0803,4.0803,4.08,4.0807,4.0818,4.0868,4.083,4.0256,4.003,3.9945,3.9291,3.8961,3.8831,3.8834,3.8697,3.8417,3.7819,0.0,0.0,0.0,0.0,3.6677,3.6677,3.6677,3.6677,3.6677,3.6677,3.6677,3.6662,3.6662,3.6523,3.6091,3.5996,3.5996,3.5994,3.5991,0.0,3.6009,3.5993,3.5996,3.6007,3.5996,3.6004,3.6005,3.5981,3.5948,3.5905,3.5911,3.5864,3.5795,3.5736,3.5699,3.5699,3.5646,3.5608,3.5604,0.0,0.0,0.0,0.0,0.0,0.0,0.0,0.0,0.0,0.0,0.0,0.0,0.0,0.0,0.0,0.0,0.0,0.0,0.0,0.0,0.0,0.0,0.0,0.0,0.0,0.0,0.0,0.0,0.0,3.5835,3.5964,0.0,0.0,0.0,0.0,3.5991,3.5994,3.6356,3.7164,3.7986,3.8848,3.976,4.0526,4.0918,4.0907,4.0907,4.0859,4.0807,4.0807,4.0804,4.08,4.08,4.0796,4.079,4.079,4.0796,4.08,4.08,4.0792,4.0807,4.0877,4.0898,4.0888,4.0935,4.0941,4.0937,4.0882,4.0377,3.9733,3.9721,3.9217,3.859,3.8551,3.8492,0.0,0.0,3.8475,3.8475,3.8475,3.8475,3.8475,3.8475,3.8475,3.8478,3.8469,3.8471,3.7981,3.6328,3.6003,3.6007,3.5994,0.0,3.6009,3.6003,3.5994,3.5994,3.5994,3.6004,3.5994,3.6005,3.5938,3.5894,3.5905,3.5905,3.5877,3.5812,3.5737,3.5699,3.5688,3.5635,3.5608,3.5604,3.5528,0.0,0.0,0.0,0.0,0.0,0.0,0.0,0.0,0.0,0.0,0.0,0.0,0.0,0.0,0.0,0.0,0.0,0.0,0.0,0.0,0.0,0.0,0.0,0.0,0.0,0.0,0.0,0.0,3.5956,3.5996,0.0,3.5992,3.5995,3.5996,3.5995,3.6519,3.7198,3.7987,3.8863,3.9731,4.0604,4.092,4.1026,4.0972,4.0964,4.0924,4.0859,4.0859,4.0839,4.0796,4.0796,4.0804,4.0792,4.0792,4.0804,4.0796,4.0846,4.0856,4.0867,4.0897,4.0898,4.0907,4.0974,4.0999,4.0996,4.0999,4.0844,4.0649,4.0638,4.0055,3.937,3.937,3.9,3.8593,3.8593,3.8593,3.8593,3.8593,3.8598,3.8604,3.8604,3.8598,3.8593,3.8598,3.8604,3.841,3.7792,3.7678,3.7665,3.7672,3.7676,3.767,3.7675,3.7669,3.7669,3.7669,3.7643,3.7613,3.7605,3.7586,3.7559,3.7513,3.7498,3.7475,3.7414,3.6871,3.6522,3.6469,3.5921,3.5584,3.5547,3.5509,3.5501,0.0,0.0,0.0,0.0,0.0,0.0,0.0,0.0,0.0,0.0,0.0,0.0,0.0,0.0,0.0,0.0,0.0,0.0,0.0,0.0,0.0,0.0,0.0,0.0,0.0,3.5421,3.5964,3.5979,3.5974,3.5965,3.5966,3.5974,3.5971,3.5966,3.677,3.7634,3.8455,3.9334,4.0209,4.1065,4.1094,4.1076,4.1031,4.1039,4.1006,4.0924,4.0924,4.0897,4.0839,4.0839,4.0828,4.0807,4.0807,4.0818,4.0837,4.0877,4.0907,4.0898,4.0898,4.0917,4.0945,4.0991,4.1007,4.0991,4.1039,4.1052,4.1109,4.1096,4.0703,4.0249,4.0249,3.9878,3.9432,3.9432,3.9435,3.9437,3.9432,3.9437,3.9445,3.947,3.9487,3.9483,3.9483,3.9452,3.9434,3.9432,3.8982,3.8593,3.8592,3.8604,3.8595,3.8609,3.8606,3.8587,3.8564,3.8537,3.851,3.8497,3.8492,3.8481,3.8408,3.8397,3.8363,3.8297,3.7744,3.7373,3.7336,3.6767,3.6408,3.6331,3.6315,3.6306,3.6306,0.0,0.0,0.0,0.0,0.0,0.0,0.0,0.0,0.0,0.0,0.0,0.0,0.0,0.0,0.0,0.0,0.0,0.0,0.0,0.0,0.0,0.0,0.0,3.4729,3.5417,3.5908,3.5908,3.5898,3.5898,3.5898,3.5898,3.5911,3.5903,3.6738,3.7617,3.8446,3.9344,4.0232,4.1064,4.1103,4.1094,4.109,4.1096,4.107,4.0993,4.1013,4.0976,4.0888,4.0888,4.0859,4.0818,4.0818,4.0848,4.0907,4.0907,4.0908,4.0907,4.0907,4.0945,4.101,4.1007,4.0991,4.1013,4.1084,4.1106,4.1096,4.1109,4.1101,4.1108,4.1108,4.1108,4.1108,4.1111,4.1099,4.1105,4.1094,4.1091,4.1116,4.1171,4.1191,4.1191,4.1191,4.1146,4.1111,4.1108,3.98,3.8684,3.8684,3.8678,3.8682,3.8687,3.8684,0.0,3.8596,3.8588,3.8575,3.858,3.8572,3.8546,3.8486,3.8477,3.8452,3.8384,3.8294,3.8249,3.8247,3.8164,3.8067,3.7993,3.7939,3.7894,3.7894,0.0,0.0,0.0,0.0,0.0,0.0,0.0,0.0,0.0,0.0,0.0,0.0,0.0,0.0,0.0,0.0,0.0,0.0,0.0,0.0,0.0,3.5507,3.5496,3.5563,3.5766,3.5891,3.584,3.584,3.5838,3.5834,3.583,3.584,3.5827,3.7221,3.8194,3.8488,3.9938,4.0857,4.1087,4.111,4.1094,4.1094,4.1091,4.1097,4.1072,4.1019,4.0993,4.0964,4.0968,4.0952,4.0963,4.0963,4.0963,4.0963,4.0963,4.0971,4.098,4.0963,4.0982,4.0991,4.1003,4.1039,4.1084,4.1095,4.1091,4.1109,4.1094,4.1101,4.1108,4.1108,4.1108,4.1091,4.1101,4.1099,4.1119,4.1168,4.117,4.117,4.1191,4.1168,4.1121,4.1121,4.1101,4.1101,4.1091,4.0737,4.0405,4.0405,4.0408,4.0408,4.0414,4.0411,4.0411,4.0398,4.0389,4.0374,4.0318,4.0305,4.0315,4.0299,4.0247,4.0179,4.0109,3.9503,3.9115,3.9071,3.8414,3.8012,3.7939,3.7909,3.7897,0.0,0.0,0.0,0.0,0.0,0.0,0.0,0.0,0.0,0.0,0.0,0.0,0.0,0.0,0.0,0.0,0.0,0.0,0.0,0.0,0.0,0.0,3.5833,3.5803,3.5811,3.5811,3.5803,3.576,3.5743,3.5717,3.5718,3.5717,3.587,3.6237,3.7564,3.8521,3.8933,4.0286,4.1061,4.1061,4.1081,4.1103,4.1094,4.1093,4.1107,4.1104,4.1061,4.1037,4.1033,4.1013,4.0999,4.1011,4.0996,4.0996,4.0996,4.0996,4.0996,4.0996,0.0,0.0,0.0,0.0,4.1064,4.1095,4.1111,4.11,4.1094,4.1097,4.1104,4.1108,4.1108,4.1108,4.1091,4.1099,4.1123,4.1146,4.1191,4.1171,4.1167,4.1167,4.1123,4.1097,4.1091,4.1097,4.1099,4.1091,4.1104,0.0,4.1104,4.1104,4.1101,4.1094,4.1109,4.11,4.1106,4.1075,4.1039,4.1007,4.1011,4.0991,4.0954,4.0898,0.0,0.0,0.0,3.9966,3.9918,3.936,0.0,0.0,0.0,3.8903,3.8906,0.0,0.0,0.0,3.9769,4.005,0.0,0.0,0.0,0.0,0.0,0.0,0.0,0.0,0.0,0.0,0.0,0.0,0.0,0.0,0.0,0.0,3.5799,3.5747,3.5678,3.5658,3.5669,3.5667,3.5626,3.5585,3.5585,3.5585,3.5944,3.6798,3.7751,3.8655,3.952,4.0468,0.0,0.0,0.0,4.109,4.1085,4.1101,4.1093,4.1105,4.1097,4.1101,4.1091,4.105,4.1013,4.1013,4.1018,4.1011,4.1011,4.1011,4.1069,4.1147,4.1042,4.0991,4.102,4.1084,4.11,4.1106,4.1105,0.0,0.0,4.1108,4.1108,4.1108,4.1108,4.1108,4.1108,4.1108,4.1146,4.1191,4.1191,4.1144,4.1108,4.1108,4.1099,4.1103,4.1091,4.1108,4.1108,4.1108,4.1097,4.109,4.109,4.109,4.109,4.1109,4.11,4.1086,4.1095,4.1039,4.1,4.1006,0.0,0.0,4.0907,4.0839,4.0804,4.0788,4.0726,4.066,4.0592,4.0531,4.0502,4.0485,4.0362,4.0307,4.0289,4.0289,4.0307,4.0307,4.0449,4.0499,0.0,0.0,0.0,0.0,0.0,0.0,0.0,0.0,0.0,0.0,0.0,0.0,0.0,0.0,0.0,3.5791,3.5708,3.5612,3.5477,3.5424,3.5411,3.554,3.5489,3.5443,3.5432,3.5443,3.579,3.6665,3.7623,3.853,3.9398,4.0331,4.0829,4.084,4.0949,4.1026,4.1013,4.1062,4.1099,4.1108,4.1092,0.0,4.1094,4.109,4.1072,4.1075,4.1075,4.1075,4.1075,4.1075,4.149,4.2056,4.1292,4.102,4.1089,4.1095,4.1091,4.1109,4.1094,4.1101,4.1108,4.1108,4.1108,4.1108,4.1108,4.1108,0.0,4.1108,4.1146,4.1191,4.1123,4.1114,4.1108,4.1108,4.1091,4.1094,4.1111,4.1101,4.1097,4.1097,4.1105,4.1096,4.1096,4.1096,4.1096,4.1106,4.105,4.1013,4.102,4.0999,4.0996,4.0999,4.0954,4.0907,4.0898,4.0846,4.0781,4.0725,4.0673,4.0592,4.0515,4.0518,4.0449,4.0342,4.0325,4.0308,4.0291,4.0291,4.0309,4.0307,4.0449,4.0502,0.0,0.0,0.0,0.0,0.0,0.0,0.0,0.0,0.0,0.0,0.0,3.5934,3.5858,0.0,3.5771,3.5708,3.5581,3.5451,3.5311,3.5239,3.5223,3.5281,3.527,3.5235,3.5197,3.5618,3.6246,3.7083,3.8009,3.8954,3.9846,4.0384,4.0662,4.0699,4.0839,4.0915,4.096,4.1017,4.107,4.1108,4.111,4.1094,4.1093,4.1099,4.1101,4.1109,4.1105,4.11,4.112,4.1564,4.2013,4.2403,4.2362,4.2109,4.1691,4.1271,4.1105,4.1094,4.1101,4.1104,4.1108,4.1108,4.1094,4.1099,4.1091,4.1108,4.1097,4.1093,4.1112,4.1146,4.1101,4.1094,4.1108,4.1108,4.1104,4.1101,4.1101,4.1094,4.1105,4.1105,4.1096,4.1081,4.1056,4.105,4.1045,4.1045,4.1013,4.0993,4.0991,4.0996,4.0991,4.0954,4.0927,4.0888,4.0846,4.0788,4.0726,4.0654,4.0617,4.0577,4.0502,4.0485,4.0396,4.0307,4.0308,4.0291,4.031,4.031,4.0291,4.0309,4.0362,4.0432,0.0,0.0,0.0,0.0,0.0,0.0,0.0,3.5991,3.6007,3.5997,3.5958,3.5875,3.5801,3.5799,3.5737,3.5601,3.5451,3.5311,3.5157,3.5226,3.5267,3.5191,3.5228,3.5246,3.521,3.6007,3.69,3.7719,3.8517,3.9372,4.0286,4.0422,4.0515,4.0564,4.0694,4.0787,4.0859,4.0929,4.1013,4.1072,4.1081,4.1099,4.1105,4.1093,4.1105,4.1097,4.1101,4.1094,4.1172,4.2221,4.2646,4.2744,4.3602,4.3426,4.2549,4.1675,4.125,4.1097,4.1108,4.1108,4.1108,4.1108,4.1097,4.1103,4.1119,4.1101,4.111,4.1101,4.1108,4.1091,4.1103,4.1099,4.1108,4.1108,4.1101,4.1094,4.109,4.11,4.1091,4.1091,4.11,4.1064,4.1007,4.0993,4.1006,4.1,4.1006,4.1011,4.0988,4.0982,4.0945,4.0898,4.0888,4.0846,4.0788,4.0713,4.0646,4.0588,4.0592,4.0546,4.0466,4.0415,4.0285,4.004,4.0061,3.9966,3.9794,3.9794,3.9794,3.9794,3.9811,4.0053,3.5782,3.5853,3.5909,3.5986,3.6001,3.5991,0.0,3.6007,3.5997,3.6009,3.5948,3.5872,3.5815,3.5747,3.5657,3.5445,3.5311,3.5157,3.4964,3.5493,3.5821,3.5581,3.5738,3.5885,3.5885,3.664,3.7473,3.8331,3.8648,3.9204,4.008,4.0307,4.0411,4.0411,4.0564,4.0655,4.0718,4.0849,4.0952,4.1011,4.107,4.1109,4.1091,4.1101,4.1091,4.1093,4.1099,4.1108,4.1225,4.2884,4.3548,4.3642,4.4501,4.4325,4.3443,4.258,4.1765,4.1108,4.1108,4.1108,4.1108,4.1108,4.1091,4.1116,4.117,4.115,4.1097,4.1091,4.1108,4.1111,4.1091,4.1091,4.1108,4.1097,4.1094,4.109,4.11,4.1106,4.11,4.11,4.1058,4.1013,4.0993,4.0991,4.0996,4.1003,4.1007,4.0982,4.0917,4.0908,4.0888,4.0818,4.0804,4.0776,4.0713,4.0646,4.0622,4.0607,4.0546,4.0466,4.0415,4.0362,3.9945,3.9145,3.9145,3.8763,3.798,3.798,3.798,3.798,3.8051,3.8908,3.5834,3.5879,3.5924,3.5981,3.5997,3.6124,3.6635,3.6765,3.6891,3.7362,3.7409,3.7338,3.7268,3.7138,3.6974,3.678,3.6589,3.6406,3.6144,3.6314,3.6395,3.6192,3.6696,3.6889,3.6494,3.7234,3.7882,3.8291,3.8901,3.9448,3.9851,4.0059,4.0196,4.0272,4.0411,4.0519,4.064,4.0738,4.0848,4.0936,4.1003,4.1039,4.1033,4.1085,4.1103,4.1093,4.1092,4.138,4.1943,4.3193,4.3991,4.4538,4.5417,4.5221,4.4282,4.2903,4.1849,4.1091,4.1099,4.1097,4.1108,4.1108,4.1108,4.1112,4.1126,4.1123,4.1099,4.1091,4.1108,4.1108,4.1101,4.1101,4.1097,4.1105,4.1096,4.1091,4.1106,4.1064,4.1052,4.1052,4.1025,4.1003,4.0996,4.0971,4.0935,4.0936,4.0936,4.0936,4.0908,4.0877,4.0826,4.0742,4.0745,4.0713,4.0646,4.0622,4.0592,4.0546,4.0518,4.0238,3.9672,3.9616,3.916,3.8266,3.8247,3.8056,3.7693,3.7693,3.7693,3.7693,3.7729,3.8163,3.5857,3.5905,3.5972,3.6255,3.6345,3.659,3.7458,3.7643,3.7804,3.8385,3.8462,3.8369,3.8267,3.8099,3.7916,3.7708,3.7471,3.7241,3.6996,3.7013,3.6983,3.6851,3.7497,3.7784,3.7322,3.792,3.838,3.8413,3.9089,3.9551,3.9623,3.9804,3.9975,4.0098,4.0253,4.0377,4.0511,4.0607,4.0713,4.0854,4.0927,4.0968,4.0974,4.1061,4.1094,4.1107,4.1091,4.1582,4.246,4.3339,4.4218,4.5097,4.5956,4.576,4.4822,4.3315,4.2212,4.1423,4.1185,4.111,4.1108,4.1105,4.1094,4.1094,4.1091,4.1097,4.1101,4.1091,4.1108,4.1104,4.1094,4.109,4.1105,4.1091,4.11,4.1095,4.1084,4.1026,4.1006,4.0999,4.1003,4.098,4.0982,4.0936,4.0888,4.0877,4.0868,4.0868,4.0867,4.0815,4.075,4.0681,4.0668,4.0646,4.0573,4.0558,4.0546,4.0485,4.0238,3.9802,3.9138,3.8852,3.8282,3.7387,3.7368,3.7254,3.7005,3.7005,3.7005,3.7005,3.7005,3.7058,3.5857,3.5892,3.6092,3.6957,3.7203,3.7487,3.8355,3.8518,3.8478,3.8483,3.8449,3.8343,3.8144,3.799,3.7836,3.7641,3.7327,3.7065,3.6913,3.731,3.7542,3.7386,3.8041,3.8455,3.8468,3.8778,3.897,3.8989,3.9192,3.935,3.942,3.9599,3.9762,3.9911,4.0036,4.0177,4.0307,4.0441,4.0564,4.07,4.0834,4.0898,4.0913,4.1037,4.1097,4.1091,4.1091,4.1587,4.2474,4.3333,4.4212,4.5091,4.595,4.5774,4.4895,4.3999,4.3105,4.2246,4.1385,4.111,4.1094,4.1105,4.1107,4.1105,4.1094,4.1111,4.1111,4.1108,4.1101,4.1094,4.1094,4.1105,4.1091,4.11,4.1095,4.1089,4.102,4.1006,4.0999,4.1003,4.0999,4.0982,4.0917,4.0908,4.0877,4.0818,4.0804,4.08,4.08,4.0739,4.0668,4.0621,4.0598,4.0573,4.0504,4.0495,4.0466,4.0415,3.9614,3.9138,3.9099,3.8225,3.7368,3.6566,3.6547,3.6126,3.5286,3.5286,3.5286,3.5286,3.5286,3.5302,3.5857,3.5892,3.6111,3.6976,3.7242,3.7663,3.9078,3.9376,3.9511,4.0051,4.0073,3.9966,3.985,3.9604,3.9354,3.9162,3.8818,3.8476,3.8248,3.8195,3.8151,3.8,3.8122,3.8285,3.8354,3.8559,3.8725,3.8881,3.8979,3.9073,3.9192,3.9401,3.9551,3.9712,3.9867,4.0038,4.0234,4.0325,4.046,4.0651,4.0812,4.0898,4.0894,4.0987,4.1061,4.1096,4.109,4.1924,4.3283,4.3573,4.4549,4.5899,4.6192,4.6114,4.5685,4.422,4.3505,4.3064,4.1599,4.1103,4.1091,4.1094,4.1097,4.1097,4.1091,4.1104,4.1097,4.1097,4.109,4.11,4.1091,4.1106,4.1095,4.1033,4.1026,4.1039,4.0991,4.0996,4.1007,4.0999,4.0965,4.0927,4.0898,4.0856,4.0812,4.0745,4.0725,4.0725,4.0739,4.0681,4.0626,4.0598,4.0554,4.0523,4.0495,4.0466,4.0415,4.0325,3.9559,3.8833,3.8206,3.7313,3.6457,3.5637,3.5583,3.5431,3.5145,3.5181,3.5198,3.5198,3.5193,3.5245,3.5857,3.5892,3.617,3.7366,3.7691,3.817,3.9878,4.0255,4.0404,4.0902,4.0894,4.0768,4.0694,4.0406,4.0139,3.9914,3.9526,3.9137,3.8873,3.8554,3.8318,3.8223,3.8104,3.807,3.814,3.8256,3.8382,3.8652,3.8762,3.8881,3.9007,3.9165,3.935,3.9526,3.9689,3.9867,4.0098,4.0177,4.0342,4.0607,4.0752,4.0848,4.0897,4.0929,4.0993,4.1089,4.1398,4.2349,4.3712,4.4005,4.4961,4.6249,4.6249,4.6249,4.6093,4.4669,4.3946,4.3447,4.1704,4.1097,4.1108,4.1104,4.1104,4.1104,4.1101,4.1094,4.1105,4.1105,4.1096,4.1106,4.11,4.1089,4.1052,4.1013,4.0999,4.0991,4.1007,4.0999,4.0982,4.0965,4.0927,4.0897,4.0876,4.08,4.0752,4.07,4.0681,4.0668,4.066,4.0626,4.0583,4.0577,4.0527,4.0479,4.043,4.0379,4.021,3.9868,3.9066,3.8188,3.7274,3.6401,3.568,3.5183,3.5129,3.5092,3.5092,3.5147,3.5183,3.52,3.5196,3.5229,3.5864,3.5898,3.6331,3.8064,3.8491,3.8951,4.0698,4.1094,4.1086,4.1019,4.0894,4.0757,4.0629,4.037,4.0101,3.9829,3.9401,3.8998,3.873,3.8346,3.8086,3.7984,3.7916,3.7864,3.7864,3.7864,3.802,3.835,3.8546,3.8719,3.8792,3.896,3.9183,3.9376,3.9452,3.9623,3.9889,4.0036,4.0272,4.0592,4.066,4.0764,4.0897,4.0888,4.0932,4.1046,4.1922,4.2818,4.3768,4.4562,4.5406,4.6206,4.6206,4.6206,4.6089,4.5231,4.4392,4.3461,4.1765,4.1147,4.1104,4.1097,4.1094,4.109,4.1096,4.1091,4.1091,4.1091,4.1106,4.1095,4.1095,4.1052,4.1006,4.1006,4.1011,4.1007,4.101,4.0982,4.0984,4.0917,4.0897,4.0856,4.08,4.0739,4.07,4.0687,4.0631,4.0607,4.0607,4.0607,4.0577,4.0518,4.0502,4.0449,4.0307,4.0307,3.9945,3.9049,3.8192,3.7297,3.6422,3.5548,3.5092,3.5092,3.5092,3.5092,3.5092,3.5092,3.5129,3.52,3.52,3.5198,3.5884,3.5891,3.6314,3.8068,3.8537,3.9019,4.0717,4.1094,4.1086,4.1019,4.0885,4.0765,4.0615,4.03,3.9962,3.9693,3.9298,3.8902,3.8523,3.8219,3.7949,3.7721,3.7613,3.7594,3.7667,3.7667,3.7792,3.8086,3.8186,3.8401,3.8719,3.8881,3.9017,3.9183,3.9401,3.9575,3.9739,4.0039,4.0271,4.0463,4.0573,4.0668,4.075,4.0848,4.0898,4.0982,4.1891,4.2804,4.3695,4.4553,4.5409,4.6206,4.6206,4.6206,4.6089,4.5231,4.4392,4.3534,4.2451,4.1632,4.1105,4.11,4.11,4.1096,4.1096,4.1106,4.11,4.11,4.1064,4.102,4.102,4.1006,4.1003,4.1007,4.0999,4.0991,4.0945,4.0917,4.0917,4.0907,4.0865,4.08,4.0739,4.0713,4.0673,4.0631,4.0622,4.0607,4.0607,4.0562,4.0534,4.0502,4.0396,4.0325,4.0307,4.0309,3.9909,3.8975,3.8155,3.7297,3.6367,3.5475,3.502,3.502,3.4983,3.4945,3.4945,3.5001,3.502,3.5038,3.5147,3.52,3.5878,3.6175,3.6791,3.8194,3.8853,3.9507,4.0815,4.1101,4.1081,4.1,4.0885,4.0746,4.0602,4.0247,3.9901,3.9604,3.9219,3.8833,3.8401,3.8052,3.7774,3.754,3.7429,3.741,3.7484,3.7503,3.7613,3.7828,3.8018,3.8252,3.8546,3.8701,3.8881,3.9045,3.9219,3.9452,3.9693,3.9937,4.0139,4.0325,4.0463,4.0569,4.0655,4.0761,4.0848,4.0966,4.2276,4.3116,4.37,4.4954,4.5767,4.6196,4.6203,4.6209,4.615,4.5657,4.4702,4.359,4.3103,4.2128,4.1095,4.1106,4.1106,4.1106,4.1095,4.1084,4.1058,4.1058,4.1039,4.0991,4.0991,4.0996,4.0999,4.101,4.0993,4.0946,4.0908,4.0888,4.0867,4.0865,4.08,4.0739,4.07,4.0673,4.0631,4.0607,4.0577,4.0546,4.0546,4.0515,4.0485,4.0432,4.0342,4.0289,4.029,4.0272,3.9719,3.846,3.789,3.7053,3.5779,3.5229,3.4945,3.4945,3.4927,3.4908,3.4908,3.4945,3.4964,3.5001,3.5075,3.5129,3.5885,3.6537,3.742,3.8342,3.9253,4.0118,4.0918,4.1091,4.1081,4.1031,4.0902,4.0738,4.0535,4.0229,3.9859,3.9532,3.9137,3.875,3.8434,3.7398,3.664,3.6537,3.6366,3.626,3.626,3.6934,3.7429,3.7577,3.788,3.8153,3.835,3.8546,3.878,3.9007,3.9101,3.9324,3.967,3.9826,3.9996,4.0177,4.0325,4.046,4.0574,4.0675,4.0754,4.0966,4.2733,4.352,4.3711,4.5468,4.6185,4.6185,4.6181,4.6189,4.6189,4.6189,4.5098,4.3591,4.3591,4.2507,4.1085,4.1084,4.1089,4.1089,4.1091,4.1052,4.1006,4.1006,4.1011,4.0988,4.0988,4.0999,4.0982,4.0993,4.0937,4.0897,4.0897,4.0837,4.0796,4.08,4.0739,4.07,4.0687,4.0631,4.0607,4.0588,4.0531,4.0502,4.0502,4.0485,4.0432,4.0307,4.0307,4.029,4.0291,4.0215,3.9471,3.7793,3.7566,3.6749,3.5077,3.4927,3.4908,3.4908,3.4908,3.4908,3.4908,3.4908,3.4927,3.5001,3.5001,3.502,3.5872,3.6537,3.741,3.83,3.9214,4.0116,4.0914,4.1103,4.1091,4.1085,4.0926,4.0738,4.0538,4.0173,3.9794,3.9408,3.8952,3.8697,3.8868,3.449,3.1405,3.1815,3.1264,3.0859,3.0859,3.4787,3.741,3.7594,3.781,3.8002,3.8135,3.8415,3.8695,3.9073,3.9264,3.9401,3.9532,3.9781,3.9975,4.0118,4.0252,4.0375,4.0519,4.064,4.072,4.0827,4.2632,4.3461,4.3646,4.5405,4.6123,4.6122,4.613,4.613,4.613,4.613,4.5059,4.3592,4.3592,4.2463,4.103,4.1013,4.102,4.1013,4.1011,4.1003,4.1003,4.1003,4.1007,4.0991,4.0991,4.0954,4.0927,4.0927,4.0907,4.0877,4.0837,4.0804,4.08,4.0803,4.0746,4.0687,4.0621,4.0617,4.0573,4.0523,4.0515,4.0485,4.0432,4.0379,4.0325,4.0307,4.0309,4.0272,4.0215,4.0196,3.9433,3.7661,3.7509,3.671,3.5003,3.4908,3.4908,3.4908,3.4908,3.4908,3.4908,3.4908,3.4908,3.4927,3.4964,3.5001,3.5872,3.6874,3.7987,3.8437,3.955,4.064,4.1006,4.1092,4.1091,4.1069,4.0922,4.0742,4.0544,4.0137,3.9728,3.9305,3.9206,3.8052,3.487,3.2143,2.9387,2.6466,2.573,2.6505,2.9188,3.1813,3.4488,3.7237,3.7721,3.7951,3.8101,3.8433,3.8713,3.9007,3.9156,3.9298,3.9452,3.9647,3.9867,4.0057,4.0196,4.0325,4.0438,4.0549,4.0635,4.079,4.2574,4.3388,4.3578,4.5327,4.6076,4.6095,4.6093,4.6093,4.6093,4.6093,4.5043,4.3603,4.3603,4.2455,4.0996,4.0996,4.1003,4.1011,4.0996,4.1007,4.0999,4.0999,4.0963,4.0945,4.0945,4.0927,4.0898,4.0907,4.0856,4.0834,4.0812,4.0808,4.0784,4.0759,4.07,4.064,4.0612,4.0569,4.0543,4.0511,4.0482,4.0432,4.0362,4.0308,4.0309,4.0309,4.0253,4.0215,4.0196,4.0157,3.9354,3.7603,3.747,3.6671,3.4965,3.4908,3.4889,3.4888,3.4907,3.4869,3.4849,3.4869,3.4907,3.4888,3.4927,3.4945,3.5894,3.7175,3.8513,3.8568,3.9847,4.1101,4.1091,4.1101,4.1071,4.1009,4.0886,4.0733,4.0491,4.0062,3.9618,3.9173,3.8316,3.5987,3.1136,2.8728,2.5782,2.1168,2.0332,2.2197,2.7342,2.8943,3.1783,3.6898,3.7667,3.7985,3.8135,3.8465,3.8732,3.8892,3.9017,3.921,3.9395,3.9526,3.9735,3.9954,4.0118,4.0252,4.0372,4.0473,4.0579,4.0778,4.2531,4.3349,4.3546,4.5276,4.6026,4.6076,4.6075,4.6084,4.6084,4.6084,4.5034,4.3586,4.3586,4.2438,4.098,4.0982,4.0991,4.1007,4.098,4.0971,4.0982,4.0982,4.0936,4.0898,4.0898,4.0898,4.0877,4.0886,4.0843,4.0796,4.0803,4.079,4.0759,4.07,4.064,4.0612,4.0588,4.0539,4.0492,4.0499,4.0432,4.0379,4.0307,4.0291,4.0291,4.0272,4.0234,4.0196,4.0176,4.0057,3.9275,3.7583,3.743,3.6651,3.4965,3.4889,3.4888,3.4887,3.4868,3.4848,3.4788,3.4848,3.4868,3.4887,3.4869,3.487,3.5908,3.7177,3.8495,3.852,3.9813,4.1078,4.1013,4.1061,4.1088,4.1012,4.0886,4.071,4.037,3.9948,3.9432,3.8828,3.4486,3.1184,3.1272,2.2524,1.6198,1.6517,1.5747,1.7194,2.2283,2.6857,3.168,3.6898,3.7667,3.802,3.835,3.8478,3.8634,3.8892,3.9017,3.9202,3.9399,3.9521,3.967,3.9826,4.0077,4.0234,4.0306,4.0441,4.0549,4.0698,4.2518,4.3337,4.3532,4.5293,4.5994,4.6007,4.6007,4.6007,4.6007,4.6007,4.4958,4.351,4.351,4.2374,4.0917,4.0907,4.0945,4.0982,4.0926,4.0917,4.0907,4.0907,4.0888,4.0907,4.0907,4.0848,4.0807,4.0812,4.0796,4.0803,4.079,4.0746,4.07,4.07,4.0646,4.0588,4.0607,4.0539,4.0492,4.0499,4.0432,4.0379,4.0307,4.0291,4.0291,4.0234,4.0196,4.0157,4.0017,3.9996,3.9254,3.7524,3.739,3.665,3.4983,3.4907,3.4868,3.4809,3.4809,3.4827,3.4788,3.4827,3.4809,3.4809,3.4809,3.4809,3.6596,3.7597,3.8615,3.9092,4.0098,4.0949,4.0897,4.0878,4.0863,4.0935,4.0734,4.0449,4.0119,3.9578,3.8026,3.4571,3.2322,2.8819,2.2521,1.8139,1.4361,1.1093,1.0338,1.327,2.13,2.3965,2.8598,3.6858,3.7739,3.7985,3.8219,3.835,3.8559,3.878,3.891,3.9064,3.9275,3.942,3.9575,3.9804,3.9996,4.0138,4.0233,4.0377,4.0492,4.0675,4.1928,4.2821,4.3497,4.4715,4.5534,4.5994,4.5997,4.5997,4.5938,4.5453,4.452,4.3413,4.2908,4.1917,4.0907,4.0907,4.0917,4.0926,4.0907,4.0907,4.0907,4.0908,4.0888,4.0897,4.0848,4.0815,4.0792,4.0796,4.0803,4.079,4.079,4.1152,4.1459,4.1431,4.1793,4.211,4.2098,4.1659,4.128,4.1217,4.0741,4.0381,4.0309,4.0253,4.0196,4.0157,4.0137,4.0098,3.9996,3.9954,3.9212,3.7504,3.7408,3.6649,3.4963,3.4868,3.4809,3.4747,3.4747,3.4727,3.4666,3.4727,3.4747,3.4747,3.4788,3.4788,3.7022,3.7868,3.8662,3.9473,4.0246,4.078,4.0687,4.0552,4.0442,4.0408,3.9241,3.8077,3.7526,3.6008,3.3537,2.945,2.7731,2.424,1.6517,1.4505,1.2233,0.8087,0.7403,1.1226,2.1236,2.4968,2.9723,3.6984,3.7757,3.7916,3.8018,3.8252,3.8496,3.8707,3.8822,3.9007,3.9183,3.9324,3.9526,3.9781,3.9933,4.0078,4.0215,4.0344,4.0463,4.0611,4.1519,4.2304,4.3053,4.3955,4.4688,4.5226,4.5248,4.5258,4.5181,4.4617,4.386,4.3025,4.2403,4.1626,4.0907,4.0898,4.0898,4.0898,4.0888,4.0888,4.0908,4.0877,4.0867,4.0856,4.0804,4.08,4.0796,4.0803,4.0984,4.1158,4.1145,4.1795,4.2333,4.2271,4.2707,4.3099,4.3085,4.2569,4.2055,4.1756,4.1165,4.065,4.0329,4.0253,4.0176,4.0117,4.0077,4.0036,3.9975,3.9933,3.9169,3.7503,3.7406,3.6627,3.4904,3.4788,3.4747,3.4666,3.4666,3.4645,3.4602,3.4645,3.4666,3.4666,3.4727,3.4747,3.6952,3.7797,3.8594,3.9399,4.0106,4.0563,4.0348,4.0096,3.9776,3.9296,3.5992,3.2865,3.177,2.8225,2.509,2.4033,1.952,1.6095,1.6023,1.1439,0.8117,0.8333,0.7808,1.1373,2.1516,3.1378,3.7195,3.7297,3.7667,3.7899,3.7899,3.8204,3.8496,3.8707,3.8822,3.9007,3.9183,3.9324,3.9502,3.9689,3.9892,4.0077,4.0196,4.0345,4.0447,4.0562,4.1485,4.1942,4.2099,4.3032,4.3427,4.3441,4.35,4.353,4.353,4.353,4.2966,4.2209,4.2189,4.1626,4.0898,4.0898,4.0907,4.0897,4.0818,4.0848,4.0897,4.0818,4.0804,4.0788,4.0803,4.079,4.079,4.079,4.1409,4.1996,4.1975,4.2623,4.3173,4.3108,4.3099,4.3104,4.3104,4.3052,4.2693,4.1815,4.1645,4.1284,4.0406,4.0253,4.0176,4.0117,4.0036,3.9975,3.9911,3.9889,3.9188,3.7518,3.7404,3.6585,3.4783,3.4687,3.4666,3.4602,3.4602,3.4602,3.4602,3.4602,3.4602,3.4602,3.4602,3.4645,3.7702,3.8207,3.8637,3.9968,4.0275,4.0172,3.9787,3.9345,3.8763,3.7896,3.5614,3.3237,3.1409,2.8838,2.5445,2.0666,1.8159,1.5583,1.1922,0.9877,0.8696,0.8293,1.3754,1.8856,2.2065,3.134,3.7203,3.7297,3.7558,3.7739,3.7899,3.8104,3.8285,3.8496,3.8743,3.895,3.9064,3.9301,3.9464,3.9623,3.9781,3.9954,4.0137,4.0272,4.0377,4.0457,4.0834,4.1388,4.2041,4.2356,4.285,4.3408,4.341,4.3451,4.3433,4.283,4.2442,4.2112,4.151,4.1131,4.0898,4.0907,4.0867,4.0837,4.0804,4.0815,4.0837,4.0804,4.0788,4.0803,4.0803,4.079,4.0945,4.1487,4.1816,4.2151,4.269,4.3453,4.4006,4.3997,4.4427,4.4797,4.4797,4.4301,4.3576,4.2657,4.2009,4.1303,4.0406,4.0196,4.0137,4.0117,4.0015,3.9911,3.9911,3.9889,3.9435,3.8291,3.7664,3.6788,3.5571,3.4945,3.4623,3.4602,3.4602,3.4602,3.4602,3.4602,3.458,3.4517,3.4517,3.4517,3.802,3.8341,3.8586,4.0092,4.0152,3.9702,3.9158,3.8409,3.7537,3.6218,3.3374,3.0405,2.8255,2.5107,2.1302,1.6534,1.5267,1.3607,0.9994,0.9311,0.8879,0.8142,1.6537,2.2346,2.2237,3.1213,3.7126,3.7297,3.7484,3.7703,3.7899,3.8036,3.8201,3.8382,3.8713,3.891,3.8979,3.9266,3.9458,3.9599,3.9735,3.9911,4.0098,4.0234,4.0342,4.0408,4.053,4.093,0.0,4.1557,4.1928,4.2416,4.2449,4.248,4.2442,4.1917,4.1704,4.1626,4.1092,4.0898,4.0897,4.0876,4.0834,4.0792,4.0808,4.08,4.0812,4.0808,4.0803,4.0868,4.1158,4.1255,4.1448,4.2299,4.2711,4.3071,4.3564,4.4292,4.4881,4.4867,4.5257,4.5586,4.5586,4.5109,4.4306,4.3079,4.2431,4.1628,4.0444,4.0176,4.0117,4.0117,3.9994,3.9889,3.9889,3.9889,3.9526,3.8628,3.7775,3.688,3.5942,3.5055,3.4602,3.4602,3.4602,3.4602,3.4561,3.4539,3.4495,3.4473,3.4473,3.445,0.0,3.8239,3.8421,3.9816,3.9787,3.9233,3.8497,3.7415,0.0,3.4472,2.987,2.5485,2.3179,1.8425,1.4239,1.2492,1.1521,1.0801,1.0092,0.943,0.8641,0.7836,1.6444,2.2384,2.2118,3.1135,3.7066,3.7297,3.7484,3.7667,3.7899,3.8036,3.8168,3.8382,3.8652,3.8851,3.8979,3.9266,3.9458,3.9599,3.9735,3.9911,4.0098,4.0234,4.0325,4.0415,4.0534,4.0588,4.0602,4.0732,4.0792,4.0807,4.0867,4.0898,4.0907,4.0907,4.0907,4.0898,4.0898,4.0897,4.0886,4.0812,4.0796,4.079,4.079,4.079,4.079,4.079,4.0829,4.1061,4.1816,4.2048,4.2318,4.3189,4.3974,4.451,4.4484,4.5128,4.5693,4.5603,4.5586,4.5586,4.5586,4.5495,4.4825,4.3138,4.2852,4.2202,4.052,4.0176,4.0117,4.0117,3.9994,3.9889,3.9889,3.9889,3.9504,3.8637,3.7791,3.6895,3.601,3.509,3.4602,3.4602,3.4602,3.4561,3.4495,3.4427,3.4404,3.4386,3.4386,3.4386,3.7743,0.0,3.8251,3.9488,3.9333,3.8604,0.0,3.6369,3.4851,3.2683,2.9473,2.607,2.3044,1.9542,1.639,1.4203,1.2997,1.1943,1.0801,0.9582,0.8595,0.8106,1.6484,2.2297,2.2108,3.1049,3.697,3.7259,3.7334,3.7521,3.7864,3.7934,3.8088,3.8382,3.851,3.8664,3.8939,3.9239,3.9432,3.9526,3.9665,3.9867,4.0098,4.0196,4.0289,4.0415,4.0534,4.0588,4.0621,4.0739,4.08,4.0807,4.0818,4.0849,4.0907,4.0907,4.0898,4.0888,4.0907,4.0876,4.0812,4.0815,4.0803,4.079,4.079,4.079,4.079,4.079,4.1235,4.1757,4.1951,4.2492,4.3208,4.4098,4.4399,4.4665,4.5272,4.5552,4.5693,4.5603,4.5586,4.5586,4.5586,4.5495,4.4825,4.3138,4.2852,4.2202,4.052,4.0176,4.0117,4.0117,3.9994,3.9889,3.9889,3.9889,3.975,3.9448,3.8093,3.714,3.684,3.539,3.4602,3.4602,3.4539,3.4495,3.4409,3.4404,3.4363,3.4316,3.4316,3.4293,3.7597,3.7877,3.8,3.9146,3.885,3.7965,3.6788,3.5294,3.3612,3.1377,2.8643,2.5779,2.2853,1.9985,1.7309,1.5047,1.3579,1.2214,1.0735,0.9678,0.8792,0.8255,1.6553,2.2277,2.2133,3.0986,3.6908,3.7259,3.7297,3.7502,3.7864,3.7899,3.8054,3.8382,3.8478,3.8634,3.891,3.9166,3.9388,3.9502,3.9642,3.9845,4.0098,4.0177,4.0271,4.0415,4.0534,4.0588,4.0621,4.0746,4.0808,4.0804,4.0807,4.0839,4.0908,4.0908,4.0898,4.0897,4.0856,4.0831,4.0796,4.0803,4.079,4.0868,4.1235,4.1351,4.1351,4.1351,4.1951,4.2686,4.3092,4.3537,4.4103,4.494,4.5104,4.5156,4.5607,4.5673,4.564,4.5622,4.5586,4.5586,4.5586,4.5495,4.4825,4.3138,4.2852,4.2202,4.052,4.0176,4.0117,4.0117,3.9994,3.9889,3.9889,3.9867,3.9804,3.9712,3.8501,3.7589,3.7122,3.5859,3.4996,3.4558,3.4495,3.4427,3.434,3.4316,3.4293,3.4245,3.4245,3.4221,3.7319,3.7517,3.7635,3.8752,3.8346,3.7345,3.5983,3.4314,3.2415,3.0322,2.7681,2.5013,2.2583,2.0033,1.7568,1.5448,1.3704,1.2015,1.0294,0.9607,0.9082,0.8376,1.6619,2.2335,2.215,3.0971,3.6846,3.7259,3.7297,3.7502,3.7864,3.7899,3.8054,3.8382,3.8478,3.8634,3.891,3.912,3.9298,3.9502,3.9642,3.9845,4.0098,4.0177,4.0271,4.0415,4.0534,0.0,4.0621,4.0746,4.0796,4.08,4.0796,4.0848,4.0907,4.0907,4.0877,4.0886,4.0812,4.0796,4.079,4.079,4.0868,4.11,4.1796,4.2183,4.2396,4.2396,4.2937,4.3672,4.4407,4.4697,4.4954,4.5641,4.575,4.57,4.569,4.564,4.5586,4.5586,4.5586,4.5586,4.5586,4.5399,4.4691,4.3119,4.2738,4.2049,4.0501,4.0176,4.0117,4.0117,3.9994,3.9889,3.9889,3.9826,3.9758,3.9689,3.8893,3.7939,3.6948,3.6122,3.5308,3.4514,3.4427,3.434,3.4269,3.4221,3.4197,3.4197,3.4197,3.4197,3.6454,3.6708,3.7113,3.8376,3.7899,3.6693,3.5166,3.3494,3.1632,2.9307,2.693,2.4554,2.2179,1.9837,1.773,1.5861,1.3607,1.1671,1.0467,0.9864,0.934,0.8636,1.6741,2.2388,2.2356,3.1047,3.6846,3.7259,3.7297,3.7502,3.7864,3.7899,3.8054,3.8382,3.8478,3.8634,3.891,3.912,3.9298,3.9502,3.9642,3.9845,4.0098,4.0177,4.0271,4.0415,4.0534,4.0588,4.0621,4.0746,4.0796,4.08,4.0796,4.0848,4.0907,4.0907,4.0848,4.0807,4.0808,4.0803,4.079,4.079,4.1255,4.1835,4.1951,4.3034,4.4194,4.4194,4.4311,4.4427,4.4581,4.5104,4.5664,4.5776,4.575,4.57,4.569,4.564,4.5586,4.5586,4.5586,4.5586,4.5586,4.4919,4.4058,4.3042,4.2221,4.1361,4.0425,4.0176,4.0117,4.0117,3.9994,3.9889,3.9889,3.98,3.9712,3.9689,3.8893,3.7694,3.6141,3.5195,3.4626,3.4427,3.434,3.4269,3.4221,3.4197,3.4197,3.4197,3.4197,3.4197,3.6176,3.6387,3.6619,3.7158,3.6843,3.6008,3.4442,3.2645,3.0705,2.852,2.6294,2.4028,2.1759,1.969,1.7488,1.5047,1.3112,1.1671,1.0809,1.0033,0.9428,0.8815,1.6825,2.2394,2.2334,3.1051,3.6846,3.7164,3.7259,3.7502,3.7864,3.7899,3.8054,3.8382,3.8478,3.8634,3.891,3.912,3.9298,3.9502,3.9642,3.9845,4.0098,4.0177,4.0271,4.0415,0.0,4.0588,4.0621,4.0746,4.0803,4.0796,4.0804,4.0818,4.0848,4.0848,4.0834,4.08,4.0803,4.079,4.079,4.079,4.1332,4.2086,4.257,4.3595,4.4697,4.5123,4.5258,4.5258,4.5258,4.551,4.5786,4.5746,4.5715,4.5684,4.5657,4.5622,4.5586,4.5586,4.5586,4.5586,4.5586,4.4822,4.3905,4.3023,4.2106,4.1208,4.0406,4.0176,4.0117,4.0117,3.9994,3.9889,3.9889,3.9804,3.9712,3.9656,3.8841,3.7798,3.6592,3.5683,3.4959,3.4404,3.434,3.4269,3.4197,3.4197,3.4197,3.4197,3.4197,3.4173,3.5756,3.6016,3.6117,3.5844,3.5749,3.5351,3.3792,3.186,2.9793,2.7774,2.5632,2.347,2.139,1.9219,1.6919,1.4146,1.2875,1.1929,1.1068,1.0294,0.9602,0.9087,1.6959,2.2452,2.2371,3.107,3.6788,3.7069,3.7203,3.7502,3.7864,3.7934,3.807,3.8382,3.851,3.8664,3.8939,3.9147,3.9343,3.9483,3.9647,3.9867,4.0098,4.0196,4.0289,4.0415,4.0534,4.0588,4.0621,4.0746,4.079,4.0803,4.0804,4.0807,4.0807,4.0807,4.0792,4.079,4.079,4.079,4.079,4.079,4.1487,4.2434,4.3092,4.404,4.5007,4.5626,4.58,4.58,4.58,4.58,4.5771,4.5731,4.57,4.5668,4.5603,4.5586,4.5586,4.5586,4.5586,4.5528,4.5316,4.4515,4.3617,4.2735,4.1819,4.0998,4.0387,4.0215,4.0117,4.0117,3.9975,3.9911,3.9889,3.9823,3.9731,3.9626,3.8788,3.8019,3.7399,3.6522,3.5628,3.4722,3.4614,3.445,3.4197,3.4197,3.4197,3.4197,3.4197,3.4173,3.4813,3.5299,3.5696,3.4694,3.485,3.4788,3.3061,3.1111,2.9101,2.7087,2.4874,2.2807,2.1094,1.8346,1.5718,1.3984,1.3137,1.2272,1.1154,1.0549,1.0038,0.9345,1.7276,2.2716,2.26,3.1131,3.6788,3.7069,3.7203,3.7502,3.7864,3.7967,3.8119,3.8382,3.8652,3.8851,3.8979,3.9248,3.9413,3.9483,3.9693,3.9911,4.0098,4.0234,4.0325,4.0415,4.0534,4.0588,4.0621,4.0746,4.079,4.0803,4.0804,4.0807,4.0807,4.0807,4.0792,4.079,4.079,4.079,4.079,4.079,4.1893,4.3227,4.3285,4.4427,4.5722,4.578,4.58,4.58,4.58,4.5805,4.5781,4.5715,4.5703,4.5673,4.5603,4.5586,4.5586,4.5586,4.5586,4.5336,4.4528,4.3613,4.2716,4.1911,4.0978,4.0368,4.031,4.0234,4.0176,4.0117,4.0036,3.9954,3.9826,3.9735,3.9708,3.9693,3.8812,3.8281,3.8225,3.7317,3.644,3.5619,3.5479,3.5021,3.4197,3.4197,3.4197,3.4197,3.4197,3.4173,3.4619,3.4689,3.4758,3.41,3.3768,3.3291,3.2276,3.0484,2.8447,2.6345,2.4399,2.2146,1.9395,1.7342,1.5636,1.4139,1.3215,1.2363,1.1585,1.0809,1.012,0.9519,1.7349,2.2704,2.2488,3.1096,3.6806,3.7009,3.722,3.7502,3.7864,3.7967,3.8153,3.8446,3.8683,3.8892,3.9045,3.9283,3.9446,3.9575,3.9717,3.9911,4.0098,4.0234,4.0342,4.0408,4.053,4.0621,4.0668,4.0759,4.0803,4.0808,4.0846,4.0837,4.0807,4.0807,4.0792,4.079,4.079,4.079,4.079,4.079,4.1564,4.2589,4.315,4.4117,4.5162,4.5664,4.58,4.58,4.58,4.5791,4.5781,4.5715,4.5687,4.5693,4.5603,4.5586,4.5432,4.4893,4.4778,4.4528,4.3701,4.2787,4.2045,4.1757,4.0901,4.031,4.031,4.0253,4.0176,4.0117,4.0015,3.9911,3.9867,3.9758,3.9708,3.9703,3.9325,3.8863,3.8319,3.7879,3.7262,3.6459,3.6317,3.6073,3.5739,3.5739,3.5497,3.4996,3.4971,3.4617,3.4427,3.4211,3.4041,3.3628,3.2904,3.2151,3.146,2.9793,2.7893,2.582,2.3616,2.1181,1.8318,1.696,1.5809,1.4475,1.3555,1.2619,1.1929,1.1068,1.0294,0.9689,1.7435,2.2754,2.2422,3.1042,3.6725,3.6987,3.722,3.7484,3.7864,3.802,3.8219,3.8491,3.8743,3.895,3.9129,3.9324,3.9502,3.9647,3.9804,3.9954,4.0137,4.0272,4.0377,4.0438,4.0545,4.0654,4.07,4.0778,4.0796,4.0823,4.0867,4.0867,4.0807,4.0807,4.0792,4.079,4.079,4.079,4.079,4.079,4.1332,4.2106,4.2705,4.3692,4.4717,4.5278,4.5587,4.58,4.58,4.5791,4.5765,4.5715,4.5687,4.5657,4.5622,4.5374,4.5009,4.4412,4.4085,4.3662,4.2835,4.2153,4.1604,4.1336,4.071,4.031,4.031,4.0253,4.0196,4.0117,3.9994,3.9889,3.9889,3.9777,3.9689,3.9689,3.9631,3.9314,3.8732,3.8571,3.8103,3.73,3.7154,3.6946,3.6686,3.6686,3.6408,3.5869,3.5818,3.5425,3.4162,3.3884,3.367,3.3223,3.2413,3.1526,3.0602,2.9094,2.7353,2.5554,2.252,1.9766,1.8238,1.7115,1.6064,1.4901,1.3984,1.3052,1.21,1.1413,1.0641,0.9689,1.7533,2.2861,2.2445,3.0953,3.6626,3.697,3.7223,3.754,3.7846,3.8156,3.8318,3.8473,3.8815,3.9045,3.9192,3.9401,3.9599,3.9804,3.9954,4.0077,4.0196,4.0345,4.0447,4.0504,4.0579,4.0635,4.07,4.0759,4.0788,4.0807,4.0877,4.0867,4.0807,4.0807,4.0792,4.079,4.079,4.079,4.079,4.079,4.1332,4.199,4.2009,4.3208,4.4581,4.4601,4.5162,4.578,4.578,4.5723,4.568,4.57,4.5635,4.5586,4.5586,4.4893,4.4297,4.4278,4.3624,4.2816,4.195,4.1714,4.1393,4.053,4.0346,4.031,4.031,4.031,4.0253,4.0117,3.9994,3.9889,3.9889,3.9777,3.9689,3.9689,3.9631,3.9602,3.9602,3.9469,3.8981,3.8147,3.7973,3.7522,3.6705,3.6705,3.6705,3.6705,3.6644,3.6564,3.3914,3.3202,3.2669,3.2614,3.163,3.0495,2.9983,2.868,2.671,2.3857,2.1486,1.959,1.8238,1.7115,1.6064,1.4901,1.4068,1.3307,1.2619,1.1929,1.1241,1.0376,1.7921,2.3088,2.2709,3.1067,3.6626,3.697,3.6728,3.6738,3.7122,3.6844,3.6754,3.6956,3.7785,3.83,3.8483,3.922,3.967,3.9867,4.0057,4.0157,4.0215,4.0344,4.0463,4.0573,4.0593,4.0668,4.0759,4.08,4.0826,4.0877,4.0888,4.0898,4.0848,4.0818,4.0804,4.0796,4.0803,4.079,4.079,4.079,4.0965,4.1255,4.1835,4.2357,4.2899,4.3518,4.3866,4.404,4.404,4.3979,4.4245,4.5426,4.5224,4.4752,4.4699,4.4047,4.3278,4.2662,4.2354,4.1912,4.1046,4.0831,4.0703,4.0454,4.0346,4.031,4.031,4.0215,4.0137,4.0098,3.9994,3.9889,3.9889,3.9777,3.9689,3.9689,3.9631,3.9602,3.9602,3.9469,3.9287,3.9025,3.8848,3.8618,3.8395,3.8395,3.8098,3.7541,3.746,3.7109,3.3568,3.2616,3.1832,3.1682,3.0698,2.955,2.8692,2.7392,2.5566,2.2947,2.1211,1.9747,1.8647,1.7529,1.6484,1.5409,1.4573,1.3815,1.3045,1.2277,1.1499,1.0722,1.8053,2.2998,2.2417,3.0611,3.5995,3.6092,3.5916,3.5952,3.6309,3.6144,3.6142,3.6334,3.7098,3.776,3.8227,3.8907,3.9482,3.9994,4.0138,4.0234,4.0323,4.0411,4.0492,4.0598,4.0654,4.0726,4.0796,4.0804,4.0837,4.0907,4.0898,4.0908,4.0877,4.0818,4.0804,4.0788,4.0803,4.079,4.079,4.079,4.079,4.0887,4.1371,4.1757,4.2106,4.2647,4.3034,4.3305,4.3305,4.3272,4.3482,4.4461,4.428,4.3866,4.3833,4.3162,4.2431,4.1912,4.1527,4.1123,4.0585,4.0463,4.0432,4.0396,4.0346,4.031,4.031,4.0215,4.0137,4.0098,3.9996,3.9933,3.9911,3.9804,3.9735,3.9689,3.9656,3.9645,3.9602,3.9495,3.9418,3.9391,3.9229,3.9129,3.9101,3.9101,3.8841,3.8377,3.8294,3.7998,3.319,3.2106,3.1083,3.0538,2.9766,2.8685,2.6881,2.5566,2.4276,2.2767,2.1395,2.0235,1.9231,1.8193,1.7147,1.6335,1.5387,1.4441,1.3607,1.2644,1.169,1.0747,1.7987,2.2694,2.1826,2.9829,3.5,3.474,3.4942,3.5232,3.5512,3.5763,3.5991,3.6196,3.6596,3.7242,3.8193,3.8556,3.9159,4.0098,4.0177,4.0323,4.0489,4.0489,4.0534,4.0621,4.0726,4.0796,4.08,4.0815,4.0848,4.0907,4.0898,4.0888,4.0888,4.0818,4.0815,4.08,4.0803,4.0803,4.079,4.079,4.079,4.079,4.079,4.1313,4.1893,4.1893,4.2454,4.3073,4.3073,4.3073,4.3059,4.299,4.2984,4.2996,4.2986,4.2297,4.1681,4.1681,4.1046,4.0489,4.0489,4.0495,4.0485,4.0396,4.0346,4.031,4.031,4.0253,4.0176,4.0117,4.0036,3.9975,3.9911,3.9826,3.9781,3.9712,3.9698,3.9669,3.9602,3.9546,3.9469,3.9391,3.9256,3.9156,3.9101,3.9101,3.9101,3.9101,3.9036,3.8979,3.275,3.1652,3.0658,2.9958,2.8872,2.7571,2.5927,2.5102,2.4276,2.2916,2.1624,2.0547,1.9608,1.8567,1.761,1.673,1.5769,1.4866,1.3967,1.3033,1.2083,1.1187,1.783,2.2341,2.1979,2.9421,3.4393,3.4744,3.4479,3.4519,3.4945,3.4642,3.4541,3.4742,3.561,3.6524,3.7511,3.83,3.9202,4.0177,4.0304,4.0406,4.0489,4.0489,4.0569,4.0668,4.0764,4.0812,4.0796,4.0867,4.0888,4.0898,4.0907,4.0907,4.0898,4.0888,4.0856,4.0796,4.08,4.0796,4.079,4.079,4.079,4.079,4.079,4.0906,4.1061,4.1061,4.1177,4.1332,4.1332,4.1332,4.1319,4.126,4.1702,4.214,4.2101,4.1393,4.0777,4.0777,4.0623,4.0489,4.0489,4.0495,4.0449,4.0325,4.0309,4.031,4.031,4.0253,4.0176,4.0117,4.0036,3.9975,3.9911,3.9826,3.9781,3.9712,3.9698,3.9669,3.9602,3.9546,3.9469,3.9391,3.9256,3.9156,3.9101,3.9101,3.9101,3.9101,3.9073,3.9045,3.2168,3.0891,2.9661,2.851,2.7272,2.6162,2.5174,2.4394,2.3642,2.2518,2.1523,2.0615,1.9783,1.8602,1.7622,1.6863,1.5984,1.5159,1.4301,1.336,1.2466,1.1433,1.6324,2.021,2.1344,2.7142,3.161,3.3564,3.3672,3.3803,3.4254,3.4134,3.4148,3.4386,3.4999,3.5979,3.7392,3.7947,3.8917,4.0286,4.0389,4.0504,4.0598,4.0598,4.064,4.0752,4.0776,4.0823,4.0848,4.0897,4.0898,4.0907,4.0907,4.0907,4.0907,4.0898,4.0877,4.0837,4.0812,4.0808,4.0796,4.0803,4.079,4.079,4.079,4.079,4.079,4.079,4.079,4.079,4.079,4.079,4.079,4.0733,4.1001,4.1268,4.1228,4.0831,4.0489,4.0489,4.0489,4.0489,4.0489,4.0479,4.0432,4.0362,4.0309,4.031,4.031,4.0272,4.0215,4.0117,4.0057,4.0015,3.9911,3.9867,3.9823,3.9712,3.9703,3.9674,3.9602,3.9571,3.9495,3.9418,3.9328,3.9229,3.9101,3.9101,3.9101,3.9101,3.9101,3.9045,3.1443,2.9861,2.824,2.6759,2.5706,2.4905,2.4442,2.3718,2.2933,2.2034,2.1357,2.0602,1.9814,1.8686,1.771,1.7128,1.6304,1.5418,1.4672,1.3754,1.2785,1.169,1.4726,1.7936,2.0691,2.4755,2.8688,3.2278,3.2898,3.3309,3.3753,3.4023,3.4269,3.4542,3.4732,3.5704,3.7528,3.7675,3.8637,4.0422,4.0504,4.0612,4.0713,4.0726,4.0752,4.08,4.0812,4.0846,4.0907,4.0907,4.0908,4.0907,4.0907,4.0907,4.0907,4.0898,4.0907,4.0897,4.0823,4.08,4.0788,4.0803,4.079,4.079,4.079,4.079,4.079,4.079,4.079,4.079,4.079,4.079,4.079,4.0733,4.0654,4.0607,4.0603,4.0558,4.0489,4.0489,4.0489,4.0489,4.0489,4.0444,4.0415,4.0415,4.0327,4.0291,4.031,4.031,4.0253,4.0137,4.0117,4.0057,3.9933,3.9911,3.9845,3.9712,3.9712,3.9684,3.9602,3.962,3.9527,3.9418,3.9418,3.9301,3.9101,3.9101,3.9101,3.9101,3.9101,3.9073,3.0549,2.8404,2.6428,2.5494,2.5015,2.4523,2.3728,2.3334,2.3001,2.2366,2.1544,2.0749,2.0164,1.9307,1.8535,1.7952,1.6915,1.5963,1.5221,1.4141,1.3072,1.2039,1.4484,1.7526,2.0849,2.4372,2.8179,3.2349,3.305,3.3494,3.4023,3.4245,3.4498,3.4733,3.4908,3.5836,3.7675,3.7811,3.8735,4.0489,4.0615,4.0713,4.0788,4.0792,4.0792,4.08,4.0856,4.0897,4.0907,4.0888,4.0907,4.0907,4.0907,4.0907,4.0907,4.0907,4.0908,4.0897,4.0807,4.0804,4.0788,4.0803,4.079,4.079,4.079,4.079,4.079,4.079,4.079,4.079,4.079,4.079,4.079,4.079,4.0681,4.0607,4.0603,4.0558,4.0489,4.0489,4.0489,4.0489,4.0489,4.0495,4.0485,4.0415,4.0344,4.029,4.0291,4.031,4.0272,4.0196,4.0137,4.0057,3.9996,3.9933,3.9867,3.9781,3.9735,3.9703,3.9693,3.9645,3.9552,3.9495,3.9444,3.9301,3.9101,3.9101,3.9101,3.9101,3.9101,3.9101,2.816,2.6518,2.5398,2.4681,2.4125,2.3672,2.3059,2.2678,2.2345,2.1812,2.1296,2.0782,2.0285,1.9344,1.8535,1.8203,1.7407,1.6581,1.5922,1.5,1.4042,1.2952,1.3314,1.573,2.1017,2.269,2.6037,3.2277,3.3273,3.377,3.4245,3.448,3.4732,3.4945,3.5107,3.578,3.7083,3.7704,3.8901,4.0668,4.0738,4.0773,4.0804,4.0837,4.0856,4.0865,4.0897,4.0888,4.0908,4.0898,4.0907,4.0907,4.0907,4.0907,4.0907,4.0907,4.0898,4.0908,4.0877,4.0826,4.0804,4.0808,4.0803,4.079,4.079,4.079,4.079,4.079,4.079,4.079,4.079,4.079,4.079,4.079,4.0733,4.0654,4.0612,4.0554,4.0489,4.0489,4.0489,4.0489,4.0489,4.0495,4.0485,4.0415,4.0325,4.0308,4.0291,4.031,4.0272,4.0196,4.0137,4.0077,3.9996,3.9933,3.9867,3.9804,3.9735,3.9684,3.9693,3.9645,3.9571,3.9495,3.9444,3.932,3.9156,3.9129,3.9101,3.9101,3.9101,3.9101,2.5901,2.498,2.4624,2.4131,2.3543,2.3017,2.2714,2.2297,2.1862,2.1474,2.1221,2.0941,2.0665,1.9617,1.8787,1.8596,1.8046,1.7354,1.6724,1.6035,1.5188,1.4106,1.2778,1.4656,2.1401,2.1619,2.4559,3.2306,3.3514,3.4074,3.4476,3.4733,3.4945,3.5143,3.5285,3.5777,3.6647,3.7855,3.925,4.0792,4.0826,4.0837,4.0837,4.0888,4.0898,4.0898,4.0898,4.0908,4.0907,4.0907,4.0907,4.0907,4.0907,4.0907,4.0907,4.0907,4.0907,4.0907,4.0898,4.0867,4.0807,4.0812,4.0808,4.0803,4.0803,4.079,4.079,4.079,4.079,4.079,4.079,4.079,4.079,4.079,4.0746,4.0687,4.0607,4.0549,4.0489,4.0489,4.0489,4.0489,4.0489,4.0511,4.0482,4.0432,4.0379,4.0326,4.0291,4.0291,4.0272,4.0234,4.0157,4.0098,4.0036,3.9954,3.9911,3.9826,3.9735,3.9708,3.9698,3.9645,3.9596,3.952,3.9469,3.9346,3.921,3.9156,3.9129,3.9101,3.9101,3.9101,2.453,2.4234,2.4073,2.3734,2.3378,2.3017,2.2739,2.2432,2.2123,2.1937,2.1588,2.14,2.136,2.0518,1.9726,1.9309,1.8967,1.8432,1.7696,1.7148,1.6367,1.5234,1.37,1.5361,2.2105,2.2099,2.4878,3.2592,3.3795,3.4344,3.4753,3.4907,3.5086,3.5266,3.5416,3.592,3.6794,3.8535,3.9882,4.0807,4.0848,4.0877,4.0877,4.0888,4.0907,4.0907,4.0907,4.0907,4.0907,4.0907,4.0907,4.0907,4.0907,4.0907,4.0907,4.0907,4.0907,4.0907,4.0898,4.0897,4.0877,4.0812,4.08,4.0808,4.0803,4.079,4.079,4.079,4.079,4.079,4.079,4.079,4.079,4.079,4.0746,4.0673,4.0603,4.0539,4.0489,4.0489,4.0489,4.0489,4.0489,4.0489,4.0492,4.0502,4.0432,4.0362,4.0307,4.0291,4.031,4.0291,4.0215,4.0176,4.0117,4.0017,3.9975,3.9889,3.9758,3.9689,3.9689,3.9631,3.9596,3.9577,3.952,3.9399,3.921,3.9183,3.9156,3.9101,3.9101,3.9101,2.3531,2.3616,2.3556,2.3318,2.3138,2.2969,2.2848,2.2678,2.2432,2.2235,2.2099,2.2037,2.2037,2.121,2.0506,2.0366,2.0031,1.9694,1.9299,1.8767,1.8142,1.7239,1.5668,1.7152,2.3535,2.3414,2.5913,3.3162,3.4282,3.4775,3.5026,3.5228,3.5369,3.5496,3.5593,3.6346,3.7802,3.8471,3.9509,4.0926,4.0954,4.0954,4.0954,4.0971,4.0952,4.0952,4.0963,4.0945,4.0907,4.0907,4.0907,4.0907,4.0907,4.0907,4.0907,4.0907,4.0907,4.0907,4.0898,4.0898,4.0897,4.0876,4.0843,4.08,4.0808,4.0803,4.079,4.079,4.079,4.079,4.079,4.079,4.079,4.079,4.0746,4.0687,4.0612,4.0534,4.0489,4.0489,4.0489,4.0489,4.0489,4.0489,4.0492,4.0499,4.0432,4.0379,4.0307,4.0291,4.031,4.031,4.0253,4.0176,4.0117,4.0036,3.9975,3.9911,3.9804,3.9735,3.9689,3.9674,3.9645,3.9602,3.9596,3.9502,3.9399,3.9256,3.9183,3.9156,3.9129,3.9101,2.3198,2.333,2.345,2.3318,2.3198,2.315,2.309,2.2982,2.286,2.2665,2.2653,2.2653,2.2726,2.2211,2.1651,2.1451,2.1187,2.0996,2.0741,2.0386,1.9912,1.928,1.8145,1.9605,2.5213,2.5278,2.7536,3.3805,3.4769,3.5151,3.5322,3.5481,3.5607,3.5699,3.5745,3.6631,3.8427,3.8427,3.9303,4.1003,4.1003,4.1003,4.0996,4.0996,4.0996,4.0996,4.0999,4.0963,4.0917,4.0907,4.0907,4.0907,4.0907,4.0907,4.0907,4.0907,4.0907,4.0907,4.0907,4.0898,4.0898,4.0907,4.0856,4.0792,4.08,4.0796,4.079,4.079,4.079,4.079,4.079,4.079,4.079,4.079,4.0746,4.0687,4.0621,4.0564,4.0523,4.0504,4.0489,4.0489,4.0489,4.0489,4.0508,4.0495,4.0466,4.0415,4.0325,4.0308,4.031,4.031,4.0253,4.0196,4.0117,4.0057,4.0015,3.9911,3.9826,3.9781,3.9712,3.9698,3.9669,3.9602,3.9602,3.9596,3.952,3.938,3.9256,3.921,3.9156,3.9129,0.0,0.0,0.0,2.3628,2.3628,2.3569,2.3463,2.3403,2.333,2.3198,2.3138,2.3198,2.339,2.3463,2.321,2.2555,2.2433,2.231,2.2002,2.1892,2.1708,2.135,2.1093,2.2636,2.713,2.7628,2.965,3.4449,3.5176,3.5482,3.5592,3.5676,3.5772,3.5905,3.5905,3.6735,3.848,3.85,3.9331,4.0993,4.0993,4.0999,4.0996,4.0996,4.0996,4.0996,4.0996,4.1007,4.0991,4.0917,4.0907,4.0907,4.0907,4.0907,4.0907,4.0907,4.0907,4.0907,4.0907,4.0907,4.0907,4.0898,4.0848,4.0807,4.0812,4.0796,4.079,4.079,4.079,4.079,4.079,4.079,4.079,4.079,4.0746,4.0668,4.0621,4.0598,4.0573,4.0504,4.0489,4.0489,4.0489,4.0489,4.0489,4.0489,4.0495,4.0485,4.0415,4.0325,4.0308,4.031,4.031,4.0234,4.0117,4.0117,4.0036,3.9911,3.9826,3.9762,3.9717,3.9703,3.9669,3.9602,3.9602,3.9602,3.9602,3.952,3.9399,3.921,3.921,3.9156,2.4118,0.0,0.0,0.0,0.0,0.0,2.376,2.3772,2.376,2.3839,2.3884,2.4002,2.4176,2.4305,2.4434,2.4394,2.3859,2.3446,2.3623,2.3572,2.3566,2.3632,2.341,2.4762,2.8596,2.9083,3.0814,3.4713,3.5398,3.568,3.5813,3.5827,3.5872,3.5903,3.5903,3.6737,3.8482,3.8502,3.937,4.1075,4.1075,4.107,4.1078,4.1078,4.1071,4.1071,4.1025,4.0999,4.1011,4.0971,4.0974,4.0974,4.0917,4.0907,4.0907,4.0907,4.0907,4.0907,4.0907,4.0907,4.0907,4.0898,4.0849,4.0807,4.0796,4.08,4.079,4.079,4.079,4.079,4.079,4.079,4.079,4.079,4.079,4.0746,4.0687,4.064,4.0579,4.0504,4.0489,4.0489,4.0489,4.0489,4.0489,4.0489,4.0495,4.0485,4.0415,4.0325,4.0308,4.031,4.031,4.0273,4.0176,4.0137,4.0057,3.9975,3.9911,3.9826,3.9781,3.9731,3.9679,3.9669,3.9602,3.9602,3.9602,3.952,3.9469,3.9425,3.9283,3.9156,2.4851,2.4536,2.4287,2.4287,0.0,0.0,2.4229,2.4287,2.4332,2.4421,2.4593,2.4694,2.4851,2.509,2.5328,2.5605,2.5287,2.4993,2.4937,2.5065,2.5301,2.5737,2.6035,2.7299,3.0176,3.0946,3.2354,3.5026,3.554,3.5781,3.5886,3.5938,3.5932,3.5946,3.5946,3.6771,3.8517,3.8534,3.9406,4.109,4.109,4.1105,4.1091,4.1106,4.1095,4.1097,4.1052,4.1046,4.1032,4.1003,4.0999,4.1002,4.0954,4.0917,4.0907,4.0907,4.0907,4.0907,4.0907,4.0907,4.0907,4.0907,4.0878,4.0837,4.0807,4.0792,4.0796,4.0803,4.079,4.079,4.079,4.079,4.079,4.079,4.079,4.079,4.07,4.0654,4.0593,4.0554,4.0523,4.0489,4.0489,4.0489,4.0489,4.0489,4.0492,4.0499,4.0449,4.0379,4.0326,4.0309,4.0291,4.0272,4.0196,4.0137,4.0077,3.9996,3.9933,3.9867,3.9804,3.9758,3.9731,3.9693,3.9669,3.9645,3.9602,3.9571,3.952,3.9495,3.9283,3.9183,2.5576,2.5148,2.4892,2.4892,2.4721,0.0,2.4835,2.4892,2.4892,2.5061,2.523,2.5384,2.5467,2.5756,2.6096,2.6351,2.6616,2.6602,2.6079,2.64,2.6909,2.751,2.8529,2.9914,3.1691,3.2755,3.3921,3.5241,3.5616,3.5825,3.5908,3.5951,3.5994,3.5995,3.5996,3.6797,3.8436,3.8552,3.9408,4.0974,4.1052,4.1104,4.109,4.11,4.1091,4.11,4.1095,4.1109,4.1091,4.1039,4.1011,4.0991,4.101,4.0954,4.0907,4.0907,4.0907,4.0907,4.0907,4.0907,4.0907,4.0907,4.0908,4.0897,4.0818,4.0804,4.0788,4.0803,4.079,4.079,4.079,4.079,4.079,4.079,4.079,4.079,4.0713,4.0654,4.0607,4.0603,4.0539,4.0489,4.0489,4.0489,4.0489,4.0489,4.0489,4.0492,4.0502,4.0449,4.0379,4.0307,4.0309,4.0272,4.0234,4.0157,4.0077,4.0036,3.9954,3.9889,3.9804,3.9804,3.9777,3.9698,3.9693,3.9669,3.9602,3.9602,3.9571,3.9495,3.9328,3.921,2.563,2.5486,2.5495,2.53,2.509,0.0,2.5245,2.53,2.537,2.566,2.5934,2.6068,2.6122,2.6428,2.6774,2.6997,2.7321,2.7458,2.7071,2.7464,2.803,2.8748,2.9805,3.093,3.2082,3.3159,3.412,3.4947,3.5452,3.5768,3.589,3.5912,3.5923,3.5923,3.5977,3.6493,3.7535,3.8241,3.9121,4.0131,4.0794,4.1101,4.1104,4.1104,4.1094,4.1111,4.11,4.1095,4.1109,4.1091,4.1052,4.0991,4.0999,4.0982,4.0974,4.0917,4.0907,4.0907,4.0907,4.0907,4.0907,4.0907,4.0908,4.0897,4.0818,4.0804,4.0788,4.0803,4.079,4.079,4.079,4.079,4.079,4.079,4.079,4.079,4.079,4.0733,4.0687,4.0673,4.0583,4.0489,4.0489,4.0489,4.0489,4.0489,4.0489,4.0492,4.0502,4.0502,4.0432,4.0325,4.0289,4.029,4.0272,4.0234,4.0157,4.0077,4.0036,3.9954,3.9889,3.9826,3.9781,3.9777,3.9722,3.9669,3.9602,3.9602,3.9571,3.9495,3.9469,3.9354,2.5663,2.5545,2.5576,2.5388,2.5423,0.0,0.0,2.5797,2.5906,2.6136,2.6472,2.6736,2.6736,2.7137,2.7494,2.756,2.7959,2.8253,2.8207,2.8511,2.8966,2.9657,3.0566,3.1502,3.2444,3.3358,3.4153,3.4939,3.538,3.566,3.5784,3.5827,3.5878,3.5899,3.5938,3.6368,3.7246,3.8112,3.8998,3.9861,4.0703,4.1091,4.1107,4.1097,4.1104,4.1094,4.11,4.1111,4.1095,4.1109,4.1071,4.1059,4.1011,4.1007,4.1002,4.0954,4.0936,4.0907,4.0907,4.0907,4.0907,4.0907,4.0898,4.0898,4.0818,4.0792,4.0796,4.0803,4.079,4.079,4.079,4.079,4.079,4.079,4.079,4.079,4.079,4.0746,4.07,4.07,4.0626,4.0549,4.0539,4.0523,4.0489,4.0489,4.0489,4.0508,4.0495,4.0499,4.0449,4.0362,4.0325,4.0308,4.031,4.0234,4.0176,4.0098,4.0036,3.9975,3.9911,3.9867,3.9804,3.9758,3.9722,3.9669,3.9602,3.9602,3.9577,3.9546,3.952,3.9444,2.5545,2.5423,2.5467,2.548,2.5649,2.5969,0.0,0.0,0.0,2.6669,2.7011,2.7321,2.7372,2.7775,2.8073,2.8107,2.8542,2.892,2.9227,2.9409,2.9766,3.0335,3.1111,3.188,3.2699,3.3449,3.4228,3.4994,3.5302,3.5514,3.5639,3.5737,3.5799,3.5859,3.5866,3.6226,3.6922,3.7972,3.886,3.9566,4.0601,4.1093,4.1094,4.1105,4.1094,4.1108,4.1101,4.1105,4.1106,4.11,4.1109,4.1091,4.1032,4.1003,4.0991,4.101,4.0954,4.0907,4.0907,4.0907,4.0907,4.0907,4.0878,4.0869,4.0818,4.08,4.079,4.079,4.079,4.079,4.079,4.079,4.079,4.079,4.079,4.079,4.079,4.0746,4.0733,4.0733,4.0668,4.0626,4.0603,4.0558,4.0504,4.0504,4.0489,4.0489,4.0489,4.0495,4.0482,4.0432,4.0362,4.0326,4.031,4.0253,4.0196,4.0137,4.0057,3.9975,3.9911,3.9911,3.9845,3.9712,3.9703,3.9674,3.962,3.962,3.9602,3.9596,3.9546,3.952,2.5295,2.5272,2.5486,2.5918,2.5901,2.598,2.6715,0.0,2.7115,2.7284,0.0,2.779,2.7875,0.0,0.0,2.859,2.8967,2.9335,2.9661,3.0199,3.0593,3.0723,3.1414,3.2091,3.2669,3.3634,3.4435,3.4889,3.5124,3.5315,3.5509,3.5601,3.5648,3.5727,3.5776,3.5852,3.5957,3.7653,3.8545,3.8665,4.031,4.1105,4.1094,4.1094,4.1108,4.1108,4.1108,4.1101,4.1109,4.1106,4.1095,4.1089,4.102,4.0991,4.1007,4.0991,4.0954,4.0907,4.0907,4.0907,4.0907,4.0907,4.0859,4.0818,4.0787,4.08,4.079,4.079,4.079,4.079,4.079,4.079,4.079,4.079,4.079,4.079,4.079,4.079,4.079,4.079,4.0733,4.0673,4.0622,4.0588,4.0573,4.0504,4.0489,4.0489,4.0489,4.0489,4.0511,4.0502,4.0432,4.0362,4.0307,4.0291,4.0253,4.0196,4.0137,4.0057,3.9996,3.9933,3.9848,3.9781,3.9712,3.9703,3.9693,3.9645,3.9602,3.9602,3.9577,3.9571,2.5051,2.5053,2.5243,2.536,2.5545,2.5825,2.6574,2.6922,2.7225,2.765,0.0,0.0,0.0,0.0,0.0,0.0,2.9409,2.9722,3.0054,3.0477,3.0861,3.1044,3.1674,3.2352,3.3099,3.3797,3.4316,3.4628,3.4889,3.5105,3.5315,3.5388,3.5477,3.5566,3.564,3.5697,3.5752,3.7539,3.8441,3.8463,4.0246,4.1111,4.1105,4.109,4.1094,4.1108,4.1097,4.1108,4.1101,4.1105,4.1091,4.1095,4.1064,4.102,4.0991,4.0988,4.0991,4.0945,4.0917,4.0907,4.0907,4.0907,4.0849,4.0807,4.0807,4.08,4.079,4.079,4.079,4.079,4.079,4.079,4.079,4.079,4.079,4.079,4.079,4.079,4.079,4.079,4.0778,4.0733,4.066,4.0636,4.0588,4.0573,4.0523,4.0489,4.0489,4.0489,4.0492,4.0502,4.0466,4.0415,4.0307,4.0308,4.0253,4.0196,4.0098,4.0036,3.9996,3.9933,3.9867,3.9804,3.9781,3.9754,3.9703,3.9674,3.9669,3.9669,3.962,3.9577,2.5029,2.4963,2.4958,2.5055,2.5288,2.5634,2.6344,2.6851,2.7315,2.7837,2.8323,0.0,0.0,0.0,2.9305,2.956,0.0,3.0054,3.0351,3.0723,3.1044,3.1334,3.193,3.2606,3.3422,3.3807,3.4124,3.4404,3.467,3.4908,3.5107,3.519,3.5296,3.5432,3.5507,3.5712,3.6017,3.7597,3.849,3.8773,4.0329,4.1081,4.1101,4.1097,4.1108,4.1093,4.1108,4.1097,4.1108,4.1101,4.1105,4.1106,4.11,4.1064,4.1039,4.1011,4.1007,4.0982,4.0945,4.0917,4.0907,4.0907,4.0849,4.0807,4.0807,4.08,4.079,4.079,4.079,4.079,4.079,4.079,4.079,4.079,4.079,4.079,4.079,4.079,4.079,4.079,4.079,4.079,4.0733,4.066,4.0617,4.0607,4.0558,4.0523,4.0504,4.0489,4.0508,4.0499,4.0499,4.0449,4.0325,4.0307,4.0271,4.0196,4.0098,4.0057,3.9996,3.9954,3.9911,3.9826,3.9804,3.9781,3.9735,3.9703,3.9717,3.9693,3.9645,3.9602,2.5355,2.4982,2.4776,2.5404,2.5462,2.5474,2.6166,2.7009,2.7673,2.7704,2.8419,2.9121,2.9259,2.938,2.956,2.9766,3.0054,0.0,0.0,3.1038,3.1351,3.1466,3.2144,3.2802,3.3364,3.3605,3.3842,3.4173,3.4473,3.4689,3.4908,3.5038,3.516,3.5296,3.5364,3.5881,3.6837,3.7829,3.8763,3.9668,4.0563,4.1033,4.1106,4.1097,4.1099,4.1108,4.1093,4.111,4.1108,4.1108,4.1101,4.109,4.1106,4.1095,4.1089,4.102,4.1003,4.101,4.1002,4.0945,4.0907,4.0907,4.0849,4.0807,4.0807,4.08,4.079,4.079,4.079,4.079,4.079,4.079,4.079,4.079,4.079,4.079,4.079,4.079,4.079,4.079,4.079,4.079,4.079,4.0746,4.0673,4.0622,4.0607,4.0573,4.0523,4.0489,4.0489,4.0489,4.0495,4.0466,4.0415,4.0344,4.0271,4.0196,4.0196,4.0157,3.9996,3.9996,3.9954,3.9889,3.9826,3.9804,3.9804,3.9735,3.9703,3.9693,3.9645,3.9602,0.0,0.0,2.5108,2.5234,2.5177,2.5299,2.5931,2.6419,2.6972,2.7961,2.849,2.8986,2.9613,2.9798,2.9913,3.0215,3.0384,3.0593,0.0,3.1428,3.1748,3.1948,3.2422,3.2852,3.3165,3.3444,3.3726,3.3972,3.4245,3.4476,3.4689,3.532,3.578,3.5961,3.658,3.7133,3.756,3.8498,3.9178,3.9587,4.051,4.096,4.1026,4.1031,4.1066,4.1097,4.1108,4.1094,4.109,4.1097,4.1108,4.1104,4.1109,4.1091,4.1095,4.102,4.0991,4.098,4.0954,4.0917,4.0907,4.0907,4.0849,4.0807,4.0807,4.08,4.079,4.079,4.079,4.079,4.079,4.079,4.079,4.079,4.079,4.079,4.079,4.079,4.079,4.079,4.079,4.079,4.079,4.079,4.0746,4.0693,4.0636,4.0588,4.0573,4.0523,4.0489,4.0489,4.0508,4.0495,4.0466,4.036,4.029,4.0272,4.0215,4.0157,4.0077,4.0017,3.9975,3.9889,3.9889,3.9867,3.9867,3.9804,3.9735,3.9703,3.9674,3.9645,2.5795,2.5637,0.0,2.5323,2.5262,2.5313,2.5735,2.6158,2.6671,2.7653,2.8375,2.902,2.9646,3.0025,3.0316,3.0526,3.0692,3.0895,0.0,3.1654,3.1984,3.2144,3.2489,3.282,3.2993,3.3316,3.3577,3.378,3.4023,3.4375,3.4884,3.5544,3.6128,3.6595,3.7281,3.7828,3.8252,3.8935,3.9474,3.9901,4.0552,4.0908,4.0968,4.0986,4.1011,4.107,4.1094,4.1107,4.1093,4.1108,4.1099,4.1108,4.1101,4.1105,4.11,4.1058,4.1025,4.0988,4.0954,4.0917,4.0907,4.0907,4.0849,4.0807,4.0807,4.08,4.079,4.079,4.079,4.079,4.079,4.079,4.079,4.079,4.079,4.079,4.079,4.079,4.079,4.079,4.079,4.079,4.079,4.079,4.0778,4.07,4.066,4.0636,4.0588,4.0573,4.0523,4.0504,4.0489,4.0492,4.0466,4.0342,4.0308,4.031,4.0253,4.0215,4.0137,4.0077,3.9996,3.9933,3.9911,3.9889,3.9889,3.9867,3.9804,3.9735,3.9703,3.9674]},{"header":{"parameterUnit":"m.s-1","parameterCategory":1,"la1":30.6,"la2":29.2853,"lo1":-89.7004,"lo2":-87.6739,"dy":0.0162,"dx":0.0183,"nx":112,"ny":82,"refTime":"2023-05-17T12:00:00:Z","depth":0,"parameterNumber":3,"parameterNumberName":"V-component_of_WINDS"},"data":[0.0,0.0,0.0,0.0,0.0,0.0,0.0,0.0,0.0,0.0,0.0,0.0,0.0,0.0,0.0,0.0,0.0,0.0,0.0,0.0,0.0,0.0,0.0,0.0,0.0,0.0,0.0,0.0,0.0,0.0,0.0,0.0,0.0,0.0,0.0,0.0,0.0,0.0,0.0,0.0,0.0,0.0,0.0,0.0,0.0,0.0,0.0,0.0,0.0,0.0,0.0,0.0,0.0,0.0,0.0,0.0,0.0,0.0,0.0,0.0,0.0,0.0,0.0,0.0,0.0,0.0,0.0,0.0,0.0,0.0,0.0,0.0,0.0,0.0,0.0,0.0,0.0,0.0,0.0,0.0,0.0,0.0,0.0,0.0,0.0,0.0,0.0,0.0,0.0,0.0,-0.0764,-0.1254,-0.1335,-0.1463,-0.1685,-0.175,-0.1855,-0.2162,0.0,0.0,0.0,0.0,0.0,0.0,0.0,0.0,0.0,0.0,0.0,0.0,0.0,0.0,0.0,0.0,0.0,0.0,0.0,0.0,0.0,0.0,0.0,0.0,0.0,0.0,0.0,0.0,0.0,0.0,0.0,0.0,0.0,0.0,0.0,0.0,0.0,0.0,0.0,0.0,0.0,0.0,0.0,0.0,0.0,0.0,0.0,0.0,0.0,0.0,0.0,0.0,0.0,0.0,0.0,0.0,0.0,0.0,0.0,0.0,0.0,0.0,0.0,0.0,0.0,0.0,0.0,0.0,0.0,0.0,0.0,0.0,0.0,0.0,0.0,0.0,0.0,0.0,0.0,0.0,0.0,0.0,0.0,0.0,0.0,0.0,0.0,0.0,0.0,0.0,0.0,0.0,0.0,0.0,0.0,0.0,0.0,0.0,0.0,0.0,0.0,0.0,0.0,0.0,-0.0764,-0.1254,-0.1415,-0.1618,-0.1685,-0.1824,-0.1997,-0.2162,0.0,0.0,0.0,0.0,0.0,0.0,0.0,0.0,0.0,0.0,0.0,0.0,0.0,0.0,0.0,0.0,0.0,0.0,0.0,0.0,0.0,0.0,0.0,0.0,0.0,0.0,0.0,0.0,0.0,0.0,0.0,0.0,0.0,0.0,0.0,0.0,0.0,0.0,0.0,0.0,0.0,0.0,0.0,0.0,0.0,0.0,0.0,0.0,0.0,0.0,0.0,0.0,0.0,0.0,0.0,0.0,0.0,0.0,0.0,0.0,0.0,0.0,0.0,0.0,0.0,0.0,0.0,0.0,0.0,0.0,0.0,0.0,0.0,0.0,0.0,0.0,0.0,0.0,0.0,0.0,0.0,0.0,0.0,0.0,0.0,0.0,0.0,0.0,0.0,0.0,0.0,0.0,0.0,0.0,0.0,0.0,0.0,0.0,0.0,0.0,0.0,0.0,0.0,-0.083,-0.1086,-0.1256,-0.1493,-0.1627,-0.1718,-0.1912,-0.2082,-0.2208,-0.2241,0.0,0.0,0.0,0.0,0.0,0.0,0.0,0.0,0.0,0.0,0.0,0.0,0.0,0.0,0.0,0.0,0.0,0.0,0.0,0.0,0.0,0.0,0.0,0.0,0.0,0.0,0.0,0.0,0.0,0.0,0.0,0.0,0.0,0.0,0.0,0.0,0.0,0.0,0.0,0.0,0.0,0.0,0.0,0.0,0.0,0.0,0.0,0.0,0.0,0.0,0.0,0.0,0.0,0.0,0.0,0.0,0.0,0.0,0.0,0.0,0.0,0.0,0.0,0.0,0.0,0.0,0.0,0.0,0.0,0.0,0.0,0.0,0.0,0.0,0.0,0.0,0.0,0.0,0.0,0.0,0.0,0.0,0.0,0.0,0.0,0.0,0.0,0.0,0.0,0.0,0.0,0.0,0.0,0.0,0.0,0.0,0.0,0.0,0.0,0.0,0.0,0.0,-0.0991,-0.1335,-0.1335,-0.1493,-0.1712,-0.1823,-0.2,-0.2093,-0.2249,-0.2393,0.0,0.0,0.0,0.0,0.0,0.0,0.0,0.0,0.0,0.0,0.0,0.0,0.0,0.0,0.0,0.0,0.0,0.0,0.0,0.0,0.0,0.0,0.0,0.0,0.0,0.0,0.0,0.0,0.0,0.0,0.0,0.0,0.0,0.0,0.0,0.0,0.0,0.0,0.0,0.0,0.0,0.0,0.0,0.0,0.0,0.0,0.0,0.0,0.0,0.0,0.0,0.0,0.0,0.0,0.0,0.0,0.0,0.0,0.0,0.0,0.0,0.0,0.0,0.0,0.0,0.0,0.0,0.0,0.0,0.0,0.0,0.0,0.0,0.0,0.0,0.0,0.0,0.0,0.0,0.0,0.0,0.0,0.0,0.0,0.0,0.0,0.0,0.0,0.0,0.0,0.0,0.0,0.0,0.0,0.0,0.0,0.0,0.0,0.0,0.0,0.0,0.0,-0.0991,-0.1335,-0.1335,-0.165,-0.1869,-0.1823,-0.2073,-0.2309,-0.246,-0.2594,0.0,0.0,0.0,0.0,0.0,0.0,0.0,0.0,0.0,0.0,0.0,0.0,0.0,0.0,0.0,0.0,0.0,0.0,0.0,0.0,0.0,0.0,0.0,0.0,0.0,0.0,0.0,0.0,0.0,0.0,0.0,0.0,0.0,0.0,0.0,0.0,0.0,0.0,0.0,0.0,0.0,0.0,0.0,0.0,0.0,0.0,0.0,0.0,0.0,0.0,0.0,0.0,0.0,0.0,0.0,0.0,0.0,0.0,0.0,0.0,0.0,0.0,0.0,0.0,0.0,0.0,0.0,0.0,0.0,0.0,0.0,0.0,0.0,0.0,0.0,0.0,0.0,0.0,0.0,0.0,0.0,0.0,0.0,0.0,0.0,0.0,0.0,0.0,0.0,0.0,0.0,0.0,0.0,0.0,0.0,0.0,0.0,0.0,0.0,0.0,0.0,0.0,-0.0991,-0.1335,-0.1335,-0.165,-0.188,-0.1862,-0.2197,-0.2436,-0.259,0.0,0.0,0.0,0.0,0.0,0.0,0.0,0.0,0.0,0.0,0.0,0.0,0.0,0.0,0.0,0.0,0.0,0.0,0.0,0.0,0.0,0.0,0.0,0.0,0.0,0.0,0.0,0.0,0.0,0.0,0.0,0.0,0.0,0.0,0.0,0.0,0.0,0.0,0.0,0.0,0.0,0.0,0.0,0.0,0.0,0.0,0.0,0.0,0.0,0.0,0.0,0.0,0.0,0.0,0.0,0.0,0.0,0.0,0.0,0.0,0.0,0.0,0.0,0.0,0.0,0.0,0.0,0.0,0.0,0.0,0.0,0.0,0.0,0.0,0.0,0.0,0.0,0.0,0.0,0.0,0.0,0.0,0.0,0.0,0.0,0.0,0.0,0.0,0.0,0.0,0.0,0.0,0.0,0.0,0.0,0.0,0.0,0.0,0.0,0.0,0.0,0.0,-0.0516,-0.0995,-0.1335,-0.1335,-0.165,-0.1887,-0.1887,-0.2226,-0.2468,-0.2699,0.0,0.0,0.0,0.0,0.0,0.0,0.0,0.0,0.0,0.0,0.0,0.0,0.0,0.0,0.0,0.0,0.0,0.0,0.0,0.0,0.0,0.0,0.0,0.0,0.0,0.0,0.0,0.0,0.0,0.0,0.0,0.0,0.0,0.0,0.0,0.0,0.0,0.0,0.0,0.0,0.0,0.0,0.0,0.0,0.0,0.0,0.0,0.0,0.0,0.0,0.0,0.0,0.0,0.0,0.0,0.0,0.0,0.0,0.0,0.0,0.0,0.0,0.0,0.0,0.0,0.0,0.0,0.0,0.0,0.0,0.0,0.0,0.0,0.0,0.0,0.0,0.0,0.0,0.0,0.0,0.0,0.0,0.0,0.0,0.0,0.0,0.0,0.0,0.0,0.0,0.0,0.0,0.0,0.0,0.0,0.0,0.0,0.0,0.0,0.0,0.0,0.0,-0.0528,-0.1006,-0.1335,-0.1335,-0.165,-0.1887,-0.1887,-0.2226,-0.2545,0.0,0.0,0.0,0.0,0.0,0.0,0.0,0.0,0.0,0.0,0.0,0.0,0.0,0.0,0.0,0.0,0.0,0.0,0.0,0.0,0.0,0.0,0.0,0.0,0.0,0.0,0.0,0.0,0.0,0.0,0.0,0.0,0.0,0.0,0.0,0.0,0.0,0.0,0.0,0.0,0.0,0.0,0.0,0.0,0.0,0.0,0.0,0.0,0.0,0.0,0.0,0.0,0.0,0.0,0.0,0.0,0.0,0.0,0.0,0.0,0.0,0.0,0.0,0.0,0.0,0.0,0.0,0.0,0.0,0.0,0.0,0.0,0.0,0.0,0.0,0.0,0.0,0.0,0.0,0.0,0.0,0.0,0.0,0.0,0.0,0.0,0.0,0.0,0.0,0.0,0.0,0.0,0.0,0.0,0.0,0.0,0.0,0.0,0.0,0.0,0.0,0.0,0.0,-0.0529,-0.1006,-0.1335,-0.1335,-0.165,-0.1887,-0.1887,-0.2418,-0.2766,-0.2923,0.0,0.0,0.0,0.0,0.0,0.0,0.0,0.0,0.0,0.0,0.0,0.0,0.0,0.0,0.0,0.0,0.0,0.0,0.0,0.0,0.0,0.0,0.0,0.0,0.0,0.0,0.0,0.0,0.0,0.0,0.0,0.0,0.0,0.0,0.0,0.0,0.0,0.0,0.0,0.0,0.0,0.0,0.0,0.0,0.0,0.0,0.0,0.0,0.0,0.0,0.0,0.0,0.0,0.0,0.0,0.0,0.0,0.0,0.0,0.0,0.0,0.0,0.0,0.0,0.0,0.0,0.0,0.0,0.0,0.0,0.0,0.0,0.0,0.0,0.0,0.0,0.0,0.0,0.0,0.0,0.0,0.0,0.0,0.0,0.0,0.0,0.0,0.0,0.0,0.0,0.0,0.0,0.0,0.0,0.0,0.0,0.0,0.0,0.0,0.0,0.0,0.0,-0.0537,-0.1012,-0.1335,-0.1335,-0.165,-0.1887,-0.1887,-0.2434,-0.2874,-0.2956,0.0,0.0,0.0,0.0,0.0,0.0,0.0,0.0,0.0,0.0,0.0,0.0,0.0,0.0,0.0,0.0,0.0,0.0,0.0,0.0,0.0,0.0,0.0,0.0,0.0,0.0,0.0,0.0,0.0,0.0,0.0,0.0,0.0,0.0,0.0,0.0,0.0,0.0,0.0,0.0,0.0,0.0,0.0,0.0,0.0,0.0,0.0,0.0,0.0,0.0,0.0,0.0,0.0,0.0,0.0,0.0,0.0,0.0,0.0,0.0,0.0,0.0,0.0,0.0,0.0,0.0,0.0,0.0,0.0,0.0,0.0,0.0,0.0,0.0,0.0,0.0,0.0,0.0,0.0,0.0,0.0,0.0,0.0,0.0,0.0,0.0,0.0,0.0,0.0,0.0,0.0,0.0,0.0,0.0,0.0,0.0,0.0,0.0,0.0,0.0,0.0,0.0,-0.0548,-0.1021,-0.1335,-0.1335,-0.165,-0.1887,-0.1887,-0.2434,-0.2877,-0.2966,0.0,0.0,0.0,0.0,0.0,0.0,0.0,0.0,0.0,0.0,0.0,0.0,0.0,0.0,0.0,0.0,0.0,0.0,0.0,0.0,0.0,0.0,0.0,0.0,0.0,0.0,0.0,0.0,0.0,0.0,0.0,0.0,0.0,0.0,0.0,0.0,0.0,0.0,0.0,0.0,0.0,0.0,0.0,0.0,0.0,0.0,0.0,0.0,0.0,0.0,0.0,0.0,0.0,0.0,0.0,0.0,0.0,0.0,0.0,0.0,0.5295,0.5241,0.0,0.0,0.0,0.0,0.0,0.0,0.0,0.0,0.0,0.0,0.0,0.0,0.0,0.0,0.0,0.0,0.0,0.0,0.0,0.0,0.0,0.0,0.0,0.0,0.0,0.0,0.0,0.0,0.0,0.0,0.0,0.0,0.0,0.0,0.0,0.0,0.0,0.0,0.0,0.0,-0.0549,-0.1021,-0.1335,-0.1335,-0.165,-0.1887,-0.1887,-0.2592,-0.3056,-0.3039,-0.3516,0.0,0.0,0.0,0.0,0.0,0.0,0.0,0.0,0.0,0.0,0.0,0.0,0.0,0.0,0.0,0.0,0.0,0.0,0.0,0.0,0.0,0.0,0.0,0.0,0.0,0.0,0.0,0.0,0.0,0.0,0.0,0.0,0.0,0.0,0.0,0.0,0.0,0.0,0.0,0.0,0.0,0.0,0.0,0.0,0.0,0.0,0.0,0.0,0.0,0.0,0.0,0.0,0.0,0.0,0.0,0.0,0.0,0.0,0.0,0.542,0.5333,0.0,0.0,0.0,0.0,0.0,0.0,0.0,0.0,0.0,0.0,0.0,0.0,0.0,0.0,0.0,0.0,0.0,0.0,0.0,0.0,0.0,0.0,0.0,0.0,0.0,0.0,0.0,0.0,0.0,0.0,0.0,0.0,0.0,0.0,0.0,0.0,0.0,0.0,0.0,0.0,-0.055,-0.1021,-0.1335,-0.1415,-0.1729,-0.1964,-0.2042,-0.2669,-0.3062,-0.3062,-0.3645,0.0,0.0,0.0,0.0,0.0,0.0,0.0,0.0,0.0,0.0,0.0,0.0,0.0,0.0,0.0,0.0,0.0,0.0,0.0,0.0,0.0,0.0,0.0,0.0,0.0,0.0,0.0,0.0,0.0,0.0,0.0,0.0,0.0,0.0,0.0,0.0,0.0,0.0,0.0,0.0,0.0,0.0,0.0,0.0,0.0,0.0,0.0,0.0,0.0,0.0,0.0,0.0,0.0,0.5497,0.5635,0.5733,0.5733,0.5733,0.5722,0.5521,0.542,0.5401,0.5401,0.0,0.0,0.0,0.0,0.0,0.0,0.0,0.0,0.0,0.0,0.0,0.0,0.0,0.0,0.0,0.0,0.0,0.0,0.0,0.0,0.0,0.0,0.1335,0.1335,0.1335,0.1335,0.1335,0.0,0.0,0.0,0.0,0.0,0.0,0.0,0.0,0.0,0.0,0.0,-0.055,-0.1021,-0.1415,-0.1572,-0.1807,-0.1963,-0.2196,-0.2747,-0.3141,-0.3139,-0.3765,-0.4233,0.0,0.0,0.0,0.0,0.0,0.0,0.0,0.0,0.0,0.0,0.0,0.0,0.0,0.0,0.0,0.0,0.0,0.0,0.0,0.0,0.0,0.0,0.0,0.0,0.0,0.0,0.0,0.0,0.0,0.0,0.0,0.0,0.1972,0.188,0.0,0.0,0.0,0.0,0.0,0.0,0.0,0.0,0.0,0.0,0.0,0.0,0.0,0.49,0.5263,0.5263,0.5412,0.5708,0.5708,0.5719,0.5733,0.5733,0.5733,0.5733,0.57,0.0,0.5526,0.5526,0.0,0.0,0.0,0.0,0.0,0.0,0.0,0.0,0.0,0.0,0.0,0.0,0.0,0.0,0.0,0.0,0.0,0.0,0.0,0.0,0.0,0.0,0.1335,0.1335,0.1335,0.1335,0.1335,0.1335,0.1335,0.1335,0.1335,0.1335,0.0,0.0,0.0,0.0,0.0,0.0,-0.055,-0.1021,-0.1415,-0.1572,-0.1807,-0.2043,-0.2433,-0.2826,-0.3217,-0.3448,-0.3995,-0.4384,-0.4384,-0.4763,0.0,0.0,0.0,0.0,0.0,0.0,0.0,0.0,0.0,0.0,0.0,0.0,0.0,0.0,0.0,0.0,0.0,0.0,0.0,0.0,0.0,0.0,0.0,0.0,0.0,0.0,0.0,0.0,0.0,0.1928,0.184,0.1861,0.1906,0.1934,0.0,0.0,0.0,0.0,0.0,0.0,0.0,0.0,0.0,0.3794,0.4257,0.4581,0.4946,0.5032,0.5232,0.5552,0.5552,0.5552,0.5733,0.5733,0.5733,0.5733,0.5733,0.5703,0.5654,0.5654,0.5357,0.4875,0.0,0.0,0.0,0.0,0.3854,0.3418,0.3376,0.309,0.2653,0.2403,0.0,0.0,0.0,0.0,0.0,0.0,0.0,0.1335,0.1335,0.1335,0.1335,0.1335,0.1335,0.1335,0.1335,0.1335,0.1335,0.1335,0.1335,0.1335,0.1335,0.1335,0.0,0.0,0.0,-0.0707,-0.0628,-0.1021,-0.1415,-0.1729,-0.1808,-0.2121,-0.2589,-0.2904,-0.3217,-0.3448,-0.4073,-0.4384,-0.4384,-0.4932,-0.5246,0.0,0.0,0.0,0.0,0.0,0.0,0.0,0.0,0.0,0.0,0.0,0.0,0.0,0.0,0.0,0.0,0.0,0.0,0.0,0.0,0.0,0.0,0.0,0.0,0.0,0.0,0.0,0.0,0.1768,0.1823,0.1835,0.1788,0.165,0.0,0.0,0.0,0.0,0.0,0.0,0.2598,0.2697,0.3007,0.3559,0.3839,0.4142,0.4569,0.4746,0.501,0.528,0.528,0.5371,0.5644,0.5644,0.5644,0.5733,0.5733,0.5644,0.5644,0.5644,0.5371,0.501,0.4921,0.4656,0.4291,0.4142,0.3854,0.3495,0.3351,0.3066,0.2715,0.2375,0.2028,0.1761,0.1569,0.0,0.0,0.0,0.0,0.1281,0.1281,0.1281,0.1281,0.1281,0.1281,0.1281,0.112,0.112,0.1196,0.126,0.1178,0.1178,0.1257,0.1335,0.0,0.0707,-0.0471,-0.1178,-0.0786,-0.1178,-0.1493,-0.1887,-0.1964,-0.2199,-0.2826,-0.2984,-0.3295,-0.3604,-0.4151,-0.4462,-0.4462,-0.501,-0.5401,-0.5559,0.0,0.0,0.0,0.0,0.0,0.0,0.0,0.0,0.0,0.0,0.0,0.0,0.0,0.0,0.0,0.0,0.0,0.0,0.0,0.0,0.0,0.0,0.0,0.0,0.0,0.0,0.0,0.0,0.0,0.133,0.0942,0.0,0.0,0.0,0.0,0.1335,0.1729,0.1905,0.1785,0.2157,0.2461,0.2867,0.3101,0.358,0.43,0.43,0.4565,0.501,0.501,0.5191,0.5371,0.5371,0.5552,0.5733,0.5733,0.5552,0.5371,0.5371,0.528,0.501,0.4748,0.4569,0.4297,0.4032,0.3762,0.3582,0.3307,0.3001,0.2691,0.2256,0.1798,0.1348,0.1346,0.1344,0.0,0.0,0.126,0.126,0.126,0.126,0.126,0.126,0.126,0.1176,0.0755,0.0672,0.0746,0.1189,0.0943,0.0786,0.1257,0.0,0.0707,-0.0943,-0.1257,-0.1257,-0.1257,-0.1493,-0.1729,-0.1887,-0.2041,-0.2431,-0.3062,-0.3062,-0.3376,-0.4001,-0.4309,-0.4462,-0.4698,-0.5087,-0.5401,-0.5559,-0.5786,0.0,0.0,0.0,0.0,0.0,0.0,0.0,0.0,0.0,0.0,0.0,0.0,0.0,0.0,0.0,0.0,0.0,0.0,0.0,0.0,0.0,0.0,0.0,0.0,0.0,0.0,0.0,0.0,0.0235,0.0079,0.0,-0.055,-0.0314,0.0,0.0236,0.0558,0.0812,0.1244,0.1357,0.1648,0.2217,0.2503,0.2959,0.3405,0.3494,0.3941,0.4565,0.4565,0.4743,0.5099,0.5099,0.5191,0.528,0.528,0.5191,0.5099,0.5015,0.4926,0.4837,0.475,0.4569,0.43,0.4036,0.3767,0.3587,0.3317,0.3035,0.2753,0.2308,0.1836,0.1375,0.1375,0.1362,0.1263,0.1263,0.1263,0.1263,0.1263,0.1095,0.0842,0.0842,0.1095,0.1263,0.1095,0.0842,0.0754,0.1237,0.1151,0.0904,0.0493,-0.0,-0.0658,-0.1233,-0.1398,-0.1398,-0.1398,-0.1561,-0.1807,-0.1971,-0.2299,-0.2709,-0.3282,-0.3446,-0.3691,-0.4263,-0.4364,-0.4646,-0.5044,-0.5288,-0.5556,-0.5789,-0.6022,-0.618,0.0,0.0,0.0,0.0,0.0,0.0,0.0,0.0,0.0,0.0,0.0,0.0,0.0,0.0,0.0,0.0,0.0,0.0,0.0,0.0,0.0,0.0,0.0,0.0,0.0,-0.0773,-0.0942,-0.1099,-0.1256,-0.1492,-0.1885,-0.1728,-0.1335,-0.0863,-0.0722,-0.0411,0.0336,0.0343,0.0702,0.1524,0.1794,0.2153,0.2599,0.278,0.3227,0.3941,0.3941,0.4208,0.4743,0.4743,0.4832,0.501,0.501,0.4921,0.4924,0.4748,0.4661,0.4569,0.4569,0.4391,0.4123,0.3857,0.3678,0.3406,0.305,0.2871,0.2604,0.2154,0.1777,0.1406,0.1406,0.1393,0.1291,0.1291,0.1205,0.1119,0.1291,0.1119,0.0775,0.0431,0.0603,0.0862,0.0862,0.0344,0.0,0.0344,0.0425,0.0168,-0.0337,-0.0842,-0.1179,-0.1348,-0.1432,-0.1432,-0.1515,-0.1683,-0.185,-0.2102,-0.2523,-0.2944,-0.336,-0.3697,-0.4032,-0.4448,-0.4634,-0.492,-0.533,-0.5577,-0.5848,-0.608,-0.6403,-0.6565,-0.6565,0.0,0.0,0.0,0.0,0.0,0.0,0.0,0.0,0.0,0.0,0.0,0.0,0.0,0.0,0.0,0.0,0.0,0.0,0.0,0.0,0.0,0.0,0.0,-0.1972,-0.2244,-0.2511,-0.2511,-0.2904,-0.3141,-0.3141,-0.3141,-0.2747,-0.196,-0.2086,-0.1725,-0.0923,-0.0944,-0.0439,0.0896,0.0897,0.1256,0.1884,0.2154,0.2602,0.3136,0.3138,0.3585,0.4297,0.4297,0.4565,0.4921,0.4921,0.4835,0.4661,0.4661,0.448,0.43,0.43,0.4123,0.3859,0.3678,0.3406,0.3138,0.2693,0.2334,0.2154,0.1885,0.1615,0.1436,0.1436,0.1436,0.1436,0.1346,0.1076,0.0807,0.1256,0.1345,0.1166,0.018,-0.0,-0.0,-0.0,-0.0718,-0.1346,-0.1436,-0.139,-0.1435,-0.1435,-0.1013,-0.0844,-0.1351,-0.1435,0.0,-0.1685,-0.1854,-0.2106,-0.236,-0.2782,-0.3118,-0.3367,-0.3874,-0.4296,-0.4713,-0.4957,-0.529,-0.5716,-0.5874,-0.6114,-0.6443,-0.6861,-0.7109,-0.7109,0.0,0.0,0.0,0.0,0.0,0.0,0.0,0.0,0.0,0.0,0.0,0.0,0.0,0.0,0.0,0.0,0.0,0.0,0.0,0.0,0.0,-0.2639,-0.2794,-0.2409,-0.2579,-0.2746,-0.2899,-0.3136,-0.3372,-0.3608,-0.345,-0.3136,-0.282,-0.2766,-0.2587,-0.227,-0.1831,-0.1338,-0.0717,-0.0538,0.009,0.1256,0.1345,0.1705,0.2242,0.2778,0.3136,0.3494,0.3674,0.3853,0.3944,0.3944,0.3944,0.3944,0.3944,0.3855,0.3765,0.3944,0.3946,0.3857,0.3497,0.305,0.2693,0.2513,0.2243,0.1885,0.1794,0.1615,0.1436,0.1436,0.1436,0.1345,0.0987,0.1076,0.1077,0.0539,0.0359,0.0359,0.009,-0.0539,-0.0987,-0.0987,-0.0987,-0.0987,-0.1345,-0.1423,-0.1411,-0.1411,-0.1323,-0.1323,-0.1676,-0.1764,-0.1764,-0.2029,-0.2205,-0.2469,-0.2731,-0.3172,-0.3527,-0.3703,-0.423,-0.4667,-0.4925,-0.5201,-0.5584,-0.6014,-0.617,-0.6446,-0.6861,-0.7026,-0.7195,0.0,0.0,0.0,0.0,0.0,0.0,0.0,0.0,0.0,0.0,0.0,0.0,0.0,0.0,0.0,0.0,0.0,0.0,0.0,0.0,0.0,0.0,-0.3214,-0.3526,-0.3448,-0.3448,-0.3526,-0.3759,-0.3915,-0.4148,-0.4307,-0.4148,-0.4008,-0.3889,-0.3782,-0.3624,-0.3406,-0.2905,-0.2422,-0.2062,-0.1614,-0.0897,-0.0,0.0179,0.0718,0.1525,0.2062,0.251,0.2869,0.3138,0.3317,0.3408,0.3587,0.3587,0.3587,0.3587,0.3587,0.3587,0.0,0.0,0.0,0.0,0.2691,0.2513,0.2244,0.2064,0.1794,0.1705,0.1525,0.1436,0.1436,0.1436,0.1345,0.1076,0.0897,0.0718,0.018,-0.0269,-0.0629,-0.0629,-0.0897,-0.1166,-0.1345,-0.1166,-0.1076,-0.1345,-0.1525,0.0,-0.1525,-0.1525,-0.1615,-0.1794,-0.1885,-0.2064,-0.2334,-0.2512,-0.278,-0.2957,-0.3408,-0.3857,-0.4034,-0.4569,0.0,0.0,0.0,-0.5973,-0.6412,-0.6675,0.0,0.0,0.0,-0.765,-0.7739,0.0,0.0,0.0,-0.7281,-0.7152,0.0,0.0,0.0,0.0,0.0,0.0,0.0,0.0,0.0,0.0,0.0,0.0,0.0,0.0,0.0,0.0,-0.3763,-0.4389,-0.4776,-0.4774,-0.4696,-0.4854,-0.5007,-0.516,-0.516,-0.516,-0.5132,-0.509,-0.4886,-0.4746,-0.4415,-0.3986,0.0,0.0,0.0,-0.1884,-0.1524,-0.0987,-0.0269,0.0807,0.1166,0.1615,0.2243,0.2601,0.2868,0.3138,0.3318,0.3408,0.3408,0.3408,0.3413,0.3419,0.3501,0.3406,0.3048,0.2693,0.2424,0.2334,0.1974,0.0,0.0,0.1436,0.1436,0.1436,0.1436,0.1436,0.1436,0.1436,0.0718,-0.0,-0.009,-0.0808,-0.1436,-0.1436,-0.1076,-0.0897,-0.1345,-0.1436,-0.1436,-0.1436,-0.1705,-0.1884,-0.1884,-0.1884,-0.1884,-0.1885,-0.2064,-0.2333,-0.2513,-0.278,-0.3047,-0.3227,0.0,0.0,-0.43,-0.4743,-0.5191,-0.546,-0.5905,-0.6349,-0.6884,-0.7238,-0.7507,-0.7595,-0.8028,-0.8201,-0.8288,-0.8288,-0.8201,-0.8201,-0.768,-0.7415,0.0,0.0,0.0,0.0,0.0,0.0,0.0,0.0,0.0,0.0,0.0,0.0,0.0,0.0,0.0,-0.3841,-0.4543,-0.5243,-0.5857,-0.6167,-0.6244,-0.5709,-0.6018,-0.617,-0.6009,-0.617,-0.623,-0.5971,-0.5791,-0.5672,-0.5537,-0.5041,-0.4652,-0.4383,-0.3673,-0.2959,-0.2239,-0.1613,-0.1076,-0.0628,0.0359,0.0,0.1256,0.1884,0.2242,0.2512,0.2512,0.2512,0.2512,0.2512,0.2447,0.248,0.3069,0.3048,0.2603,0.2513,0.2243,0.1885,0.1794,0.1615,0.1436,0.1436,0.1436,0.1436,0.1436,0.1436,0.0,0.1436,0.0718,-0.018,-0.0897,-0.1256,-0.1436,-0.1436,-0.1345,-0.1256,-0.1346,-0.1615,-0.1705,-0.1705,-0.1974,-0.2154,-0.2154,-0.2154,-0.2154,-0.2334,-0.2601,-0.2868,-0.3048,-0.3317,-0.3587,-0.3767,-0.4034,-0.43,-0.4569,-0.5015,-0.5369,-0.5633,-0.626,-0.6884,-0.7326,-0.7418,-0.768,-0.8025,-0.8113,-0.8292,-0.8564,-0.8564,-0.8384,-0.8201,-0.768,-0.7507,0.0,0.0,0.0,0.0,0.0,0.0,0.0,0.0,0.0,0.0,0.0,-0.2119,-0.2665,0.0,-0.3839,-0.4543,-0.5318,-0.6012,-0.6784,-0.7249,-0.7326,-0.6938,-0.7096,-0.7169,-0.7161,-0.7247,-0.7292,-0.7292,-0.713,-0.6956,-0.6847,-0.6216,-0.5805,-0.5539,-0.4743,-0.403,-0.3314,-0.2509,-0.1883,-0.1436,-0.0538,-0.009,0.0179,0.1076,0.1615,0.1885,0.1974,0.2064,0.2065,0.2178,0.2202,0.2222,0.2591,0.2575,0.2367,0.2163,0.1974,0.1794,0.1615,0.1525,0.1436,0.1436,0.1256,0.1076,0.1345,0.1436,0.1166,0.0269,-0.0359,-0.0718,-0.0987,-0.1256,-0.1436,-0.1436,-0.1525,-0.1615,-0.1615,-0.1794,-0.1974,-0.1974,-0.2154,-0.2423,-0.2511,-0.2601,-0.269,-0.269,-0.2868,-0.3136,-0.3406,-0.3587,-0.3857,-0.4034,-0.4302,-0.4659,-0.5015,-0.546,-0.5905,-0.6257,-0.6615,-0.6972,-0.7507,-0.7595,-0.7852,-0.8201,-0.8292,-0.8472,-0.8568,-0.8568,-0.8564,-0.8384,-0.8028,-0.7768,0.0,0.0,0.0,0.0,0.0,0.0,0.0,-0.1335,-0.1415,-0.165,-0.2042,-0.243,-0.3132,-0.3763,-0.4467,-0.5321,-0.6012,-0.6784,-0.7633,-0.8132,-0.8385,-0.8449,-0.8295,-0.8218,-0.8372,-0.8479,-0.8519,-0.8621,-0.8363,-0.8189,-0.8105,-0.7401,-0.6871,-0.6697,-0.5719,-0.5008,-0.4565,-0.3671,-0.2868,-0.2242,-0.1614,-0.1076,-0.0807,0.0179,0.0807,0.1166,0.1615,0.1794,0.1798,0.1936,0.2048,0.2053,0.2094,0.2086,0.2044,0.1911,0.1801,0.1705,0.1436,0.1436,0.1436,0.1436,0.1166,0.0897,0.1077,0.0987,0.0538,-0.0987,-0.1436,-0.1345,-0.0897,-0.1076,-0.1436,-0.1436,-0.1615,-0.1794,-0.1884,-0.2064,-0.2243,-0.2243,-0.2424,-0.2691,-0.2957,-0.3136,-0.3227,-0.3047,-0.3227,-0.3408,-0.3676,-0.3946,-0.4123,-0.4389,-0.4659,-0.5015,-0.546,-0.5994,-0.6438,-0.6792,-0.6884,-0.7149,-0.7591,-0.7856,-0.8013,-0.8237,-0.8424,-0.8495,-0.8459,-0.8459,-0.8459,-0.8459,-0.819,-0.7876,-0.3919,-0.2979,-0.2196,-0.1886,-0.1572,-0.1335,0.0,-0.1415,-0.165,-0.1808,-0.2199,-0.2744,-0.3606,-0.4231,-0.4932,-0.5931,-0.6784,-0.7633,-0.8475,-0.9097,-0.9766,-1.054,-0.9995,-0.9531,-0.9531,-0.9732,-0.9866,-0.9824,-0.9279,-0.8961,-0.9161,-0.8201,-0.7672,-0.7672,-0.6697,-0.5985,-0.5542,-0.4654,-0.3853,-0.3408,-0.2602,-0.1885,-0.1345,-0.0987,-0.0448,0.0179,0.1076,0.1436,0.144,0.1498,0.1521,0.1619,0.1651,0.1645,0.1707,0.1766,0.1641,0.1436,0.1436,0.1436,0.1436,0.1436,0.1345,0.1166,0.0359,-0.0449,-0.1166,-0.1345,-0.1436,-0.1346,-0.1345,-0.1345,-0.1436,-0.1705,-0.1794,-0.1884,-0.2064,-0.2334,-0.2424,-0.2424,-0.2781,-0.3138,-0.3136,-0.3406,-0.3587,-0.3497,-0.3678,-0.3946,-0.421,-0.448,-0.4659,-0.4921,-0.5191,-0.5549,-0.5994,-0.6438,-0.6707,-0.6795,-0.7149,-0.7591,-0.7856,-0.8028,-0.8218,-0.8321,-0.8321,-0.8239,-0.8073,-0.8073,-0.8073,-0.8073,-0.7828,-0.7828,-0.3608,-0.2902,-0.2276,-0.1964,-0.165,-0.1419,-0.1359,-0.1525,-0.1772,-0.2122,-0.2616,-0.3267,-0.4164,-0.5054,-0.6022,-0.69,-0.7944,-0.8909,-0.9769,-1.0327,-1.0954,-1.1672,-1.157,-1.1278,-1.0897,-1.0941,-1.0952,-1.0799,-1.0424,-1.011,-1.0028,-0.9248,-0.8727,-0.8468,-0.7672,-0.6962,-0.6346,-0.5544,-0.4835,-0.4212,-0.3497,-0.278,-0.224,-0.1524,-0.0897,-0.0269,0.0359,0.0722,0.0915,0.0942,0.1056,0.1069,0.109,0.1085,0.116,0.1498,0.1461,0.1345,0.1076,0.1166,0.1436,0.1436,0.0628,-0.0269,-0.0718,-0.0897,-0.1076,-0.1345,-0.1436,-0.1436,-0.1615,-0.1615,-0.1705,-0.1974,-0.2154,-0.2243,-0.2334,-0.2691,-0.2871,-0.2871,-0.3229,-0.3497,-0.3587,-0.3855,-0.4032,-0.4212,-0.4212,-0.4212,-0.448,-0.4748,-0.5013,-0.5364,-0.5636,-0.5994,-0.6438,-0.6707,-0.6884,-0.7149,-0.7418,-0.7639,-0.7891,-0.797,-0.8056,-0.8134,-0.813,-0.8089,-0.8012,-0.8012,-0.8012,-0.8012,-0.7934,-0.7764,-0.3374,-0.2826,-0.2437,-0.1979,-0.1746,-0.1518,-0.1308,-0.1561,-0.1899,-0.2348,-0.2943,-0.3779,-0.4699,-0.5779,-0.6771,-0.7843,-0.891,-0.9979,-1.0783,-1.1404,-1.2017,-1.2599,-1.3003,-1.301,-1.2488,-1.223,-1.2009,-1.1836,-1.1486,-1.1154,-1.0895,-1.0294,-0.9689,-0.9257,-0.8556,-0.7848,-0.7234,-0.6432,-0.5722,-0.5107,-0.4302,-0.3674,-0.3135,-0.2062,-0.1256,-0.0718,-0.0448,-0.0181,0.0185,0.0284,0.0289,0.0295,0.0301,0.0399,0.0391,0.0662,0.1105,0.1356,0.0719,0.0538,0.0628,0.0807,-0.009,-0.1256,-0.1345,-0.1166,-0.0987,-0.1345,-0.1436,-0.1525,-0.1794,-0.1884,-0.1974,-0.2243,-0.2424,-0.2513,-0.2693,-0.2959,-0.3227,-0.3317,-0.3497,-0.3765,-0.3946,-0.4212,-0.4478,-0.4748,-0.4656,-0.4656,-0.4837,-0.5102,-0.5455,-0.5808,-0.6169,-0.6438,-0.6881,-0.6969,-0.7149,-0.7595,-0.7639,-0.7737,-0.7874,-0.7905,-0.7963,-0.7947,-0.7943,-0.7918,-0.7866,-0.7866,-0.7866,-0.7866,-0.7866,-0.7708,-0.3374,-0.2982,-0.2682,-0.2018,-0.1787,-0.1555,-0.1339,-0.1682,-0.2101,-0.2354,-0.311,-0.403,-0.5191,-0.6102,-0.7098,-0.8431,-0.9653,-1.0541,-1.1197,-1.2213,-1.311,-1.3607,-1.4034,-1.4378,-1.4287,-1.3542,-1.3039,-1.3045,-1.2357,-1.1843,-1.1677,-1.0982,-1.0376,-0.9951,-0.9519,-0.8907,-0.8201,-0.7404,-0.6697,-0.6083,-0.5104,-0.4389,-0.3849,-0.251,-0.1705,-0.1345,-0.1345,-0.1089,-0.0741,-0.0756,-0.0772,-0.0787,-0.0802,-0.0799,-0.0784,-0.0672,0.0188,0.1291,0.0361,-0.0538,-0.1256,-0.0807,-0.0718,-0.0807,-0.1256,-0.1346,-0.1346,-0.1436,-0.1615,-0.1794,-0.1794,-0.1974,-0.2243,-0.2424,-0.2513,-0.2603,-0.3048,-0.3227,-0.3317,-0.3497,-0.3767,-0.3946,-0.421,-0.448,-0.4748,-0.4921,-0.5191,-0.5371,-0.5371,-0.5816,-0.6169,-0.6343,-0.6612,-0.6881,-0.7051,-0.7323,-0.7591,-0.7856,-0.788,-0.7874,-0.7866,-0.7951,-0.7943,-0.7772,-0.7768,-0.7679,-0.75,-0.75,-0.75,-0.75,-0.75,-0.7423,-0.3374,-0.2982,-0.2684,-0.2019,-0.1789,-0.1562,-0.1365,-0.1719,-0.2157,-0.2625,-0.3594,-0.4642,-0.5689,-0.6983,-0.8275,-0.9312,-1.0583,-1.1763,-1.2612,-1.3432,-1.4074,-1.4587,-1.492,-1.4985,-1.4915,-1.4321,-1.3808,-1.3483,-1.3137,-1.279,-1.2357,-1.1671,-1.1154,-1.0641,-1.0125,-0.9428,-0.8644,-0.8113,-0.7408,-0.6529,-0.5282,-0.4389,-0.3848,-0.2956,-0.2422,-0.2154,-0.1884,-0.1556,-0.1228,-0.1331,-0.1361,-0.1302,-0.131,-0.1308,-0.1296,-0.1254,-0.0949,-0.047,-0.0454,-0.0897,-0.1345,-0.1256,-0.1166,-0.1166,-0.1345,-0.1525,-0.1705,-0.1705,-0.1884,-0.2064,-0.2243,-0.2334,-0.2513,-0.2869,-0.2959,-0.305,-0.3406,-0.3587,-0.3678,-0.3767,-0.4125,-0.4482,-0.4569,-0.4926,-0.5282,-0.5636,-0.5633,-0.5633,-0.5816,-0.608,-0.6435,-0.6612,-0.6877,-0.7054,-0.7323,-0.7591,-0.7856,-0.8113,-0.7959,-0.7901,-0.7947,-0.8016,-0.7999,-0.7819,-0.797,-0.7936,-0.7872,-0.7799,-0.7723,-0.7723,-0.7561,-0.7411,-0.3374,-0.2982,-0.2688,-0.204,-0.181,-0.1583,-0.1393,-0.1758,-0.2294,-0.2771,-0.3848,-0.5006,-0.5991,-0.7489,-0.8807,-0.9859,-1.1241,-1.2528,-1.3385,-1.4223,-1.4901,-1.5249,-1.5492,-1.5575,-1.5506,-1.5166,-1.4734,-1.4068,-1.3822,-1.3483,-1.3052,-1.2443,-1.1843,-1.1241,-1.0727,-1.0125,-0.9257,-0.8815,-0.8025,-0.6795,-0.5727,-0.4835,-0.4208,-0.3671,-0.3136,-0.2603,-0.2351,-0.2127,-0.1813,-0.1825,-0.1865,-0.1918,-0.1918,-0.1918,-0.1912,-0.1853,-0.1823,-0.1612,-0.1092,-0.1166,-0.1436,-0.1525,-0.1525,-0.1525,-0.1615,-0.1794,-0.1974,-0.1974,-0.2154,-0.2334,-0.2424,-0.2603,-0.2871,-0.3138,-0.3317,-0.3406,-0.3678,-0.3767,-0.3946,-0.4125,-0.4482,-0.475,-0.4928,-0.5371,-0.5727,-0.6083,-0.608,-0.6169,-0.6349,-0.6435,-0.67,-0.6972,-0.7146,-0.7411,-0.7676,-0.794,-0.8089,-0.8202,-0.8126,-0.803,-0.8008,-0.807,-0.8074,-0.788,-0.803,-0.8102,-0.8102,-0.7953,-0.788,-0.7804,-0.7642,-0.7488,-0.3295,-0.2904,-0.262,-0.2161,-0.1849,-0.1615,-0.1421,-0.1794,-0.2333,-0.2778,-0.3848,-0.5095,-0.6163,-0.7573,-0.889,-1.0115,-1.1671,-1.2954,-1.362,-1.472,-1.5484,-1.5733,-1.5997,-1.617,-1.617,-1.617,-1.5748,-1.4817,-1.4412,-1.3997,-1.3737,-1.313,-1.2448,-1.1757,-1.1499,-1.0895,-1.0038,-0.9519,-0.8468,-0.6884,-0.6349,-0.5638,-0.475,-0.4478,-0.3851,-0.296,-0.3023,-0.2806,-0.2294,-0.2433,-0.238,-0.2422,-0.2422,-0.2422,-0.2415,-0.237,-0.2326,-0.2183,-0.1641,-0.1437,-0.1525,-0.1705,-0.1794,-0.1884,-0.2154,-0.2243,-0.2243,-0.2243,-0.2334,-0.2513,-0.2513,-0.2871,-0.3227,-0.3227,-0.3408,-0.3678,-0.3859,-0.3946,-0.4127,-0.4572,-0.475,-0.4926,-0.5371,-0.5816,-0.6083,-0.6171,-0.6526,-0.6795,-0.6795,-0.6795,-0.6972,-0.7418,-0.7507,-0.768,-0.8201,-0.8201,-0.8218,-0.83,-0.8292,-0.8269,-0.8158,-0.8125,-0.8102,-0.8102,-0.8102,-0.8102,-0.8102,-0.8102,-0.803,-0.7804,-0.7804,-0.7723,-0.3297,-0.2746,-0.2301,-0.2078,-0.1683,-0.1363,-0.1422,-0.1794,-0.2333,-0.2778,-0.3937,-0.5186,-0.6251,-0.7834,-0.941,-1.0636,-1.2015,-1.33,-1.4307,-1.5151,-1.5816,-1.6402,-1.6648,-1.6738,-1.6574,-1.6574,-1.6237,-1.5484,-1.5235,-1.4741,-1.3997,-1.3483,-1.296,-1.2448,-1.1671,-1.1068,-1.0463,-0.9336,-0.8376,-0.7499,-0.6881,-0.6169,-0.5455,-0.4835,-0.4389,-0.3946,-0.3665,-0.3275,-0.2864,-0.292,-0.2678,-0.2422,-0.2422,-0.2422,-0.2415,-0.237,-0.2326,-0.2282,-0.2039,-0.2,-0.1974,-0.2064,-0.2064,-0.2154,-0.2154,-0.2334,-0.2424,-0.2424,-0.2691,-0.3048,-0.3048,-0.3227,-0.3497,-0.3678,-0.3767,-0.3857,-0.4123,-0.4391,-0.4572,-0.4661,-0.5018,-0.5371,-0.5816,-0.5994,-0.626,-0.6526,-0.6707,-0.6795,-0.6795,-0.7061,-0.733,-0.7507,-0.7852,-0.8113,-0.8201,-0.8384,-0.8483,-0.8551,-0.8371,-0.8269,-0.8312,-0.8353,-0.8327,-0.8327,-0.8479,-0.8551,-0.8551,-0.8403,-0.8327,-0.825,-0.7953,-0.7804,-0.3139,-0.2609,-0.217,-0.1918,-0.1611,-0.138,-0.1425,-0.1615,-0.2063,-0.2777,-0.3937,-0.5184,-0.634,-0.8006,-0.9579,-1.089,-1.2272,-1.3561,-1.4741,-1.5567,-1.6229,-1.6812,-1.7057,-1.7147,-1.6984,-1.6894,-1.6648,-1.6154,-1.565,-1.5068,-1.4412,-1.399,-1.3483,-1.2875,-1.2272,-1.1499,-1.0636,-0.968,-0.8899,-0.8113,-0.7499,-0.6789,-0.5985,-0.5366,-0.4835,-0.4306,-0.4164,-0.3772,-0.3343,-0.3341,-0.32,-0.2927,-0.2826,-0.2725,-0.2722,-0.2792,-0.2734,-0.2666,-0.2636,-0.2577,-0.2513,-0.2334,-0.2334,-0.2334,-0.2513,-0.2693,-0.2781,-0.2781,-0.305,-0.3406,-0.3406,-0.3587,-0.3767,-0.3859,-0.4037,-0.4304,-0.448,-0.4659,-0.4837,-0.5018,-0.5371,-0.5816,-0.6083,-0.626,-0.6526,-0.6795,-0.6972,-0.7149,-0.7149,-0.7326,-0.7595,-0.7768,-0.8025,-0.8288,-0.838,-0.856,-0.8624,-0.8438,-0.8574,-0.8554,-0.8425,-0.8458,-0.8551,-0.8551,-0.8627,-0.8703,-0.8703,-0.8551,-0.8475,-0.8403,-0.8178,-0.803,-0.3061,-0.2475,-0.2125,-0.1674,-0.1371,-0.1226,-0.125,-0.1345,-0.1614,-0.2599,-0.3758,-0.5092,-0.6511,-0.8093,-0.9753,-1.1149,-1.2528,-1.3913,-1.514,-1.4732,-1.4525,-1.5041,-1.5249,-1.5298,-1.5298,-1.6444,-1.7057,-1.673,-1.5982,-1.5318,-1.4817,-1.4412,-1.3828,-1.3052,-1.2705,-1.1929,-1.0722,-1.0207,-0.9602,-0.8723,-0.8113,-0.7408,-0.6517,-0.5988,-0.5275,-0.4486,-0.4491,-0.4286,-0.392,-0.3778,-0.3635,-0.3635,-0.3432,-0.3331,-0.3331,-0.3331,-0.3252,-0.3239,-0.3239,-0.3066,-0.2963,-0.2693,-0.2603,-0.2603,-0.2873,-0.3141,-0.3227,-0.3227,-0.3408,-0.3676,-0.3676,-0.3767,-0.3946,-0.4037,-0.4393,-0.475,-0.475,-0.4924,-0.5099,-0.5371,-0.5816,-0.6083,-0.6171,-0.6526,-0.6795,-0.6792,-0.7238,-0.7507,-0.7507,-0.7595,-0.7768,-0.8201,-0.8201,-0.838,-0.8656,-0.8823,-0.8751,-0.8379,-0.8759,-0.8823,-0.8421,-0.8627,-0.8703,-0.8703,-0.8703,-0.8703,-0.8703,-0.8703,-0.8627,-0.8403,-0.8403,-0.8327,-0.2981,-0.2475,-0.1961,-0.1254,-0.0599,-0.0263,-0.0536,-0.0897,-0.1345,-0.1973,-0.3491,-0.5092,-0.6239,-0.8173,-1.0014,-1.158,-1.3033,-1.4565,-1.61,-0.892,-0.3856,-0.4755,-0.4603,-0.4406,-0.4406,-1.2233,-1.7147,-1.6738,-1.6245,-1.5741,-1.5311,-1.465,-1.3893,-1.279,-1.2192,-1.1671,-1.1149,-1.0381,-0.9689,-0.917,-0.8464,-0.7757,-0.6962,-0.6346,-0.5813,-0.5466,-0.5046,-0.4664,-0.4395,-0.4272,-0.4137,-0.3934,-0.3833,-0.3833,-0.3833,-0.3833,-0.3744,-0.3718,-0.3718,-0.3622,-0.3409,-0.3138,-0.3048,-0.3138,-0.3408,-0.3497,-0.3497,-0.3497,-0.3678,-0.3857,-0.3857,-0.4034,-0.4302,-0.4482,-0.4661,-0.4748,-0.4924,-0.5191,-0.5371,-0.5644,-0.5908,-0.6171,-0.6343,-0.6615,-0.6881,-0.7054,-0.7326,-0.7595,-0.7768,-0.794,-0.8113,-0.8201,-0.8384,-0.8652,-0.8823,-0.8911,-0.8923,-0.8868,-0.8919,-0.8898,-0.8646,-0.8703,-0.8703,-0.8703,-0.8703,-0.8703,-0.8703,-0.8703,-0.8703,-0.8627,-0.8475,-0.8403,-0.2744,-0.2094,-0.1244,-0.0252,0.0259,0.0621,0.0895,0.0359,-0.0448,-0.1434,-0.3041,-0.4732,-0.6331,-0.8348,-1.0274,-1.1923,-1.35,-1.301,-0.8613,-0.4089,0.0641,0.5686,0.6356,0.4198,-0.1338,-0.6256,-1.1289,-1.6676,-1.65,-1.5914,-1.5394,-1.4657,-1.3899,-1.3052,-1.2534,-1.2015,-1.1499,-1.0809,-1.0125,-0.9432,-0.8819,-0.8113,-0.7312,-0.6786,-0.6254,-0.5733,-0.5511,-0.5135,-0.4676,-0.4664,-0.4437,-0.4236,-0.4033,-0.4033,-0.4033,-0.4033,-0.3941,-0.3815,-0.3815,-0.3714,-0.3587,-0.3587,-0.3497,-0.3408,-0.3587,-0.3678,-0.3767,-0.3767,-0.3944,-0.4123,-0.4123,-0.4302,-0.4569,-0.4661,-0.4926,-0.5104,-0.5282,-0.5463,-0.5641,-0.5819,-0.6083,-0.6346,-0.6523,-0.6789,-0.7058,-0.7234,-0.7503,-0.7768,-0.8028,-0.8292,-0.8384,-0.8384,-0.8648,-0.8823,-0.8911,-0.9087,-0.9176,-0.9028,-0.9082,-0.9058,-0.8718,-0.8703,-0.878,-0.8861,-0.8865,-0.8937,-0.9013,-0.8937,-0.8865,-0.8861,-0.8627,-0.8551,-0.2431,-0.1542,-0.042,0.0673,0.113,0.1615,0.2243,0.1615,0.0538,-0.0716,-0.2411,-0.4281,-0.6413,-0.8607,-1.0616,-1.2351,-1.2081,-0.9056,-0.1496,0.2829,0.8253,1.6464,1.7365,1.3075,0.2332,-0.0379,-0.5891,-1.6621,-1.6574,-1.5831,-1.5311,-1.4573,-1.3906,-1.3392,-1.296,-1.2363,-1.1763,-1.1241,-1.0554,-0.9777,-0.917,-0.8464,-0.7665,-0.7228,-0.6609,-0.5822,-0.5977,-0.5611,-0.4961,-0.4959,-0.4736,-0.4437,-0.4234,-0.4133,-0.4133,-0.4133,-0.4039,-0.4005,-0.4005,-0.39,-0.3765,-0.3946,-0.3857,-0.3678,-0.3765,-0.3855,-0.3946,-0.3946,-0.4212,-0.4389,-0.4389,-0.4569,-0.4748,-0.4839,-0.5196,-0.5552,-0.5644,-0.5733,-0.5819,-0.6083,-0.6346,-0.6523,-0.6792,-0.6966,-0.7231,-0.7415,-0.7768,-0.794,-0.8201,-0.8472,-0.8656,-0.8652,-0.8828,-0.8911,-0.8999,-0.9432,-0.9429,-0.911,-0.9246,-0.9138,-0.8799,-0.878,-0.8861,-0.9022,-0.9099,-0.9175,-0.9322,-0.9175,-0.9099,-0.9022,-0.8937,-0.8856,-0.1882,-0.0892,0.0252,0.1093,0.1999,0.2782,0.3138,0.2422,0.1435,0.0537,-0.1606,-0.392,-0.6304,-0.8765,-1.1214,-1.3275,-0.6625,-0.1293,-0.1502,1.505,2.7362,2.7763,2.8117,2.4105,1.3389,0.3834,-0.6015,-1.6621,-1.6574,-1.5748,-1.4817,-1.4482,-1.4062,-1.3392,-1.296,-1.2454,-1.1952,-1.1332,-1.0722,-1.0207,-0.9345,-0.8644,-0.8109,-0.7404,-0.6786,-0.6355,-0.607,-0.5705,-0.5249,-0.516,-0.5037,-0.4734,-0.4734,-0.4734,-0.4734,-0.4734,-0.4626,-0.4573,-0.4573,-0.436,-0.421,-0.43,-0.4123,-0.3946,-0.4121,-0.421,-0.43,-0.43,-0.4478,-0.4661,-0.4661,-0.4835,-0.501,-0.5282,-0.5552,-0.5644,-0.5733,-0.5908,-0.6083,-0.6083,-0.6438,-0.6792,-0.6795,-0.6966,-0.7231,-0.7415,-0.7768,-0.794,-0.8201,-0.8472,-0.8656,-0.8828,-0.8911,-0.9087,-0.9515,-0.9602,-0.9515,-0.9269,-0.9322,-0.9223,-0.8966,-0.8946,-0.9099,-0.9246,-0.9246,-0.9251,-0.9322,-0.9251,-0.9246,-0.9246,-0.9246,-0.9246,-0.1358,-0.0164,0.118,0.2305,0.3068,0.3673,0.4208,0.4206,0.3755,0.2235,-0.08,-0.3984,-0.6265,-0.9502,-1.0367,-0.5708,-0.2544,0.3602,1.5917,2.4626,3.2068,3.837,3.9267,3.264,1.5475,1.0173,0.0936,-1.574,-1.6409,-1.5831,-1.5151,-1.4817,-1.4321,-1.3828,-1.3398,-1.2881,-1.2289,-1.1677,-1.1068,-1.0294,-0.9602,-0.899,-0.846,-0.7848,-0.7231,-0.6624,-0.6453,-0.6018,-0.5534,-0.5391,-0.5289,-0.5037,-0.4834,-0.4834,-0.4828,-0.4777,-0.4679,-0.4563,-0.451,-0.4406,-0.43,-0.43,-0.421,-0.4121,-0.43,-0.43,-0.43,-0.448,-0.4659,-0.475,-0.4835,-0.5102,-0.528,-0.5552,-0.5644,-0.5733,-0.5733,-0.5967,-0.6289,-0.6469,-0.6806,-0.7047,-0.7234,-0.7252,-0.7372,-0.7825,-0.7919,-0.8032,-0.8384,-0.8648,-0.8911,-0.9087,-0.9174,-0.9257,-0.9602,-0.9777,-0.9686,-0.9351,-0.9414,-0.9308,-0.9042,-0.9099,-0.9246,-0.9473,-0.9473,-0.9549,-0.9695,-0.9549,-0.9473,-0.9473,-0.9322,-0.9322,-0.0808,0.0496,0.1942,0.328,0.4053,0.4736,0.5628,0.6151,0.6225,0.5051,0.3002,0.0831,-0.0983,-0.3229,-0.2787,0.3421,0.6211,1.2821,2.7763,3.2389,3.7098,4.4724,4.5456,3.7007,1.5858,0.8354,-0.1168,-1.5794,-1.6417,-1.5997,-1.565,-1.5068,-1.4489,-1.4088,-1.3652,-1.3052,-1.2448,-1.1929,-1.1241,-1.0381,-0.9864,-0.9253,-0.864,-0.8116,-0.7499,-0.6887,-0.6669,-0.6322,-0.5764,-0.5494,-0.5289,-0.5053,-0.4856,-0.4757,-0.4749,-0.4689,-0.461,-0.4522,-0.4457,-0.4375,-0.43,-0.4389,-0.4389,-0.4389,-0.4478,-0.4478,-0.448,-0.4748,-0.4837,-0.4926,-0.5191,-0.5371,-0.5552,-0.5644,-0.576,-0.5784,-0.5874,-0.6153,-0.6516,-0.679,-0.7147,-0.7406,-0.7597,-0.7602,-0.77,-0.8022,-0.8095,-0.8178,-0.8572,-0.874,-0.8999,-0.9262,-0.9345,-0.9519,-0.9689,-0.9864,-0.9857,-0.9437,-0.95,-0.9472,-0.919,-0.9322,-0.9473,-0.9695,-0.9695,-0.9771,-0.9922,-0.9771,-0.9695,-0.9695,-0.9549,-0.9473,-0.0242,0.1072,0.2445,0.388,0.5102,0.6334,0.7478,0.8158,0.8636,0.9253,1.1004,1.2206,1.1563,1.2715,1.3552,1.2711,2.1584,2.8594,2.8612,3.8309,4.5453,4.5513,4.4853,3.6348,1.5776,-0.49,-1.7147,-1.7392,-1.6574,-1.6087,-1.6087,-1.5242,-1.4489,-1.4088,-1.3652,-1.3052,-1.2448,-1.1929,-1.1327,-1.0727,-0.9946,-0.9345,-0.8911,-0.8208,-0.7588,-0.7061,-0.6756,-0.6362,-0.5823,-0.5474,-0.514,-0.4853,-0.4668,-0.4575,-0.4575,-0.4575,-0.4516,-0.4436,-0.4434,-0.4375,-0.4389,-0.4569,-0.4661,-0.475,-0.4921,-0.4835,-0.475,-0.4921,-0.5191,-0.546,-0.5644,-0.5733,-0.5733,-0.5733,-0.582,-0.5996,-0.6273,-0.656,-0.6838,-0.7117,-0.7406,-0.76,-0.76,-0.7785,-0.8009,-0.8128,-0.8284,-0.8493,-0.8589,-0.874,-0.8999,-0.9262,-0.9519,-0.9689,-0.9951,-1.0038,-0.9862,-0.9615,-0.9586,-0.9632,-0.9565,-0.962,-0.9695,-0.9922,-0.9922,-0.9922,-0.9922,-0.9922,-0.9922,-0.9922,-0.9922,-0.9771,0.0987,0.2672,0.4402,0.5262,0.6649,0.8082,0.9552,1.0727,1.1759,1.268,1.305,1.3092,1.277,1.239,1.4323,2.1122,2.5576,3.0749,3.81,4.2781,4.5266,4.4746,3.1631,2.0044,1.3522,-0.5597,-1.7546,-1.7392,-1.682,-1.6409,-1.6087,-1.5492,-1.4985,-1.4489,-1.3815,-1.3222,-1.2881,-1.2203,-1.1596,-1.0895,-1.0381,-0.9777,-0.9174,-0.8468,-0.7848,-0.7316,-0.6742,-0.637,-0.6096,-0.567,-0.5356,-0.5138,-0.4946,-0.4759,-0.4565,-0.4502,-0.4461,-0.4426,-0.4363,-0.4414,-0.4569,-0.4661,-0.4837,-0.4924,-0.5191,-0.5102,-0.4924,-0.5191,-0.546,-0.5644,-0.5644,-0.5733,-0.5754,-0.5831,-0.5877,-0.6018,-0.638,-0.6688,-0.7068,-0.7363,-0.7634,-0.7899,-0.7899,-0.8011,-0.8175,-0.8195,-0.8356,-0.8497,-0.8589,-0.8911,-0.9174,-0.9262,-0.9607,-0.9951,-0.9951,-1.0038,-0.9924,-0.9903,-0.9828,-0.9857,-0.9865,-0.9856,-0.9846,-0.9922,-0.9922,-0.9922,-0.9922,-0.9922,-0.9997,-1.0143,-1.0143,-1.0143,0.2242,0.3861,0.5423,0.644,0.8078,0.9899,1.1599,1.3413,1.5071,1.6793,1.8309,1.9557,2.0154,2.0882,2.3554,3.0293,3.2188,3.5217,4.2031,4.3806,4.4135,4.3403,2.4984,1.226,1.2011,-0.6067,-1.7708,-1.7392,-1.6984,-1.6492,-1.6087,-1.5658,-1.5144,-1.4734,-1.3899,-1.3398,-1.3137,-1.2381,-1.1688,-1.0982,-1.0554,-0.9951,-0.9257,-0.8552,-0.8025,-0.758,-0.6782,-0.6391,0.0,-0.5748,-0.5334,-0.5208,-0.493,-0.4652,-0.4461,-0.4406,-0.4383,-0.4375,-0.441,-0.4569,-0.475,-0.4928,-0.5104,-0.528,-0.5463,-0.5371,-0.5282,-0.5463,-0.5644,-0.5744,-0.5784,-0.5798,-0.5825,-0.5945,-0.6098,-0.6341,-0.6608,-0.7015,-0.741,-0.7609,-0.7878,-0.8038,-0.8038,-0.8259,-0.8412,-0.8276,-0.8536,-0.8659,-0.8597,-0.8999,-0.9262,-0.9262,-0.9694,-1.0038,-1.0038,-1.0038,-1.0038,-1.008,-0.9945,-0.9968,-1.0137,-0.9969,-0.9922,-0.9922,-0.9922,-0.9922,-0.9992,-1.0067,-1.0218,-1.0293,-1.0293,-1.0368,0.0,0.461,0.5742,0.7559,0.9552,1.1621,1.3633,1.5978,0.0,2.1124,2.5625,2.9707,3.1757,3.5394,3.8339,3.9026,4.0178,4.1024,4.1244,4.2101,4.247,4.1771,2.4152,1.1777,1.127,-0.6547,-1.7878,-1.7392,-1.6984,-1.6574,-1.6087,-1.5658,-1.5228,-1.4734,-1.4068,-1.3568,-1.3137,-1.2381,-1.1688,-1.0982,-1.0554,-0.9951,-0.9257,-0.8552,-0.8113,-0.7856,-0.6874,-0.6428,-0.634,-0.5725,-0.528,-0.501,-0.4837,-0.4569,-0.43,-0.43,-0.43,-0.4389,-0.4569,-0.475,-0.4839,-0.5282,-0.5552,-0.5733,-0.5733,-0.5733,-0.5733,-0.5733,-0.5738,-0.5771,-0.5877,-0.5909,-0.5947,-0.607,-0.6376,-0.6751,-0.7046,-0.735,-0.7646,-0.7939,-0.8038,-0.8038,-0.8038,-0.8432,-0.8713,-0.8385,-0.8718,-0.897,-0.8613,-0.8999,-0.9262,-0.9262,-0.9694,-1.0038,-1.0038,-1.0038,-1.0125,-1.0353,-1.0038,-1.0059,-1.0326,-1.0062,-0.9922,-0.9922,-0.9922,-0.9992,-1.0218,-1.0443,-1.0519,-1.0513,-1.0513,-1.0513,0.4801,0.0,0.7003,0.9207,1.1278,1.3387,0.0,1.8232,2.0837,2.3964,2.7245,3.0389,3.291,3.5437,3.7471,3.8499,3.9704,4.0645,4.1024,4.1506,4.1781,4.17,2.3651,1.1177,1.1204,-0.6671,-1.8031,-1.7473,-1.731,-1.6902,-1.617,-1.6004,-1.5582,-1.4734,-1.4398,-1.3977,-1.3313,-1.2466,-1.1774,-1.1241,-1.0814,-1.0125,-0.9257,-0.8727,-0.8288,-0.7856,-0.6874,-0.6428,-0.6343,-0.5816,-0.5371,-0.501,-0.4921,-0.4654,-0.43,-0.43,-0.4389,-0.4659,-0.4661,-0.4928,-0.5282,-0.5555,-0.5644,-0.5733,-0.5733,-0.5733,-0.5733,-0.5733,-0.5795,-0.5869,-0.5896,-0.5972,-0.6072,-0.6198,-0.6438,-0.6775,-0.7069,-0.7419,-0.7646,-0.7939,-0.8038,-0.8038,-0.8038,-0.8432,-0.8713,-0.8385,-0.8718,-0.897,-0.8613,-0.8999,-0.9262,-0.9262,-0.9694,-1.0038,-1.0038,-1.0038,-1.0188,-1.057,-1.0118,-1.0126,-1.0477,-1.0148,-0.9922,-0.9922,-1.0067,-1.0218,-1.0438,-1.0519,-1.0588,-1.0738,-1.0738,-1.0812,0.5703,0.6764,0.8164,1.0489,1.2717,1.5051,1.7645,2.0275,2.2886,2.5865,2.8643,3.1272,3.3564,3.5504,3.712,3.8198,3.9158,3.9952,4.0415,4.0701,4.0922,4.1033,2.3099,1.0865,1.1156,-0.6869,-1.8201,-1.7473,-1.7392,-1.6992,-1.617,-1.6087,-1.5665,-1.4734,-1.4482,-1.4062,-1.3398,-1.2631,-1.1854,-1.1327,-1.0901,-1.0212,-0.9257,-0.8815,-0.8376,-0.7856,-0.6874,-0.6428,-0.6343,-0.5908,-0.5463,-0.5191,-0.501,-0.4743,-0.448,-0.448,-0.4569,-0.475,-0.4926,-0.5285,-0.5552,-0.5644,-0.5733,-0.5744,-0.5795,-0.5812,-0.5812,-0.5812,-0.5896,-0.5999,-0.6056,-0.6119,-0.6296,-0.6516,-0.6741,-0.7051,-0.7325,-0.7643,-0.7842,-0.7942,-0.8038,-0.8038,-0.8038,-0.8432,-0.8713,-0.8385,-0.8718,-0.897,-0.8613,-0.8999,-0.9262,-0.9262,-0.9694,-1.0038,-1.0038,-1.0125,-1.0294,-1.0641,-1.0406,-1.0336,-1.0557,-1.0283,-1.0035,-1.0073,-1.0218,-1.0443,-1.0663,-1.0738,-1.0812,-1.0962,-1.0962,-1.1037,0.6329,0.7804,0.9471,1.1663,1.4052,1.653,1.9233,2.1966,2.4649,2.7183,2.9814,3.216,3.3958,3.5589,3.7041,3.7995,3.87,3.9298,3.9804,4.0015,4.0138,4.0271,2.2665,1.0653,1.1165,-0.6937,-1.8371,-1.7473,-1.7392,-1.6992,-1.617,-1.6087,-1.5665,-1.4734,-1.4482,-1.4062,-1.3398,-1.2711,-1.2015,-1.1327,-1.0901,-1.0212,-0.9257,-0.8815,-0.8376,-0.7856,-0.6874,0.0,-0.6343,-0.5908,-0.5552,-0.5371,-0.5099,-0.4835,-0.4661,-0.4661,-0.4748,-0.4839,-0.5282,-0.5552,-0.5733,-0.5733,-0.5744,-0.5776,-0.5874,-0.5928,-0.5958,-0.5958,-0.6034,-0.6138,-0.6241,-0.6282,-0.6418,-0.6719,-0.7042,-0.7238,-0.7543,-0.7842,-0.8038,-0.8038,-0.8038,-0.8038,-0.8038,-0.8414,-0.8687,-0.8381,-0.8695,-0.8938,-0.8609,-0.8999,-0.9262,-0.9262,-0.9694,-1.0038,-1.0038,-1.0207,-1.0467,-1.0727,-1.0603,-1.0611,-1.0595,-1.0358,-1.0291,-1.0223,-1.0443,-1.0663,-1.0887,-1.1037,-1.1111,-1.1111,-1.1111,-1.1111,0.6839,0.9152,1.1347,1.3027,1.5216,1.7797,2.0611,2.3128,2.5615,2.8302,3.0573,3.2585,3.4316,3.5788,3.6964,3.7825,3.8693,3.9401,3.9758,3.9933,4.0058,4.0196,2.2624,1.0679,1.1146,-0.6954,-1.8371,-1.7473,-1.7392,-1.6992,-1.617,-1.6087,-1.5665,-1.4734,-1.4482,-1.4062,-1.3398,-1.2711,-1.2015,-1.1327,-1.0901,-1.0212,-0.9257,-0.8815,-0.8376,-0.7856,-0.6874,-0.6428,-0.6343,-0.5908,-0.5552,-0.5371,-0.5099,-0.4835,-0.4661,-0.4661,-0.4835,-0.501,-0.5463,-0.5644,-0.5733,-0.5733,-0.5798,-0.588,-0.5896,-0.6048,-0.6211,-0.6211,-0.6227,-0.6244,-0.6265,-0.6339,-0.6418,-0.6739,-0.7042,-0.7238,-0.7543,-0.7842,-0.8038,-0.8038,-0.8038,-0.8038,-0.8038,-0.8325,-0.8564,-0.8367,-0.859,-0.8792,-0.8593,-0.8999,-0.9262,-0.9262,-0.9694,-1.0038,-1.0038,-1.0386,-1.0641,-1.0727,-1.0603,-1.0542,-1.0363,-1.0259,-1.0257,-1.0443,-1.0663,-1.0887,-1.1037,-1.1111,-1.1111,-1.1111,-1.1111,-1.1111,0.7442,0.992,1.2431,1.4543,1.679,1.9146,2.1837,2.4377,2.6809,2.9149,3.1198,3.3072,3.4653,3.5891,3.7079,3.8198,3.8905,3.9401,3.9647,3.987,4.0038,4.0177,2.2635,1.0621,1.1014,-0.7026,-1.8371,-1.7627,-1.7473,-1.6992,-1.617,-1.6087,-1.5665,-1.4734,-1.4482,-1.4062,-1.3398,-1.2711,-1.2015,-1.1327,-1.0901,-1.0212,-0.9257,-0.8815,-0.8376,-0.7856,0.0,-0.6428,-0.6343,-0.5908,-0.5644,-0.5552,-0.5191,-0.4921,-0.4835,-0.4835,-0.5104,-0.5371,-0.5644,-0.5733,-0.5733,-0.5733,-0.5809,-0.5915,-0.5983,-0.6127,-0.6282,-0.6342,-0.6361,-0.6361,-0.6361,-0.6396,-0.6537,-0.6939,-0.7138,-0.7338,-0.7743,-0.7942,-0.8038,-0.8038,-0.8038,-0.8038,-0.8038,-0.8307,-0.8534,-0.8363,-0.8567,-0.8759,-0.8589,-0.8999,-0.9262,-0.9262,-0.9694,-1.0038,-1.0038,-1.0294,-1.0641,-1.0997,-1.0863,-1.0749,-1.0492,-1.0401,-1.0438,-1.0519,-1.0663,-1.0887,-1.1111,-1.1111,-1.1111,-1.1111,-1.1111,-1.1186,0.8091,1.0583,1.3324,1.5772,1.8117,2.041,2.29,2.5456,2.7904,2.9915,3.1794,3.3518,3.4905,3.6146,3.7342,3.8603,3.9045,3.9324,3.9575,3.9804,3.9996,4.0157,2.2608,1.0589,1.0851,-0.703,-1.8442,-1.7781,-1.7546,-1.6992,-1.617,-1.6004,-1.5575,-1.4734,-1.4398,-1.3977,-1.3313,-1.2625,-1.1935,-1.1322,-1.0809,-1.0125,-0.9257,-0.8727,-0.8288,-0.7856,-0.6874,-0.6428,-0.6343,-0.5908,-0.5733,-0.5644,-0.5191,-0.501,-0.501,-0.501,-0.528,-0.5733,-0.5733,-0.5733,-0.5733,-0.5733,-0.5831,-0.5964,-0.6056,-0.6189,-0.6325,-0.6412,-0.6437,-0.6437,-0.6437,-0.6437,-0.6637,-0.7039,-0.7238,-0.7437,-0.7939,-0.8038,-0.8038,-0.8038,-0.8038,-0.8028,-0.7991,-0.825,-0.8478,-0.8307,-0.8508,-0.8714,-0.8584,-0.8915,-0.9262,-0.9262,-0.9689,-0.9951,-1.0038,-1.0299,-1.0646,-1.1176,-1.1122,-1.0902,-1.0724,-1.0732,-1.0723,-1.0616,-1.0831,-1.1027,-1.1111,-1.1111,-1.1111,-1.1111,-1.1111,-1.1186,0.868,1.1384,1.4151,1.6455,1.8824,2.1318,2.391,2.6337,2.8598,3.0616,3.2416,3.3972,3.5107,3.6596,3.7948,3.8683,3.8979,3.9219,3.9551,3.9717,3.9889,4.0077,2.2514,1.0532,1.078,-0.7116,-1.8442,-1.7781,-1.7546,-1.6992,-1.617,-1.5824,-1.5401,-1.4734,-1.4068,-1.3568,-1.3137,-1.2375,-1.1768,-1.1322,-1.0636,-0.9951,-0.9257,-0.8552,-0.8113,-0.7856,-0.6874,-0.6428,-0.6343,-0.5908,-0.5733,-0.5644,-0.5191,-0.501,-0.501,-0.501,-0.528,-0.5733,-0.5733,-0.5733,-0.5733,-0.5733,-0.5888,-0.6075,-0.6083,-0.6244,-0.6426,-0.6434,-0.6437,-0.6437,-0.6437,-0.6539,-0.6842,-0.7138,-0.7341,-0.7643,-0.7939,-0.8038,-0.8038,-0.8038,-0.8038,-0.7994,-0.7851,-0.8083,-0.8303,-0.8147,-0.843,-0.858,-0.8568,-0.8828,-0.8999,-0.9262,-0.9519,-0.9777,-1.0207,-1.0554,-1.0733,-1.1008,-1.1038,-1.0977,-1.0961,-1.1142,-1.1141,-1.089,-1.1272,-1.1294,-1.1111,-1.1111,-1.1111,-1.1111,-1.1111,-1.1186,0.9276,1.186,1.4486,1.7094,1.9792,2.2455,2.4767,2.7089,2.933,3.1258,3.2823,3.443,3.6096,3.719,3.7982,3.8585,3.8931,3.921,3.9427,3.9647,3.9848,4.0036,2.2508,1.0466,1.0606,-0.7179,-1.8451,-1.7951,-1.7554,-1.6992,-1.617,-1.5824,-1.5318,-1.4566,-1.3984,-1.3392,-1.2875,-1.2198,-1.1591,-1.1068,-1.0549,-0.9951,-0.9257,-0.8552,-0.8025,-0.758,-0.6782,-0.6343,-0.6169,-0.5819,-0.5644,-0.5463,-0.5015,-0.4924,-0.501,-0.501,-0.528,-0.5733,-0.5733,-0.5733,-0.5733,-0.5733,-0.5841,-0.5986,-0.6064,-0.62,-0.6347,-0.6418,-0.6437,-0.6437,-0.6437,-0.6639,-0.6842,-0.7138,-0.7441,-0.7646,-0.7939,-0.8038,-0.8011,-0.7916,-0.7896,-0.7851,-0.7706,-0.793,-0.8173,-0.8117,-0.8414,-0.8568,-0.8568,-0.874,-0.8999,-0.9262,-0.9607,-0.9951,-1.0125,-1.0467,-1.0733,-1.0824,-1.1091,-1.1144,-1.0988,-1.131,-1.1392,-1.1147,-1.1538,-1.1721,-1.1612,-1.1612,-1.1534,-1.1371,-1.1447,-1.1583,1.0034,1.2452,1.5067,1.788,2.0761,2.3467,2.5704,2.7904,2.9911,3.1743,3.3415,3.5078,3.6741,3.7431,3.7931,3.846,3.8815,3.9129,3.9324,3.9575,3.9804,3.9975,2.2416,1.031,1.0515,-0.7238,-1.8612,-1.804,-1.7554,-1.6984,-1.617,-1.5748,-1.5151,-1.4391,-1.3815,-1.3222,-1.2619,-1.1929,-1.1327,-1.0809,-1.0294,-0.9777,-0.9174,-0.8468,-0.7848,-0.7312,-0.6694,-0.6257,-0.6083,-0.5822,-0.5552,-0.5193,-0.4837,-0.4837,-0.501,-0.501,-0.528,-0.5733,-0.5733,-0.5733,-0.5733,-0.5733,-0.5809,-0.5918,-0.6002,-0.614,-0.6285,-0.6363,-0.6407,-0.6437,-0.6437,-0.6639,-0.6942,-0.7138,-0.7441,-0.7743,-0.7942,-0.8001,-0.7936,-0.7831,-0.7773,-0.7699,-0.7553,-0.7813,-0.8087,-0.8035,-0.8375,-0.8568,-0.8568,-0.874,-0.8911,-0.9262,-0.9694,-1.0038,-1.0038,-1.0472,-1.0727,-1.0727,-1.1084,-1.1273,-1.1106,-1.1517,-1.1649,-1.1404,-1.1804,-1.2005,-1.192,-1.192,-1.183,-1.1655,-1.1811,-1.1939,1.0771,1.3262,1.588,1.8701,2.1555,2.43,2.6837,2.8716,3.0379,3.1982,3.4186,3.6028,3.6781,3.7339,3.7845,3.8318,3.8683,3.9007,3.9272,3.9477,3.9712,3.9975,2.224,1.0119,1.0466,-0.736,-1.8763,-1.8031,-1.7456,-1.6812,-1.6162,-1.5416,-1.4901,-1.4384,-1.3555,-1.2875,-1.2357,-1.1671,-1.0982,-1.0294,-0.9777,-0.9345,-0.8911,-0.8208,-0.7588,-0.7051,-0.6609,-0.6254,-0.6083,-0.5819,-0.546,-0.501,-0.4748,-0.4837,-0.501,-0.501,-0.528,-0.5733,-0.5733,-0.5733,-0.5733,-0.5733,-0.5809,-0.5901,-0.5904,-0.6072,-0.6265,-0.6268,-0.6347,-0.6434,-0.6434,-0.6833,-0.7235,-0.7238,-0.7637,-0.8038,-0.8038,-0.7916,-0.7811,-0.7807,-0.7692,-0.755,-0.7397,-0.7825,-0.8046,-0.7878,-0.83,-0.8568,-0.8568,-0.8568,-0.874,-0.9262,-0.9694,-1.0038,-1.0038,-1.0472,-1.0727,-1.0727,-1.1084,-1.1262,-1.1262,-1.1785,-1.1918,-1.1572,-1.2064,-1.2192,-1.1926,-1.1926,-1.1926,-1.1926,-1.2172,-1.2412,1.1347,1.3753,1.6288,1.9403,2.1943,2.4475,2.7354,2.9185,3.0998,3.3292,3.4891,3.6079,3.6781,3.7339,3.7845,3.8318,3.8652,3.8921,3.9129,3.9324,3.9526,3.9762,2.213,1.0039,1.0409,-0.7387,-1.8763,-1.8031,-1.7224,-1.6357,-1.5567,-1.4699,-1.4017,-1.336,-1.2826,-1.226,-1.1674,-1.1246,-1.0722,-1.0125,-0.9432,-0.8995,-0.864,-0.8116,-0.7499,-0.6881,-0.652,-0.6169,-0.5819,-0.5371,-0.5013,-0.4748,-0.4478,-0.4569,-0.4835,-0.4921,-0.5191,-0.5552,-0.5644,-0.5733,-0.5733,-0.5733,-0.5757,-0.5798,-0.588,-0.5953,-0.6029,-0.6116,-0.6165,-0.6189,-0.6189,-0.6475,-0.681,-0.7093,-0.7365,-0.7589,-0.7781,-0.7767,-0.7631,-0.7522,-0.7468,-0.739,-0.7238,-0.766,-0.7912,-0.7863,-0.83,-0.8568,-0.8568,-0.8915,-0.9174,-0.9257,-0.9694,-1.0038,-1.0038,-1.0472,-1.0727,-1.0727,-1.1084,-1.1262,-1.1262,-1.1785,-1.1918,-1.1838,-1.2342,-1.2548,-1.2475,-1.2475,-1.2379,-1.2198,-1.2443,-1.2507,1.2218,1.4522,1.7014,1.999,2.2509,2.5127,2.8567,3.0422,3.1998,3.402,3.5128,3.5994,3.6597,3.7167,3.7685,3.8138,3.8465,3.8743,3.8989,3.9237,3.9452,3.967,2.1998,1.0,1.0573,-0.7279,-1.8538,-1.7603,-1.6748,-1.5913,-1.5132,-1.4238,-1.3423,-1.2778,-1.2233,-1.1634,-1.1233,-1.0699,-1.0211,-0.9694,-0.9082,-0.8552,-0.8021,-0.7672,-0.7231,-0.6612,-0.6257,-0.5905,-0.5552,-0.5191,-0.4924,-0.4661,-0.4389,-0.448,-0.4748,-0.4921,-0.5191,-0.546,-0.5644,-0.5733,-0.5733,-0.5733,-0.5733,-0.5746,-0.5814,-0.5869,-0.5918,-0.5994,-0.6048,-0.6086,-0.6086,-0.6178,-0.6498,-0.6943,-0.7211,-0.7439,-0.763,-0.7611,-0.7482,-0.739,-0.7322,-0.7251,-0.7156,-0.7499,-0.7768,-0.7852,-0.83,-0.8568,-0.8568,-0.8915,-0.9174,-0.9257,-0.9602,-0.9864,-0.9951,-1.0294,-1.0554,-1.0727,-1.0997,-1.1181,-1.1262,-1.1699,-1.1957,-1.2043,-1.2369,-1.2619,-1.2705,-1.2705,-1.262,-1.2469,-1.272,-1.2806,1.3158,1.5573,1.8037,2.0598,2.3256,2.6285,3.0251,3.1998,3.3108,3.4234,3.5085,3.5766,3.636,3.6891,3.741,3.7793,3.8083,3.8368,3.8693,3.8915,3.9151,3.9421,2.1723,0.9867,1.0763,-0.7024,-1.8123,-1.6944,-1.6109,-1.5319,-1.4709,-1.3818,-1.31,-1.2463,-1.1626,-1.112,-1.0861,-0.9971,-0.9492,-0.9257,-0.8723,-0.8021,-0.7139,-0.7139,-0.6874,-0.6343,-0.5905,-0.5552,-0.5371,-0.5102,-0.4835,-0.4661,-0.4389,-0.4478,-0.4659,-0.4921,-0.5102,-0.5371,-0.5644,-0.5644,-0.5733,-0.5733,-0.5733,-0.5733,-0.5733,-0.5806,-0.5888,-0.5888,-0.5966,-0.6053,-0.6053,-0.6053,-0.6147,-0.6617,-0.6904,-0.7195,-0.7483,-0.7458,-0.735,-0.735,-0.7238,-0.7139,-0.7139,-0.7323,-0.7595,-0.7852,-0.83,-0.8568,-0.8568,-0.874,-0.8999,-0.9262,-0.9519,-0.9689,-0.9951,-1.0207,-1.0381,-1.0641,-1.0916,-1.1094,-1.1262,-1.1527,-1.1785,-1.2043,-1.2283,-1.2534,-1.2705,-1.2705,-1.2705,-1.2705,-1.2966,-1.3137,1.407,1.6477,1.8787,2.1467,2.4988,2.8302,3.0357,3.1842,3.3108,3.4134,3.4944,3.5588,3.6114,3.6638,3.7129,3.7577,3.7376,3.7261,3.7607,3.7321,3.7188,3.7467,2.0602,0.9197,0.9843,-0.7131,-1.7809,-1.6758,-1.5713,-1.4652,-1.3765,-1.2694,-1.1809,-1.1205,-1.0717,-1.0301,-0.9876,-0.9549,-0.9141,-0.8723,-0.8017,-0.7489,-0.7139,-0.7139,-0.6789,-0.6169,-0.5638,-0.5282,-0.5099,-0.4837,-0.4659,-0.4389,-0.43,-0.43,-0.4389,-0.4659,-0.4926,-0.5099,-0.5371,-0.5552,-0.5733,-0.5733,-0.5733,-0.5733,-0.5733,-0.5749,-0.5771,-0.5771,-0.5787,-0.5809,-0.5809,-0.5809,-0.5899,-0.6166,-0.6512,-0.6863,-0.7329,-0.7299,-0.719,-0.719,-0.7163,-0.7139,-0.7139,-0.7323,-0.768,-0.8113,-0.8384,-0.8568,-0.8568,-0.874,-0.8999,-0.9262,-0.9519,-0.9689,-0.9951,-1.0207,-1.0381,-1.0641,-1.0916,-1.1094,-1.1262,-1.1527,-1.1785,-1.2043,-1.2283,-1.2534,-1.2705,-1.2705,-1.2705,-1.2705,-1.279,-1.2875,1.5171,1.7745,2.0291,2.3294,2.6107,2.8426,2.9869,3.1082,3.2096,3.2918,3.3947,3.4824,3.5326,3.5544,3.5735,3.6164,3.6113,3.6149,3.6539,3.6457,3.6463,3.682,2.3974,1.3696,1.0238,-0.2973,-1.2691,-1.583,-1.508,-1.4088,-1.3063,-1.2087,-1.126,-1.0513,-0.9953,-0.9556,-0.9236,-0.8848,-0.845,-0.8105,-0.7577,-0.7051,-0.6612,-0.6612,-0.6346,-0.5727,-0.5549,-0.5193,-0.4835,-0.475,-0.4569,-0.43,-0.43,-0.43,-0.43,-0.4569,-0.4748,-0.4924,-0.5282,-0.5463,-0.5552,-0.5644,-0.5733,-0.5733,-0.5733,-0.5733,-0.5733,-0.5733,-0.5733,-0.5733,-0.5733,-0.5733,-0.5733,-0.5997,-0.6311,-0.6629,-0.6992,-0.7108,-0.7139,-0.7139,-0.7139,-0.7139,-0.7139,-0.7411,-0.7768,-0.8028,-0.8384,-0.8568,-0.8568,-0.8652,-0.8915,-0.9262,-0.9432,-0.9607,-0.9951,-1.0125,-1.0299,-1.0641,-1.0824,-1.1003,-1.1262,-1.144,-1.1699,-1.1957,-1.2118,-1.2369,-1.2705,-1.2705,-1.2705,-1.2705,-1.2705,-1.2875,1.6455,1.9392,2.2163,2.5172,2.6736,2.7904,2.9259,3.0222,3.0992,3.1614,3.273,3.3784,3.432,3.4237,3.4202,3.4541,3.4765,3.5039,3.5421,3.5599,3.5855,3.6247,2.7696,1.8655,1.0714,0.1568,-0.7086,-1.4795,-1.4561,-1.3542,-1.2452,-1.1632,-1.0887,-0.9986,-0.9306,-0.8819,-0.875,-0.8094,-0.7685,-0.7401,-0.7051,-0.6523,-0.5994,-0.5905,-0.5727,-0.5371,-0.5282,-0.5015,-0.4661,-0.4661,-0.448,-0.43,-0.43,-0.43,-0.43,-0.4569,-0.4661,-0.475,-0.5193,-0.5371,-0.546,-0.5644,-0.5733,-0.5733,-0.5733,-0.5733,-0.5733,-0.5733,-0.5733,-0.5733,-0.5733,-0.5733,-0.5733,-0.5997,-0.6257,-0.6432,-0.6704,-0.6969,-0.7139,-0.7139,-0.7139,-0.7139,-0.7139,-0.7496,-0.7856,-0.7856,-0.8296,-0.8564,-0.8568,-0.8568,-0.874,-0.9174,-0.9262,-0.9432,-0.9864,-0.9951,-1.0212,-1.0641,-1.0641,-1.0819,-1.1262,-1.1267,-1.1521,-1.1957,-1.1957,-1.2203,-1.2705,-1.2705,-1.2705,-1.2705,-1.2705,-1.279,1.7905,2.1502,2.4323,2.5494,2.6826,2.8086,2.8912,3.0001,3.0942,3.1356,3.2091,3.2727,3.3067,3.344,3.3785,3.412,3.3927,3.3846,3.4187,3.3929,3.3832,3.4234,2.6539,1.7991,0.9777,0.1437,-0.67,-1.4403,-1.4114,-1.3025,-1.1632,-1.0962,-1.0137,-0.9226,-0.8703,-0.8356,-0.8094,-0.7435,-0.7179,-0.7139,-0.6251,-0.5722,-0.546,-0.528,-0.528,-0.5371,-0.4926,-0.475,-0.4661,-0.4478,-0.43,-0.43,-0.43,-0.43,-0.43,-0.43,-0.448,-0.475,-0.501,-0.5191,-0.546,-0.5644,-0.5733,-0.5733,-0.5733,-0.5733,-0.5733,-0.5733,-0.5733,-0.5733,-0.5733,-0.5733,-0.5733,-0.5733,-0.608,-0.6432,-0.6704,-0.6969,-0.7139,-0.7139,-0.7139,-0.7139,-0.7139,-0.7323,-0.7595,-0.7856,-0.8116,-0.838,-0.8564,-0.8568,-0.8652,-0.8911,-0.9174,-0.9432,-0.9602,-0.9864,-1.0125,-1.0381,-1.0554,-1.0824,-1.1008,-1.1181,-1.1435,-1.1699,-1.1871,-1.2203,-1.2705,-1.2705,-1.2705,-1.2705,-1.2705,-1.2705,2.0554,2.3877,2.5398,2.6122,2.703,2.7839,2.8349,2.9027,2.9652,3.0022,3.0414,3.0956,3.1841,3.2035,3.2104,3.2338,3.2397,3.2543,3.2827,3.2915,3.3081,3.3522,3.0438,2.3102,0.9969,0.6027,-0.0966,-1.3784,-1.3528,-1.2291,-1.0962,-1.0132,-0.9306,-0.8551,-0.7863,-0.7524,-0.7292,-0.6733,-0.6336,-0.6169,-0.5544,-0.5277,-0.5191,-0.4924,-0.4926,-0.5018,-0.475,-0.4659,-0.448,-0.4389,-0.43,-0.43,-0.43,-0.43,-0.43,-0.43,-0.4389,-0.448,-0.4748,-0.5013,-0.5191,-0.5463,-0.5644,-0.5733,-0.5733,-0.5733,-0.5733,-0.5733,-0.5733,-0.5733,-0.5733,-0.5733,-0.5733,-0.5733,-0.5997,-0.6257,-0.6523,-0.6877,-0.7139,-0.7139,-0.7139,-0.7139,-0.7139,-0.7323,-0.7595,-0.7856,-0.8113,-0.8292,-0.8564,-0.8568,-0.8652,-0.8911,-0.9174,-0.9345,-0.9602,-0.9864,-1.0125,-1.0294,-1.0554,-1.0819,-1.1008,-1.1181,-1.144,-1.1699,-1.1871,-1.2209,-1.2534,-1.2619,-1.2705,-1.2705,-1.2705,-1.2705,2.3424,2.5755,2.6176,2.6683,2.7203,2.7675,2.7925,2.8284,2.8621,2.8889,2.9075,2.9494,3.0493,3.0645,3.0658,3.0797,3.11,3.147,3.1787,3.2162,3.257,3.3032,3.3505,2.7135,1.0208,0.9739,0.3616,-1.3053,-1.2865,-1.1484,-1.0212,-0.9226,-0.847,-0.7791,-0.7019,-0.6631,-0.6544,-0.608,-0.5604,-0.528,-0.5013,-0.4924,-0.4924,-0.4659,-0.4569,-0.4569,-0.4569,-0.448,-0.43,-0.43,-0.43,-0.43,-0.43,-0.43,-0.43,-0.43,-0.43,-0.43,-0.4569,-0.4837,-0.501,-0.5282,-0.5463,-0.5644,-0.5644,-0.5733,-0.5733,-0.5733,-0.5733,-0.5733,-0.5733,-0.5733,-0.5733,-0.5733,-0.5908,-0.6171,-0.6432,-0.6786,-0.7139,-0.7139,-0.7139,-0.7139,-0.7139,-0.7234,-0.7503,-0.7768,-0.794,-0.8204,-0.8472,-0.8564,-0.8652,-0.8828,-0.9087,-0.9257,-0.9519,-0.9777,-0.9951,-1.0207,-1.0554,-1.0733,-1.0916,-1.1181,-1.1354,-1.1613,-1.1785,-1.2123,-1.2363,-1.2534,-1.2619,-1.2705,-1.2705,-1.2705,2.6076,2.6563,2.6736,2.7063,2.7372,2.7675,2.7955,2.8201,2.8444,2.8589,2.8779,2.892,2.8998,2.9576,3.0087,3.0309,3.0502,3.0828,3.1278,3.1582,3.195,3.2484,3.3076,2.6877,1.0132,0.9955,0.4107,-1.2267,-1.205,-1.0582,-0.915,-0.8461,-0.7778,-0.7015,-0.6325,-0.593,-0.591,-0.5501,-0.5162,-0.501,-0.4835,-0.4748,-0.4748,-0.4478,-0.43,-0.43,-0.43,-0.43,-0.43,-0.43,-0.43,-0.43,-0.43,-0.43,-0.43,-0.43,-0.43,-0.43,-0.4569,-0.475,-0.4748,-0.5282,-0.5371,-0.5463,-0.5644,-0.5733,-0.5733,-0.5733,-0.5733,-0.5733,-0.5733,-0.5733,-0.5733,-0.5733,-0.5908,-0.626,-0.6704,-0.6966,-0.7139,-0.7139,-0.7139,-0.7139,-0.7139,-0.7139,-0.7231,-0.7507,-0.7768,-0.8028,-0.8201,-0.8472,-0.8568,-0.8656,-0.8823,-0.8999,-0.9262,-0.9515,-0.9689,-1.0038,-1.0467,-1.0727,-1.0727,-1.1084,-1.1354,-1.1348,-1.1613,-1.1952,-1.2363,-1.2448,-1.2534,-1.2705,-1.2705,-1.2705,2.7188,2.7167,2.7218,2.7423,2.7575,2.774,2.784,2.8005,2.8201,2.8332,2.8414,2.8462,2.8462,2.9059,2.956,2.9633,2.9837,3.0038,3.0293,3.0625,3.0954,3.1422,3.2125,2.6286,1.0233,1.0364,0.4978,-1.0695,-1.0318,-0.8832,-0.7685,-0.7007,-0.6475,-0.586,-0.524,-0.4785,-0.4474,-0.4298,-0.4153,-0.4121,-0.4034,-0.4034,-0.4034,-0.3855,-0.3853,-0.3853,-0.3944,-0.4123,-0.43,-0.43,-0.43,-0.43,-0.43,-0.43,-0.43,-0.43,-0.43,-0.43,-0.4389,-0.4569,-0.475,-0.4928,-0.5196,-0.5371,-0.5463,-0.5644,-0.5733,-0.5733,-0.5733,-0.5733,-0.5733,-0.5733,-0.5733,-0.5733,-0.5908,-0.6171,-0.6523,-0.6874,-0.7139,-0.7139,-0.7139,-0.7139,-0.7139,-0.7139,-0.7231,-0.7415,-0.7768,-0.794,-0.8201,-0.8472,-0.8568,-0.8568,-0.874,-0.8999,-0.9262,-0.9519,-0.9689,-0.9951,-1.0294,-1.0554,-1.0727,-1.1003,-1.1181,-1.1262,-1.1354,-1.1607,-1.1952,-1.2283,-1.2448,-1.2534,-1.2619,-1.2705,2.7524,2.7437,2.7335,2.7423,2.7524,2.759,2.764,2.7755,2.7855,2.7989,2.7974,2.7974,2.794,2.8301,2.8732,2.8858,2.9028,2.9166,2.9348,2.9524,2.98,3.0119,3.0499,2.5207,1.1028,1.073,0.5727,-0.8116,-0.8027,-0.6992,-0.6069,-0.5461,-0.5004,-0.4462,-0.4073,-0.3689,-0.3362,-0.3362,-0.3439,-0.3497,-0.3497,-0.3497,-0.3587,-0.3587,-0.3587,-0.3587,-0.3767,-0.3944,-0.421,-0.43,-0.43,-0.43,-0.43,-0.43,-0.43,-0.43,-0.43,-0.43,-0.43,-0.4389,-0.4569,-0.4661,-0.4926,-0.528,-0.5371,-0.5552,-0.5733,-0.5733,-0.5733,-0.5733,-0.5733,-0.5733,-0.5733,-0.5733,-0.5908,-0.6171,-0.6343,-0.6697,-0.7054,-0.7051,-0.7139,-0.7139,-0.7139,-0.7139,-0.7143,-0.7323,-0.7591,-0.7856,-0.8113,-0.8292,-0.8476,-0.8568,-0.874,-0.8911,-0.9262,-0.9432,-0.9607,-0.9951,-1.0207,-1.0381,-1.0641,-1.0916,-1.1094,-1.1262,-1.1262,-1.1354,-1.1613,-1.1946,-1.2283,-1.2363,-1.2534,-1.2619,0.0,0.0,0.0,2.7181,2.7181,2.7233,2.735,2.7401,2.7437,2.7524,2.7575,2.7524,2.7386,2.735,2.7539,2.7978,2.8076,2.8174,2.8415,2.8401,2.8419,2.8592,2.8247,2.3646,1.2435,1.1023,0.6302,-0.4535,-0.5257,-0.4908,-0.437,-0.3986,-0.3444,-0.2826,-0.2826,-0.273,-0.2691,-0.2692,-0.2837,-0.3136,-0.3136,-0.3317,-0.3587,-0.3587,-0.3587,-0.3587,-0.3587,-0.3678,-0.3857,-0.421,-0.43,-0.43,-0.43,-0.43,-0.43,-0.43,-0.43,-0.43,-0.43,-0.43,-0.43,-0.4569,-0.4835,-0.501,-0.5282,-0.5552,-0.5733,-0.5733,-0.5733,-0.5733,-0.5733,-0.5733,-0.5733,-0.5733,-0.5908,-0.6169,-0.6343,-0.6612,-0.6881,-0.7051,-0.7139,-0.7139,-0.7139,-0.7139,-0.7139,-0.7139,-0.7323,-0.7595,-0.7856,-0.8113,-0.8292,-0.8568,-0.8568,-0.8828,-0.9262,-0.9262,-0.9519,-0.9951,-1.0207,-1.0376,-1.0549,-1.0824,-1.1094,-1.1262,-1.1262,-1.1262,-1.1262,-1.1613,-1.1952,-1.2363,-1.2363,-1.2534,2.6669,0.0,0.0,0.0,0.0,0.0,2.7093,2.7107,2.7093,2.6945,2.6878,2.6774,2.6616,2.6525,2.6433,2.639,2.6849,2.721,2.7056,2.6997,2.6872,2.6711,2.6229,2.2296,1.3032,1.175,0.7683,-0.1516,-0.2243,-0.2417,-0.274,-0.282,-0.2744,-0.2589,-0.2589,-0.2408,-0.2017,-0.2018,-0.2236,-0.2512,-0.2512,-0.2602,-0.2782,-0.2782,-0.2872,-0.3142,-0.3229,-0.3317,-0.3408,-0.3855,-0.4036,-0.4036,-0.421,-0.43,-0.43,-0.43,-0.43,-0.43,-0.43,-0.43,-0.43,-0.4389,-0.4654,-0.501,-0.5099,-0.5371,-0.5733,-0.5733,-0.5733,-0.5733,-0.5733,-0.5733,-0.5733,-0.5733,-0.5733,-0.5908,-0.6171,-0.6346,-0.6609,-0.7051,-0.7139,-0.7139,-0.7139,-0.7139,-0.7139,-0.7139,-0.7323,-0.7595,-0.7856,-0.8113,-0.8292,-0.8568,-0.8568,-0.8744,-0.8999,-0.9174,-0.9432,-0.9689,-0.9951,-1.0207,-1.0381,-1.0646,-1.0911,-1.1094,-1.1262,-1.1262,-1.1262,-1.1613,-1.1785,-1.1866,-1.2198,-1.2534,2.596,2.6312,2.6621,2.6621,0.0,0.0,2.6674,2.6621,2.6553,2.6418,2.6258,2.6136,2.596,2.5756,2.555,2.5272,2.5508,2.5769,2.5823,2.5617,2.5301,2.4745,2.3857,2.0665,1.3991,1.2034,0.8518,0.1912,0.0698,-0.0156,-0.094,-0.1176,-0.1333,-0.1491,-0.1491,-0.1364,-0.1177,-0.1261,-0.1462,-0.1884,-0.1884,-0.1974,-0.2243,-0.2334,-0.2513,-0.2784,-0.2871,-0.296,-0.3139,-0.3497,-0.3767,-0.3948,-0.4034,-0.421,-0.43,-0.43,-0.43,-0.43,-0.43,-0.43,-0.43,-0.43,-0.4567,-0.4924,-0.501,-0.528,-0.5552,-0.5644,-0.5733,-0.5733,-0.5733,-0.5733,-0.5733,-0.5733,-0.5733,-0.5733,-0.6083,-0.6257,-0.652,-0.6877,-0.7054,-0.7139,-0.7139,-0.7139,-0.7139,-0.7139,-0.7231,-0.7415,-0.768,-0.794,-0.8204,-0.8384,-0.8564,-0.8652,-0.8911,-0.9174,-0.9345,-0.9602,-0.9864,-1.0125,-1.0294,-1.0467,-1.0646,-1.1008,-1.1094,-1.1181,-1.1262,-1.144,-1.1613,-1.1699,-1.2198,-1.2448,2.5024,2.5591,2.6002,2.6002,2.6165,0.0,2.6056,2.6002,2.6002,2.5839,2.5674,2.5495,2.5356,2.509,2.4765,2.4465,2.4176,2.4163,2.4641,2.4297,2.3702,2.288,2.1401,1.8874,1.4947,1.2165,0.9089,0.5345,0.3429,0.1956,0.0862,0.0628,0.0393,0.0236,0.0157,-0.0,-0.0335,-0.0421,-0.0688,-0.1341,-0.1344,-0.1525,-0.1884,-0.2064,-0.2243,-0.2424,-0.2513,-0.2604,-0.2873,-0.305,-0.3408,-0.3857,-0.3859,-0.4034,-0.43,-0.43,-0.43,-0.43,-0.43,-0.43,-0.43,-0.43,-0.448,-0.475,-0.4921,-0.5191,-0.546,-0.5644,-0.5733,-0.5733,-0.5733,-0.5733,-0.5733,-0.5733,-0.5733,-0.5733,-0.5994,-0.6257,-0.6432,-0.6704,-0.6966,-0.7139,-0.7139,-0.7139,-0.7139,-0.7139,-0.7139,-0.7231,-0.7507,-0.768,-0.794,-0.8201,-0.8384,-0.8652,-0.8828,-0.9087,-0.9345,-0.9519,-0.9777,-1.0038,-1.0294,-1.0294,-1.0472,-1.0916,-1.1008,-1.1094,-1.1262,-1.1262,-1.144,-1.1699,-1.2118,-1.2363,2.3692,2.4611,2.5384,2.5522,2.5756,0.0,2.5577,2.5522,2.5481,2.5216,2.4935,2.4738,2.4681,2.4323,2.4002,2.378,2.3437,2.3245,2.3636,2.3148,2.2396,2.1369,1.9727,1.7678,1.5217,1.2646,1.0107,0.7588,0.4982,0.3051,0.2195,0.1803,0.1568,0.1568,0.1178,0.0876,0.0573,0.0334,-0.0085,-0.07,-0.0712,-0.0987,-0.1525,-0.1525,-0.1794,-0.2244,-0.2424,-0.2513,-0.2604,-0.2873,-0.3141,-0.3406,-0.3767,-0.3946,-0.4036,-0.421,-0.43,-0.43,-0.43,-0.43,-0.43,-0.43,-0.448,-0.475,-0.4921,-0.5191,-0.546,-0.5644,-0.5733,-0.5733,-0.5733,-0.5733,-0.5733,-0.5733,-0.5733,-0.5733,-0.5733,-0.5997,-0.6171,-0.626,-0.67,-0.7139,-0.7139,-0.7139,-0.7139,-0.7139,-0.7139,-0.7231,-0.7507,-0.7507,-0.7768,-0.8113,-0.8288,-0.838,-0.8652,-0.8828,-0.9087,-0.9345,-0.9519,-0.9777,-1.0038,-1.0207,-1.0381,-1.0472,-1.0829,-1.1094,-1.1262,-1.1262,-1.144,-1.1699,-1.1785,-1.2032,2.2309,2.3408,2.4377,2.4517,2.4984,0.0,0.0,2.5021,2.4908,2.4694,2.4363,2.4073,2.4073,2.359,2.3173,2.3125,2.2641,2.2273,2.2237,2.1877,2.1239,2.0193,1.8639,1.6927,1.5043,1.2889,1.0605,0.7986,0.5841,0.43,0.3524,0.3056,0.2666,0.2353,0.2041,0.1667,0.1219,0.0998,0.0681,0.0435,-0.0,-0.0448,-0.0718,-0.1166,-0.1525,-0.1794,-0.2064,-0.2244,-0.2513,-0.2604,-0.2872,-0.3051,-0.3408,-0.3678,-0.3948,-0.4034,-0.4212,-0.43,-0.43,-0.43,-0.43,-0.43,-0.4389,-0.4569,-0.4921,-0.528,-0.5552,-0.5644,-0.5733,-0.5733,-0.5733,-0.5733,-0.5733,-0.5733,-0.5733,-0.5733,-0.5733,-0.5908,-0.6083,-0.6083,-0.6435,-0.6786,-0.6966,-0.7054,-0.7139,-0.7139,-0.7139,-0.7143,-0.7323,-0.7415,-0.768,-0.8028,-0.8113,-0.8292,-0.8568,-0.8828,-0.8999,-0.9257,-0.9519,-0.9689,-0.9951,-1.0125,-1.0294,-1.0467,-1.0829,-1.1094,-1.1262,-1.1262,-1.1348,-1.1527,-1.1613,-1.1871,2.1058,2.2197,2.3234,2.3451,2.4129,2.4644,0.0,0.0,0.0,2.4118,2.3793,2.3437,2.3378,2.2896,2.2531,2.2457,2.1901,2.14,2.0944,2.0688,2.0172,1.9233,1.7872,1.6419,1.4816,1.2924,1.0628,0.7918,0.6623,0.5625,0.4771,0.4309,0.3763,0.3137,0.2823,0.2454,0.1935,0.1658,0.1442,0.1382,0.062,0.0179,-0.0,-0.0807,-0.1256,-0.1436,-0.1615,-0.1974,-0.2334,-0.2424,-0.2604,-0.2873,-0.3139,-0.3497,-0.3857,-0.3859,-0.4034,-0.43,-0.43,-0.43,-0.43,-0.43,-0.4387,-0.4476,-0.4921,-0.5371,-0.5733,-0.5733,-0.5733,-0.5733,-0.5733,-0.5733,-0.5733,-0.5733,-0.5733,-0.5733,-0.5733,-0.5908,-0.5997,-0.5997,-0.6169,-0.6435,-0.6704,-0.6969,-0.7051,-0.7051,-0.7139,-0.7139,-0.7139,-0.7323,-0.7503,-0.7768,-0.8028,-0.8204,-0.8476,-0.874,-0.8911,-0.9174,-0.9432,-0.9689,-0.9951,-0.9951,-1.0212,-1.0641,-1.0824,-1.1003,-1.1267,-1.1267,-1.1262,-1.1354,-1.1527,-1.1613,2.0031,2.1112,2.2155,2.2729,2.3219,2.3598,2.3949,0.0,2.3675,2.3509,0.0,2.2909,2.2775,0.0,0.0,2.1839,2.1336,2.0828,2.0291,1.9518,1.8931,1.8643,1.7413,1.6175,1.4974,1.2492,1.0282,0.8699,0.7787,0.6865,0.5783,0.5321,0.4851,0.4229,0.3602,0.3215,0.2909,0.2468,0.1936,0.1435,0.132,0.0807,-0.0,-0.009,-0.0628,-0.1436,-0.1436,-0.1615,-0.1885,-0.2334,-0.2513,-0.2603,-0.3048,-0.3406,-0.3678,-0.3857,-0.4034,-0.43,-0.43,-0.43,-0.43,-0.43,-0.4565,-0.4921,-0.5008,-0.5371,-0.5733,-0.5733,-0.5733,-0.5733,-0.5733,-0.5733,-0.5733,-0.5733,-0.5733,-0.5733,-0.5733,-0.5733,-0.5733,-0.5733,-0.5997,-0.626,-0.6707,-0.6792,-0.6881,-0.7051,-0.7139,-0.7139,-0.7139,-0.7139,-0.7234,-0.7507,-0.7768,-0.8028,-0.8201,-0.8472,-0.874,-0.8911,-0.9174,-0.9432,-0.9602,-0.9864,-1.012,-1.0381,-1.0641,-1.0824,-1.1008,-1.1181,-1.1262,-1.1262,-1.1348,-1.144,1.8877,1.9928,2.0902,2.128,2.1817,2.2449,2.2898,2.2791,2.2643,2.2895,0.0,0.0,0.0,0.0,0.0,0.0,2.0688,2.0237,1.9704,1.9044,1.8452,1.8104,1.7019,1.5692,1.4049,1.2218,1.0738,0.9685,0.8699,0.7783,0.6865,0.6479,0.5857,0.5157,0.4613,0.4146,0.3837,0.3202,0.2688,0.2353,0.1933,0.1346,0.0807,0.0538,0.0,-0.0628,-0.1166,-0.1436,-0.1615,-0.1974,-0.2243,-0.2513,-0.2691,-0.3048,-0.3406,-0.3676,-0.3857,-0.4123,-0.421,-0.43,-0.43,-0.43,-0.4654,-0.501,-0.501,-0.5371,-0.5733,-0.5733,-0.5733,-0.5733,-0.5733,-0.5733,-0.5733,-0.5733,-0.5733,-0.5733,-0.5733,-0.5733,-0.5733,-0.5733,-0.5822,-0.5997,-0.6349,-0.6618,-0.6792,-0.6881,-0.7054,-0.7139,-0.7139,-0.7139,-0.7231,-0.7507,-0.7591,-0.7856,-0.8201,-0.8292,-0.8556,-0.8911,-0.9257,-0.9519,-0.9602,-0.9864,-1.0125,-1.0294,-1.0381,-1.0559,-1.0824,-1.1003,-1.1094,-1.1094,-1.1267,-1.1348,1.8018,1.8896,1.9764,2.0019,2.057,2.1225,2.1716,2.1743,2.1727,2.2043,2.193,0.0,0.0,0.0,2.0903,2.0506,0.0,1.9704,1.9243,1.8643,1.8104,1.7638,1.6533,1.5204,1.3419,1.2305,1.1335,1.0519,0.9533,0.8703,0.7863,0.748,0.6861,0.6009,0.5544,0.5098,0.4742,0.4035,0.3537,0.3222,0.2555,0.2063,0.1615,0.1166,0.0628,0.0179,-0.0628,-0.1166,-0.1436,-0.1615,-0.1974,-0.2334,-0.2424,-0.2691,-0.305,-0.3408,-0.3678,-0.3946,-0.4123,-0.421,-0.43,-0.43,-0.4654,-0.501,-0.501,-0.5371,-0.5733,-0.5733,-0.5733,-0.5733,-0.5733,-0.5733,-0.5733,-0.5733,-0.5733,-0.5733,-0.5733,-0.5733,-0.5733,-0.5733,-0.5733,-0.5733,-0.5997,-0.6349,-0.6615,-0.6795,-0.6969,-0.7054,-0.7051,-0.7139,-0.7143,-0.7415,-0.7415,-0.768,-0.8113,-0.8201,-0.8376,-0.8911,-0.9257,-0.9432,-0.9602,-0.9777,-0.9951,-1.0207,-1.0294,-1.0381,-1.0554,-1.0824,-1.0921,-1.1008,-1.1181,-1.1262,1.759,1.815,1.8755,1.9317,1.9626,1.9992,2.0535,2.0819,2.0948,2.0971,2.1125,2.1158,2.0967,2.0764,2.0506,2.0172,1.9704,0.0,0.0,1.8192,1.7647,1.7442,1.6114,1.4776,1.3564,1.29,1.215,1.1186,1.0293,0.9539,0.8703,0.825,0.7714,0.6861,0.6395,0.5924,0.5505,0.4896,0.4331,0.3732,0.3371,0.2869,0.2334,0.1705,0.1076,0.0628,0.0179,-0.0538,-0.1436,-0.1436,-0.1615,-0.1884,-0.2334,-0.2513,-0.2603,-0.3048,-0.3497,-0.3859,-0.3948,-0.4123,-0.43,-0.43,-0.4654,-0.501,-0.501,-0.5371,-0.5733,-0.5733,-0.5733,-0.5733,-0.5733,-0.5733,-0.5733,-0.5733,-0.5733,-0.5733,-0.5733,-0.5733,-0.5733,-0.5733,-0.5733,-0.5733,-0.5733,-0.5908,-0.626,-0.6707,-0.6795,-0.6881,-0.7054,-0.7139,-0.7139,-0.7139,-0.7323,-0.7591,-0.7856,-0.8116,-0.8376,-0.8911,-0.8911,-0.9087,-0.9602,-0.9602,-0.9777,-1.0038,-1.0207,-1.0294,-1.0294,-1.0554,-1.0824,-1.1008,-1.1181,-1.1262,0.0,0.0,1.8075,1.8334,1.8545,1.8806,1.9364,1.946,1.9597,2.0129,2.0228,2.0202,2.0257,2.0194,1.9987,1.9528,1.9264,1.8931,0.0,1.751,1.6881,1.6542,1.5638,1.4713,1.3992,1.3258,1.2526,1.1781,1.0962,1.0212,0.9539,0.9299,0.8755,0.789,0.7609,0.7134,0.6538,0.6011,0.5419,0.4685,0.4347,0.3764,0.2959,0.2599,0.1973,0.1166,0.0628,0.009,-0.0538,-0.1166,-0.1436,-0.1525,-0.1885,-0.2243,-0.2513,-0.3048,-0.3406,-0.3765,-0.4034,-0.421,-0.43,-0.43,-0.4654,-0.501,-0.501,-0.5371,-0.5733,-0.5733,-0.5733,-0.5733,-0.5733,-0.5733,-0.5733,-0.5733,-0.5733,-0.5733,-0.5733,-0.5733,-0.5733,-0.5733,-0.5733,-0.5733,-0.5733,-0.5733,-0.5908,-0.6263,-0.6618,-0.6792,-0.6881,-0.7054,-0.7139,-0.7139,-0.7143,-0.7323,-0.7591,-0.7937,-0.838,-0.8652,-0.8823,-0.9087,-0.9345,-0.9515,-0.9689,-1.0038,-1.0038,-1.0125,-1.0125,-1.0294,-1.0554,-1.0824,-1.1003,-1.1181,1.6832,1.7211,0.0,1.7567,1.7689,1.7889,1.8272,1.8316,1.8503,1.9006,1.923,1.9391,1.9437,1.9498,1.9407,1.9075,1.8808,1.8472,0.0,1.7097,1.6473,1.6202,1.5497,1.4784,1.4346,1.363,1.2973,1.2378,1.1632,1.1004,1.0416,1.0108,0.968,0.9039,0.8607,0.8127,0.7522,0.6953,0.634,0.5608,0.5159,0.448,0.3674,0.3226,0.2598,0.1883,0.1256,0.0718,0.0179,-0.0628,-0.1076,-0.1436,-0.1615,-0.1974,-0.2424,-0.2781,-0.3229,-0.3676,-0.4034,-0.421,-0.43,-0.43,-0.4654,-0.501,-0.501,-0.5371,-0.5733,-0.5733,-0.5733,-0.5733,-0.5733,-0.5733,-0.5733,-0.5733,-0.5733,-0.5733,-0.5733,-0.5733,-0.5733,-0.5733,-0.5733,-0.5733,-0.5733,-0.5733,-0.5822,-0.6083,-0.6349,-0.6618,-0.6792,-0.6881,-0.7054,-0.7051,-0.7139,-0.7231,-0.7591,-0.8025,-0.8292,-0.8568,-0.874,-0.8915,-0.9174,-0.9345,-0.9602,-0.9864,-0.9951,-1.0038,-1.0038,-1.0125,-1.0294,-1.0554,-1.0824,-1.1003]}]]